     2              OBSERVATION DATA    GPS                 RINEX VERSION / TYPE
teqc 1998Mar9 19981006 17:24:25UTC                          PGM / RUN BY / DATE
                                                            COMMENT
Original Marker Name: 1001                                  COMMENT
Campaign Name: HPGN 1998                                    COMMENT
4-Character Station Name: 1001                              COMMENT
6-Character Antenna Code: TRMCMP                            COMMENT
Vertical Measurement Point: BPA                             COMMENT
Vertical Offset to Rinex Ref. Point: 0.0000                 COMMENT
Radial Measurement Point: RRP                               COMMENT
Radial Offset to Rinex Ref. Point: 0.0000                   COMMENT
Antenna Height from Field Measurement: 2.0000 m             COMMENT
Original XYZ: -2605189.3911 -4380135.1515 3822243.6854      COMMENT
New XYZ position is based on association with SCEC monument COMMENT
E1F7N1A1+0011. Position of that monument is believed to be  COMMENT
valid to within 1 m horizontally; vertical accuracy         COMMENT
should be no worse than 3-times this value.                 COMMENT
                                                            COMMENT
Revised Rinex header created by UCSD GPS archive for        COMMENT
GSAC on 31-Aug-1999 (1999:243) 00:35:03 GMT                 COMMENT
For assistance contact dagnew@ucsd.edu or hjohnson@ucsd.edu COMMENT
                                                            COMMENT
HPGN CA 10 01                                               MARKER NAME
unknown CALIF DEPT TRANSPORTATION                           OBSERVER / AGENCY
11526 TRIMBLE 4000 SSE NP 7.25; SP 3.07                     REC # / TYPE / VERS
30426 TR GEOD L1/L2 GP                                      ANT # / TYPE
 -2605191.0000 -4380137.0000  3822240.0000                  APPROX POSITION XYZ
        2.0000        0.0000        0.0000                  ANTENNA: DELTA H/E/N
     1     1     0                                          WAVELENGTH FACT L1/2
     7    L1    L2    C1    P2    P1    D1    D2            # / TYPES OF OBSERV
     0                                                      INTERVAL
  1998     7     8    20    14   45.000000                  TIME OF FIRST OBS
  1998     7     9     1    47   15.000000                  TIME OF LAST OBS
                                                            END OF HEADER
 98  7  8 20 14 45.0000000  0  6G 6G17G21G22G23G26
     42313.48257     23567.15057  21105358.4144   21105360.8054
     -3034.1564      -2364.2784
     14282.84657     11129.80857  20863749.5474   20863752.6644
     -1030.7664       -803.1944
    -24777.57055                  24043875.4774
      1758.0474
     19916.51955     15518.89255  23399568.9614   23399573.6724
     -1435.4374      -1118.5234
     -6907.76756     -3040.80956  21477214.5944   21477217.8634
       480.6094        374.5014
     13201.09256     10286.78456  22430304.3444   22430307.8834
      -956.5944       -745.3984
 98  7  8 20 15  0.0000000  0  6G 6G17G21G22G23G26
     88047.51247     59204.06447  21114061.2974   21114063.6174
     -3061.3284      -2385.4504
     29930.91247     23323.12447  20866727.4694   20866730.5394
     -1053.1724       -820.6534
    -50960.15745    -16297.52554  24038892.8054   24038899.4264
      1735.3914       1352.2524
     41675.42145     32473.88345  23403709.8674   23403714.0044
     -1463.3284      -1140.2564
    -13902.15546     -8490.94046  21475883.4224   21475886.5514
       454.3594        354.0464
     27787.63146     21652.95446  22433079.7814   22433083.0164
      -985.8444       -768.1904
 98  7  8 20 15 15.0000000  0  6G 6G17G21G22G23G26
    134184.46447     95154.92847  21122840.9454   21122843.1954
     -3091.0944      -2408.6444
     45909.35947     35773.88547  20869768.1024   20869771.1844
     -1078.0944       -840.0734
    -76808.59245    -36439.07844  24033974.2894   24033980.8754
      1710.2974       1332.6994
     63846.22445     49749.85445  23407929.1024   23407933.0274
     -1493.5784      -1163.8274
    -20506.98446    -13637.51446  21474626.7194   21474630.1174
       425.5164        331.5714
     42806.72846     33356.17846  22435937.8134   22435941.0594
     -1017.4224       -792.7964
 98  7  8 20 15 30.0000000  0  6G 6G17G21G22G23G26
    180766.62347    131452.71447  21131705.3284   21131707.5784
     -3120.8124      -2431.8024
     62260.32447     48514.91447  20872879.5314   20872882.6484
     -1103.0624       -859.5294
   -102283.80245    -56289.82544  24029126.5234   24029132.1374
      1685.4384       1313.3284
     86470.02045     67378.77745  23412234.1724   23412239.2704
     -1523.9374      -1187.4844
    -26682.66946    -18449.69746  21473451.5314   21473454.9184
       396.9694        309.3264
     58297.61146     45427.02446  22438885.6954   22438889.1764
     -1049.0474       -817.4394
 98  7  8 20 15 45.0000000  0  6G 6G17G21G22G23G26
    227782.46947    168088.42847  21140652.1954   21140654.5634
     -3148.5474      -2453.4134
     78977.33847     61541.17947  20876060.4304   20876063.6174
     -1126.4694       -877.7684
   -127398.56345    -75859.68044  24024347.0164   24024352.7814
      1662.7034       1295.6134
    109538.61345     85354.31945  23416624.0084   23416628.8014
     -1552.4064      -1209.6674
    -32441.58446    -22937.12946  21472355.5784   21472359.1054
       370.2504        288.5064
     74255.30046     57861.62146  22441922.3524   22441925.9384
     -1079.3124       -841.0234
 98  7  8 20 16  0.0000000  0  6G 6G17G21G22G23G26
    275218.63147    205051.67147  21149679.1254   21149681.3524
     -3176.0784      -2474.8664
     96049.90847     74844.49747  20879309.6024   20879312.6724
     -1149.6724       -895.8484
   -152170.66145    -95162.50544  24019633.2584   24019639.6094
      1640.4384       1278.2634
    133037.89445    103665.45545  23421095.9774   23421100.9924
     -1580.6724      -1231.6924
    -37792.46446    -27106.60346  21471337.4454   21471340.7384
       343.3754        267.5654
     90673.91546     70655.36746  22445046.5554   22445049.8484
     -1109.7194       -864.7164
 98  7  8 20 16 15.0000000  0  6G 6G17G21G22G23G26
    323078.39047    242344.98447  21158786.3284   21158788.6254
     -3205.3754      -2497.6954
    113482.29647     88428.19247  20882626.6334   20882629.8554
     -1174.7974       -915.4264
   -176597.95245   -114196.69744  24014984.6644   24014991.2384
      1616.3754       1259.5134
    156971.82745    122315.28545  23425650.3364   23425656.0784
     -1610.6724      -1255.0694
    -42729.93847    -30953.94646  21470397.9064   21470400.7194
       314.8594        245.3454
    107560.31246     83813.63246  22448259.9384   22448263.3594
     -1141.9064       -889.7974
 98  7  8 20 16 30.0000000  0  6G 6G17G21G22G23G26
    371361.23047    279967.96747  21167974.1254   21167976.6334
     -3232.9224      -2519.1604
    131276.67747    102293.96247  20886012.9384   20886016.1374
     -1198.3754       -933.7994
   -200679.40145   -132961.35944  24010402.4454   24010408.7274
      1593.9064       1242.0054
    181339.45945    141303.03945  23430287.6804   23430293.0124
     -1638.9844      -1277.1314
    -47256.34746    -34480.97346  21469536.4064   21469539.3834
       288.0634        224.4644
    124912.28846     97334.67346  22451562.1804   22451565.7304
     -1172.2344       -913.4294
 98  7  8 20 16 45.0000000  0  6G 6G17G21G22G23G26
    420058.61547    317913.97347  21177240.9144   21177243.3404
     -3259.8284      -2540.1264
    149426.37147    116436.59547  20889466.7584   20889469.8054
     -1221.3914       -951.7334
   -224423.15545   -151462.92745  24005883.5394   24005889.9264
      1572.0944       1225.0084
    206133.29945    160622.92345  23435005.4384   23435009.7034
     -1666.6564      -1298.6934
    -51380.09046    -37694.24846  21468751.9774   21468755.1054
       261.9384        204.1074
    142719.97946    111210.82646  22454950.6484   22454954.0944
     -1201.8914       -936.5384
 98  7  8 20 17  0.0000000  0  6G 6G17G21G22G23G26
    469156.83247    356172.31646  21186584.1644   21186586.9064
     -3286.6874      -2561.0554
    167918.81747    130846.31246  20892985.7664   20892989.0004
     -1244.3284       -969.6064
   -247840.74645   -169710.32344  24001427.9534   24001434.4224
      1550.1564       1207.9144
    231339.66445    180264.26645  23439802.3364   23439807.6334
     -1694.2344      -1320.1834
    -55114.49246    -40604.13446  21468041.1804   21468044.4264
       235.9534        183.8604
    160968.62246    125430.57045  22458423.3444   22458426.5554
     -1231.2504       -959.4164
 98  7  8 20 17 15.0000000  0  6G 6G17G21G22G23G26
    518655.40947    394742.62247  21196003.1564   21196005.9694
     -3313.3754      -2581.8514
    186751.81147    145521.38647  20896569.5084   20896572.8244
     -1267.0474       -987.3094
   -270933.01445   -187704.22445  23997033.0474   23997039.4454
      1528.5784       1191.1004
    256958.30545    200226.83745  23444676.6724   23444681.7464
     -1721.8754      -1341.7214
    -58461.76347    -43212.36146  21467404.1724   21467407.2894
       210.1414        163.7464
    179653.53946    139990.26946  22461978.8364   22461982.1764
     -1260.2974       -982.0504
 98  7  8 20 17 30.0010000  0  6G 6G17G21G22G23G26
    568551.99747    433623.07746  21205498.4354   21205501.4114
     -3338.7664      -2601.6364
    205923.55947    160460.42947  20900217.7864   20900220.9974
     -1288.7034      -1004.1844
   -293707.28545   -205450.32944  23992699.2474   23992705.5054
      1508.0944       1175.1384
    282988.66545    220510.23645  23449630.4584   23449633.8454
     -1748.3284      -1362.3344
    -61428.11647    -45523.76846  21466839.6534   21466842.4074
       185.6884        144.6924
    198769.85446    154886.14746  22465616.2864   22465619.5914
     -1288.0474      -1003.6734
 98  7  8 20 17 45.0010000  0  6G 6G17G21G22G23G26
    618823.10447    472795.35546  21215064.6694   21215067.5874
     -3362.6414      -2620.2394
    225415.57147    175649.02747  20903926.7784   20903929.9664
     -1308.8754      -1019.9034
   -316174.93345   -222957.53345  23988424.0214   23988430.1144
      1488.9064       1160.1874
    309413.61845    241101.11245  23454659.0914   23454663.2634
     -1773.5944      -1382.0214
    -64029.37647    -47550.68846  21466344.8334   21466347.4934
       162.4534        126.5874
    218300.50146                  22469333.1064
     -1314.6414
 98  7  8 20 18  0.0010000  0  6G 6G17G21G22G23G26
    669455.67547    512249.30046  21224699.9584   21224702.6654
     -3388.7814      -2640.6094
    245212.52447    191075.23847  20907694.3334   20907697.3924
     -1331.0784      -1037.2044
   -338349.83245   -240236.60945  23984204.2554   23984210.2084
      1467.3444       1143.3854
    336219.78445    261989.03645  23459760.3494   23459764.6614
     -1800.9224      -1403.3164
    -66276.41147    -49301.58746  21465917.2394   21465919.8884
       136.7504        106.5584
    238232.90346                  22473126.0914
     -1343.3284
 98  7  8 20 18 15.0010000  0  6G 6G17G21G22G23G26
    720468.20447    551999.31647  21234407.2004   21234409.8724
     -3413.2344      -2659.6634
    265329.53147    206750.84747  20911522.4504   20911525.8724
     -1351.5314      -1053.1414
   -360211.80045   -257271.83245  23980043.6774   23980048.6924
      1447.2034       1127.6914
    363424.42945    283187.45745  23464937.2714   23464942.2634
     -1826.7034      -1423.4054
    -68150.56547    -50761.93946  21465560.5214   21465563.3564
       112.8754         87.9554
    258579.65546      7436.22656  22476997.9894   22477001.4934
     -1369.8914      -1067.4474
 98  7  8 20 18 30.0010000  0  6G 6G17G21G22G23G26
    771838.72247    592028.28946  21244182.8174   21244185.3494
     -3435.9534      -2677.3664
    285745.45747    222659.37647  20915407.2714   20915410.6464
     -1370.3124      -1067.7764
   -381778.36645   -274076.87245  23975940.3884   23975947.0214
      1428.6414       1113.2264
    391006.17045    304679.72445  23470185.7004   23470190.4934
     -1850.6564      -1442.0704
    -69677.01347    -51951.34146  21465270.0914   21465272.8684
        90.9384         70.8604
    279315.96446     23594.40846  22480943.7474   22480947.3684
     -1394.6724      -1086.7574
 98  7  8 20 18 45.0010000  0  6G 6G17G21G22G23G26
    823547.73347    632321.01346  21254022.4744   21254025.0174
     -3459.5314      -2695.7394
    306439.92747    238784.95647  20919345.2554   20919348.7354
     -1389.8914      -1083.0324
   -403070.52145   -290668.10745  23971887.8104   23971893.8104
      1409.4064       1098.2394
    418945.35345    326450.52745  23475502.4034   23475506.5054
     -1875.5004      -1461.4294
    -70876.14247    -52885.69646  21465041.7314   21465044.4854
        67.9844         52.9754
    300420.49746     40039.51745  22484960.2634   22484963.3104
     -1420.2034      -1106.6524
 98  7  8 20 19  0.0010000  0  6G 6G17G21G22G23G26
    875624.00547    672899.92046  21263932.3724   21263934.9384
     -3484.5164      -2715.2074
    327442.73547    255150.79647  20923341.9974   20923345.3844
     -1411.0314      -1099.5054
   -424060.77145   -307024.06745  23967893.8104   23967899.4584
      1388.7504       1082.1434
    447269.35245    348521.16145  23480892.1224   23480896.8104
     -1901.5624      -1481.7374
    -71718.77247    -53542.25446  21464881.4424   21464884.0214
        43.8754         34.1884
    321923.33646     56795.00246  22489051.9814   22489055.4854
     -1447.3284      -1127.7884
 98  7  8 20 19 15.0010000  0  6G 6G17G21G22G23G26
    928048.66847    713750.29846  21273908.3174   21273910.7434
     -3505.4224      -2731.4984
    348736.61547    271743.44347  20927394.2474   20927397.5524
     -1428.1414      -1112.8374
   -444767.68445   -323159.27445  23963953.3334   23963958.4784
      1372.1724       1069.2254
    475958.52445    370876.36445  23486351.8724   23486356.6884
     -1923.6724      -1498.9654
    -72227.69347    -53938.78046  21464784.5444   21464787.2284
        23.9534         18.6654
    343804.88246     73845.57846  22493215.8884   22493219.2044
     -1470.2194      -1145.6254
 98  7  8 20 19 30.0010000  0  6G 6G17G21G22G23G26
    980808.69947    754862.00446  21283948.4274   21283950.7594
     -3529.3124      -2750.1144
    370311.58847    288555.12347  20931499.5214   20931502.6494
     -1448.7034      -1128.8604
   -465202.08645   -339082.10745  23960064.7864   23960070.0134
      1352.2504       1053.7014
    505003.87045    393509.10845  23491879.1224   23491883.3534
     -1949.1254      -1518.7994
    -72412.52947    -54082.78046  21464749.4034   21464752.2864
         0.5784          0.4504
    366054.90246     91183.27346  22497450.0524   22497453.4974
     -1496.5164      -1166.1164
 98  7  8 20 19 45.0010000  0  6G 6G17G21G22G23G26
   1033907.33147    796237.54946  21294052.6384   21294055.2984
     -3550.8284      -2766.8794
    392176.14647    305592.45947  20935660.4504   20935663.4974
     -1466.8754      -1143.0194
   -485356.39545   -354786.71045  23956229.5444   23956234.6184
      1334.7034       1040.0284
    534409.13045    416422.29945  23497474.7084   23497479.8884
     -1971.8594      -1536.5144
    -72265.46146    -53968.15146  21464777.4194   21464780.3374
       -20.5314        -15.9984
    388679.92646    108813.18946  22501755.3174   22501758.6574
     -1520.5164      -1184.8174
 98  7  8 20 20  0.0010000  0  6G 6G17G21G22G23G26
   1087350.91247    837881.88546  21304222.5214   21304225.2394
     -3574.9374      -2785.6664
    414336.58347    322860.34047  20939877.2394   20939880.2864
     -1487.8444      -1159.3594
   -505225.08545   -370268.72545  23952448.1614   23952452.5444
      1314.5314       1024.3104
    564176.93945    439618.00845  23503139.0214   23503143.6144
     -1997.0164      -1556.1164
    -71779.20447    -53589.21846  21464869.9974   21464872.8564
       -44.1724        -34.4204
    411688.48446    126741.95346  22506134.0054   22506137.0994
     -1547.1874      -1205.6014
 98  7  8 20 20 15.0010000  0  6G 6G17G21G22G23G26
   1141145.52547    879799.75346  21314459.5754   21314462.2824
     -3597.8124      -2803.4904
    436801.59047    340365.55747  20944152.5054   20944155.5174
     -1507.6414      -1174.7854
   -524801.80245   -385523.25645  23948723.3494   23948728.9274
      1295.5474       1009.5174
    594309.30445    463097.74945  23508872.9664   23508878.1924
     -2020.7664      -1574.6234
    -70951.37047    -52944.11746  21465027.3564   21465030.1924
       -66.3124        -51.6724
    435084.10546    144972.33245  22510585.8564   22510589.4894
     -1572.3914      -1225.2394
 98  7  8 20 20 30.0010000  0  6G 6G17G21G22G23G26
   1195257.38047    921964.82646  21324756.6224   21324759.1424
     -3617.3914      -2818.7464
    459537.49047    358081.85547  20948479.0054   20948481.9114
     -1524.0164      -1187.5454
   -544119.26345   -400575.74345  23945047.3174   23945052.8374
      1279.8444        997.2814
    624773.01345    486835.71745  23514670.1464   23514675.6654
     -2041.3124      -1590.6334
    -69818.31847    -52061.18546  21465243.1064   21465245.9194
       -85.0314        -66.2584
    458832.08546    163477.27146  22515104.7634   22515108.0674
     -1594.3594      -1242.3584
 98  7  8 20 20 45.0010000  0  6G 6G17G21G22G23G26
   1249686.58047    964377.17846  21335114.1464   21335116.7004
     -3639.7504      -2836.1694
    482541.72347    376007.24547  20952856.4114   20952859.4464
     -1543.1094      -1202.4234
   -563178.56745   -415427.07645  23941420.5054   23941426.9624
      1261.5164        982.9994
    655567.40845    510831.34945  23520529.7634   23520534.4154
     -2064.5944      -1608.7744
    -68381.28447    -50941.39046  21465516.6064   21465519.3024
      -106.5314        -83.0114
    482934.44546    182258.35046  22519691.2314   22519694.3604
     -1619.1414      -1261.6684
 98  7  8 20 21  0.0010000  0  6G 6G17G21G22G23G26
   1304442.33147   1007043.98346  21345534.1304   21345536.8254
     -3659.2504      -2851.3644
    505824.74147    394149.87047  20957287.0754   20957289.8644
     -1559.5474      -1215.2314
   -581969.52745   -430069.32645  23937844.8334   23937851.0914
      1245.6724        970.6534
    686704.14345    535093.73745  23526455.1924   23526460.4194
     -2085.1874      -1624.8214
    -66627.37847    -49574.68446  21465850.2084   21465853.1034
      -125.5624        -97.8414
    507401.68146    201323.74946  22524347.2314   22524350.4544
     -1641.3914      -1279.0064
 98  7  8 20 21 15.0010000  0  6G 6G17G21G22G23G26
   1359481.71847   1049931.80646  21356007.6304   21356010.1964
     -3679.4224      -2867.0824
    529345.30947    412477.59947  20961762.8174   20961765.5604
     -1576.5474      -1228.4784
   -600530.56145   -444532.41845  23934312.2784   23934317.0484
      1229.0474        957.6994
    718141.01645    559590.00545  23532437.7394   23532442.8024
     -2106.5004      -1641.4294
    -64597.03447    -47992.57246  21466236.6464   21466239.2244
      -145.3124       -113.2314
    532193.07646    220641.73946  22529064.6534   22529068.0284
     -1664.1874      -1296.7694
 98  7  8 20 21 30.0010000  0  6G 6G17G21G22G23G26
   1414829.02747   1093059.56246  21366540.0444   21366542.7164
     -3700.5164      -2883.5194
    553125.04947    431007.27947  20966288.0834   20966290.6964
     -1594.3754      -1242.3704
   -618836.68645   -458796.85645  23930828.7164   23930834.5284
      1211.4534        943.9894
    749904.37145    584340.66045  23538481.7084   23538486.9354
     -2128.8594      -1658.8514
    -62261.10347    -46172.33746  21466681.1224   21466683.6774
      -166.5004       -129.7404
    557332.14046    240230.65046  22533848.6924   22533851.9384
     -1688.0944      -1315.3984
 98  7  8 20 21 45.0010000  0  6G 6G17G21G22G23G26
   1470499.71347   1136439.30546  21377133.8414   21377136.4074
     -3721.9224      -2900.1994
    577179.15047    449750.74547  20970865.4894   20970868.1264
     -1612.4224      -1256.4334
   -636872.53845   -472850.71245  23927396.4034   23927402.6144
      1193.7034        930.1584
    782007.69845    609356.23545  23544591.0444   23544595.2744
     -2151.1564      -1676.2264
    -59600.62547    -44099.20546  21467187.1924   21467189.7594
      -187.7974       -146.3354
    582838.52846    260105.76746  22538702.4664   22538705.7944
     -1712.3284      -1334.2824
 98  7  8 20 22  0.0010000  0  6G 6G17G21G22G23G26
   1526502.82947   1180078.08346  21387790.8414   21387793.4424
     -3743.3594      -2916.9034
    601511.39747    468710.94547  20975495.7784   20975498.3684
     -1630.0624      -1270.1794
   -654631.60245   -486688.88045  23924017.2864   23924023.6034
      1175.9844        916.3514
    814454.05545    634639.10745  23550765.0444   23550770.1534
     -2173.2664      -1693.4544
    -56612.74947    -41770.96146  21467755.7394   21467758.6464
      -208.7344       -162.6504
    608717.99846    280271.60946  22543627.1924   22543630.4744
     -1736.4374      -1353.0684
 98  7  8 20 22 15.0010000  0  6G 6G17G21G22G23G26
   1582810.61347   1223954.26646  21398505.9974   21398508.4354
     -3764.3284      -2933.2434
    626090.99047    487863.88947  20980173.0444   20980175.6924
     -1647.1874      -1283.5234
   -672141.06745   -500332.59145  23920685.2864   23920690.6884
      1158.6254        902.8254
    847217.15845    660168.79545  23556999.9034   23557005.1654
     -2195.1724      -1710.5244
    -53329.57346    -39212.61446  21468380.5214   21468383.5214
      -229.0474       -178.4784
    634940.43746    300704.69946  22548617.0914   22548620.3254
     -1759.8124      -1371.2824
 98  7  8 20 22 30.0010000  0  6G 6G17G21G22G23G26
   1639432.64847   1268075.31946  21409280.6144   21409283.1694
     -3785.0314      -2949.3754
    650925.94047    507215.80947  20984899.0364   20984901.7084
     -1663.9064      -1296.5504
   -689390.85845   -513773.91945  23917402.3644   23917408.6344
      1141.6414        889.5904
    880310.85045    685956.09045  23563296.7634   23563302.7984
     -2217.0624      -1727.5814
    -49740.12846    -36415.61446  21469063.8884   21469067.0054
      -249.2974       -194.2574
    661512.64946    321410.33846  22553673.8414   22553677.1464
     -1782.9064      -1389.2784
 98  7  8 20 22 45.0010000  0  6G 6G17G21G22G23G26
   1696368.83547   1312441.16846  21420115.2084   21420117.7394
     -3806.1724      -2965.8484
    676017.44247    526767.63947  20989673.5524   20989676.2714
     -1681.3754      -1310.1624
   -706382.39845   -527014.02245  23914169.0994   23914174.6064
      1124.1884        875.9904
    913737.57145    712002.88045  23569658.0284   23569662.7044
     -2239.5944      -1745.1384
    -45842.99047    -33378.85146  21469805.0674   21469808.1614
      -270.0314       -210.4144
    688436.87246    342390.27246  22558797.0754   22558800.3684
     -1806.7034      -1407.8214
 98  7  8 20 23  0.0010000  0  6G 6G17G21G22G23G26
   1753612.97247   1357046.97646  21431008.5674   21431011.1464
     -3826.5624      -2981.7374
    701363.75147    546518.01847  20994497.0754   20994499.9114
     -1698.3124      -1323.3604
   -723121.11545   -540057.12845  23910983.9424   23910989.5794
      1107.4694        862.9634
    947493.31145    738306.04745  23576081.9744   23576086.5674
     -2261.3754      -1762.1104
    -41643.80847    -30106.73146  21470604.1064   21470607.0014
      -290.0784       -226.0354
    715709.39946    363641.60546  22563986.9034   22563989.9274
     -1829.7344      -1425.7674
 98  7  8 20 23 15.0010000  0  6G 6G17G21G22G23G26
   1811158.07847   1401887.31346  21441959.0444   21441961.7984
     -3846.5474      -2997.3094
    726957.07747    566460.87847  20999367.2084   20999370.1614
     -1714.5164      -1335.9864
   -739614.69245   -552909.22045  23907845.2944   23907851.0244
      1091.3134        850.3734
    981568.81445    764858.37945  23582566.4424   23582571.4464
     -2282.4224      -1778.5114
    -37149.28747    -26604.48046  21471459.6384   21471462.3804
      -309.5314       -241.1934
    743322.63846    385158.42846  22569241.4664   22569244.8764
     -1852.3594      -1443.3974
 98  7  8 20 23 30.0010000  0  7G 3G 6G17G21G22G23G26
    -18702.02453                  25089207.7634
      1694.9384
   1869010.02447   1446966.73246  21452968.0604   21452970.8844
     -3867.2664      -3013.4544
    752798.85147    586597.33147  21004284.8644   21004287.8294
     -1731.2664      -1349.0384
   -755861.44045   -565568.96945  23904753.5914   23904759.6264
      1074.7344        837.4554
   1015966.58545    791661.83545  23589111.6304   23589116.8104
     -2304.1724      -1795.4594
    -32358.44947    -22871.32346  21472370.9894   21472373.9194
      -329.4694       -256.7294
    771279.34446    406942.88446  22574561.4744   22574564.6614
     -1875.4844      -1461.4164
 98  7  8 20 23 45.0010000  0  7G 3G 6G17G21G22G23G26
    -44035.29544                  25084386.7714
      1682.2504
   1927158.68447   1492277.36546  21464033.3254   21464036.0914
     -3886.5314      -3028.4664
    778878.60847    606919.22947  21009247.4894   21009250.4424
     -1746.6724      -1361.0434
   -771873.94345   -578046.20045  23901706.2474   23901711.9074
      1059.6414        825.6944
   1050676.04845    818708.17145  23595716.9114   23595722.3494
     -2324.3444      -1811.1774
    -27283.80347    -18917.02746  21473337.0604   21473340.2714
      -347.7034       -270.9374
    799570.84946    428988.23646  22579945.2314   22579948.3964
     -1897.3284      -1478.4374
 98  7  8 20 24  0.0010000  0  7G 3G 6G17G21G22G23G26
    -69160.89644                  25079604.9034
      1667.6414
   1985612.07447   1537825.44446  21475156.6464   21475159.2714
     -3907.4064      -3044.7324
    805204.95547    627433.26647  21014257.5834   21014260.3494
     -1763.7194      -1374.3264
   -787644.52745   -590334.91045  23898705.4814   23898711.3644
      1042.9064        812.6544
   1085703.32745    846002.15045  23602382.1384   23602387.0364
     -2346.1724      -1828.1864
    -21923.14947    -14739.86846  21474357.1534   21474360.1534
      -367.2504       -286.1694
    828202.52746    451298.64546  22585393.7474   22585396.9114
     -1920.4064      -1496.4204
 98  7  8 20 24 15.0010000  0  7G 3G 6G17G21G22G23G26
    -94065.88344                  25074865.7554
      1653.3914
   2044380.37647   1583618.91446  21486339.8804   21486342.6344
     -3928.0314      -3060.8044
    831791.99347    648150.44847  21019316.4744   21019319.3454
     -1780.9694      -1387.7684
   -803160.54445   -602425.26545  23895753.0284   23895759.1574
      1026.1884        799.6274
   1121063.09845    873555.21045  23609110.8804   23609115.4974
     -2368.2034      -1845.3534
    -16264.30747    -10330.35546  21475433.9894   21475436.7084
      -387.0004       -301.5584
    857184.65946    473882.13646  22590908.8254   22590911.9424
     -1943.5624      -1514.4644
 98  7  8 20 24 30.0010000  0  7G 3G 6G17G21G22G23G26
   -118756.61244                  25070167.4744
      1638.7814
   2103460.47347   1629655.33746  21497582.4114   21497585.2474
     -3949.2344      -3077.3254
    858641.91047    669072.46447  21024426.2244   21024429.0604
     -1798.9534      -1401.7824
   -818422.72545   -614317.81345  23892848.1384   23892853.6924
      1008.8594        786.1244
   1156756.50745    901368.25445  23615903.2394   23615907.5054
     -2390.8444      -1862.9954
    -10305.09647     -5686.78146  21476567.8724   21476570.6034
      -407.4844       -317.5204
    886517.37646    496738.80946  22596490.4504   22596493.6384
     -1967.4224      -1533.0564
 98  7  8 20 24 45.0010000  0  7G 3G 6G17G21G22G23G26
   -143229.99145    -11420.69253  25065509.9034   25065514.3104
      1624.3284       1265.7104
   2162855.14447   1675936.88546  21508884.9974   21508887.8924
     -3970.0624      -3093.5554
    885759.48747    690203.05047  21029586.3964   21029589.2904
     -1816.6874      -1415.6014
   -833428.94145   -626010.91745  23889992.9664   23889998.5794
       991.9384        772.9384
   1192785.79045    929443.02045  23622759.3494   23622764.3414
     -2413.0314      -1880.2844
     -4041.68947      -806.17546  21477759.7634   21477762.3994
      -427.5944       -333.1904
    916206.42546    519873.15946  22602140.3334   22602143.4384
     -1991.1414      -1551.5384
 98  7  8 20 25  0.0010000  0  7G 3G 6G17G21G22G23G26
   -167484.68144    -30320.35342  25060894.5914   25060901.5324
      1609.6564       1254.2784
   2222563.06747   1722462.52446  21520246.8024   21520249.7084
     -3991.0624      -3109.9194
    913142.89447    711540.77447  21034797.4424   21034800.5714
     -1834.3914      -1429.3954
   -848179.54145   -637504.81745  23887185.3724   23887191.1734
       974.8284        759.6064
   1229147.77145    957777.02645  23629678.4744   23629683.0674
     -2435.2344      -1897.5854
      2524.98847      4310.74346  21479009.1304   21479012.2354
      -448.0164       -349.1034
    946252.85446    543285.97046  22607857.9504   22607861.5014
     -2015.0164      -1570.1424
 98  7  8 20 25 15.0010000  0  7G 3G 6G17G21G22G23G26
   -191519.32444    -49048.64442  25056321.3964   25056328.0994
      1594.7344       1242.6504
   2282586.97147   1769234.38046  21531669.1304   21531672.0954
     -4012.4224      -3126.5624
    940790.33047    733084.23647  21040058.4194   21040061.5714
     -1852.2034      -1443.2754
   -862673.99745   -648799.13345  23884427.5674   23884432.4424
       957.5004        746.1044
   1265840.68945    986368.90945  23636661.3644   23636666.2044
     -2457.3914      -1914.8504
      9399.80046      9667.77046  21480317.2394   21480320.4274
      -468.9694       -365.4304
    976655.31346    566976.20946  22613643.1854   22613646.4424
     -2038.9534      -1588.7954
 98  7  8 20 25 30.0010000  0  7G 3G 6G17G21G22G23G26
   -215331.62444    -67603.55742  25051789.7634   25051798.4504
      1579.9534       1231.1324
   2342931.37647   1816255.98046  21543152.1774   21543155.1064
     -4033.7814      -3143.2064
    968705.81947    754836.57247  21045370.4354   21045373.5404
     -1870.2974      -1457.3744
   -876908.26745   -659890.71445  23881718.6854   23881723.5714
       940.0474        732.5044
   1302865.81145   1015219.65445  23643707.1854   23643712.0834
     -2479.6874      -1932.2244
     16589.48847     15270.15346  21481685.4194   21481688.5014
      -490.0004       -381.8184
   1007418.93146    590947.87646  22619497.3724   22619500.5014
     -2063.2194      -1607.7034
 98  7  8 20 25 45.0010000  0  7G 3G 6G17G21G22G23G26
   -238913.67044    -85979.08542  25047302.3494   25047307.2824
      1564.7034       1219.2494
   2403604.37047   1863533.62246  21554697.7944   21554700.5954
     -4055.5624      -3160.1794
    996903.91547    776809.11847  21050736.4744   21050739.5914
     -1889.0784      -1472.0094
   -890870.60545   -670770.39845  23879061.6224   23879067.1304
       921.9534        718.4054
   1340235.77145   1044339.09245  23650818.4424   23650823.8684
     -2502.5624      -1950.0494
     24105.18047     21126.56846  21483115.8104   21483118.4934
      -511.7034       -398.7304
   1038556.55846    615210.98146  22625422.7164   22625425.9384
     -2088.1254      -1627.1104
 98  7  8 20 26  0.0010000  0  7G 3G 6G17G21G22G23G26
   -262275.83544   -104183.38542  25042855.7554   25042859.7044
      1550.0634       1207.8414
   2464593.98147   1911057.97746  21566304.1384   21566306.8684
     -4076.4844      -3176.4814
   1025374.93747    798994.33847  21056154.3174   21056157.3764
     -1907.1874      -1486.1204
   -904570.69545   -681445.71445  23876455.0444   23876461.4314
       904.5944        704.8784
   1377938.04645   1073717.49145  23657992.8334   23657997.2864
     -2524.5624      -1967.1924
     31936.14746     27228.64846  21484605.8494   21484608.6034
      -532.5314       -414.9594
   1070057.71546    639757.35146  22631417.2864   22631420.2984
     -2112.1094      -1645.8004
 98  7  8 20 26 15.0010000  0  7G 3G 6G17G21G22G23G26
   -285413.89844   -122212.96242  25038453.2784   25038458.6464
      1534.7194       1195.8854
   2525900.48947   1958829.27446  21577970.2314   21577972.8334
     -4098.0624      -3193.2954
   1054121.05547    821393.91947  21061624.2784   21061627.3024
     -1925.9844      -1500.7674
   -918006.94945   -691915.47245  23873898.1384   23873904.5834
       886.5634        690.8284
   1415975.25245   1103356.86945  23665231.0914   23665236.0134
     -2547.4064      -1984.9924
     40084.02646     33577.67246  21486156.5604   21486159.6534
      -554.2194       -431.8594
   1101922.37846    664586.96746  22637480.9584   22637483.9354
     -2136.8594      -1665.0854
 98  7  8 20 26 30.0010000  0  7G 3G 6G17G21G22G23G26
   -308318.91643   -140060.96842  25034093.7784   25034101.4464
      1519.3594       1183.9164
   2587534.42247   2006855.69546  21589698.9424   21589701.6964
     -4119.7344      -3210.1834
   1083152.13047    844015.53447  21067148.9664   21067151.8844
     -1944.6094      -1515.2804
   -931169.10345   -702171.61545  23871393.3414   23871400.3534
       868.5314        676.7784
   1454358.04145   1133265.54145  23672535.0284   23672540.2554
     -2570.1564      -2002.7194
     48561.53746     40183.54946  21487769.3414   21487772.6224
      -575.9224       -448.7704
   1134161.63846    689708.48046  22643615.6304   22643618.7474
     -2161.5784      -1684.3474
 98  7  8 20 26 45.0010000  0  7G 3G 6G17G21G22G23G26
   -330994.40943   -157730.12242  25029778.6854   25029788.0524
      1503.6094       1171.6444
   2649491.79647   2055134.15346  21601488.9424   21601491.8254
     -4141.6254      -3227.2404
   1112456.39247    866850.03747  21072725.3724   21072728.3134
     -1963.0004      -1529.6104
   -944065.44145   -712220.65045  23868939.1924   23868945.1574
       850.6094        662.8134
   1493076.69445   1163435.89945  23679902.8174   23679906.6264
     -2592.6874      -2020.2764
     57358.78246     47038.57546  21489443.5674   21489446.4744
      -597.4534       -465.5484
   1166766.79746    715115.10646  22649820.2474   22649823.7164
     -2186.1414      -1703.4864
 98  7  8 20 27  0.0010000  0  7G 3G 6G17G21G22G23G26
   -353437.36443   -175218.02641  25025508.1144   25025514.2674
      1488.5944       1159.9434
   2711772.36547   2103664.44646  21613340.3494   21613343.0444
     -4162.7034      -3243.6654
   1142031.44347    889895.53647  21078353.1144   21078356.1854
     -1980.5624      -1543.2954
   -956698.34845   -722064.42045  23866535.1304   23866540.7314
       833.5314        649.5054
   1532126.40345   1193864.24245  23687334.2004   23687338.3134
     -2614.1724      -2037.0174
     66475.01446     54142.15946  21491178.1304   21491180.8374
      -618.2814       -481.7784
   1199734.05346    740803.89346  22656093.5754   22656096.7164
     -2209.7814      -1721.9074
 98  7  8 20 27 15.0010000  0  7G 3G 6G17G21G22G23G26
   -375653.34143   -192529.12842  25021281.1064   25021287.6924
      1473.3284       1148.0484
   2774373.15247   2152444.26446  21625253.1064   21625255.7554
     -4184.2974      -3260.4914
   1171873.52947    913149.11847  21084032.1224   21084035.3104
     -1998.6254      -1557.3704
   -969071.47645   -731705.73745  23864180.4814   23864185.9314
       815.9384        635.7954
   1571500.80745   1224545.58645  23694826.7474   23694831.5634
     -2635.9694      -2054.0024
     75906.36247     61491.29046  21492973.0914   21492975.9274
      -639.4064       -498.2394
   1233059.14646    766771.51446  22662435.1924   22662438.5214
     -2233.7664      -1740.5974
 98  7  8 20 27 30.0010000  0  7G 3G 6G17G21G22G23G26
   -397644.62043   -209665.08442  25017095.5604   25017102.0754
      1459.1414       1136.9934
   2837292.96147   2201472.67546  21637226.4424   21637228.9744
     -4204.6564      -3276.3564
   1201982.19647    936610.42347  21089761.6774   21089764.9114
     -2015.5474      -1570.5564
   -981184.40645   -741144.33045  23861875.3174   23861880.6964
       799.4064        622.9144
   1611197.27445   1255477.89845  23702380.4424   23702386.1734
     -2656.6874      -2070.1464
     85647.50746     69081.82046  21494826.7634   21494829.6694
      -659.0624       -513.5554
   1266738.31446    793015.03146  22668844.1144   22668847.0794
     -2256.5474      -1758.3484
 98  7  8 20 27 45.0010000  0  7G 3G 6G17G21G22G23G26
   -419418.88743   -226632.00842  25012952.0994   25012960.1534
      1444.0314       1125.2194
   2900521.30047   2250741.48846  21649258.4354   21649261.1064
     -4225.7814      -3292.8174
   1232347.40547    960271.63247  21095539.8804   21095543.0324
     -2033.1254      -1584.2534
   -993045.37945   -750386.56145  23859618.3334   23859624.5674
       782.0784        609.4124
   1651211.03045   1286657.43945  23709994.9664   23709999.9934
     -2678.5004      -2087.1434
     95684.98346     76903.25346  21496736.7164   21496740.0324
      -679.2344       -529.2744
   1300762.85346    819527.67846  22675318.8414   22675322.1464
     -2279.9844      -1776.6114
 98  7  8 20 28  0.0010000  0  7G 3G 6G17G21G22G23G26
   -440969.40043   -243424.53942  25008851.3494   25008856.0604
      1429.3284       1113.7624
   2964063.33147   2300254.74346  21661350.0364   21661352.6854
     -4246.5164      -3308.9734
   1262970.07747    984133.45847  21101367.2784   21101370.2554
     -2049.8754      -1597.3054
  -1004651.85645   -759430.49545  23857409.3024   23857415.7354
       765.4844        596.4814
   1691547.07145   1318088.10045  23717670.7084   23717675.8064
     -2699.6564      -2103.6284
    106020.69046     84957.07346  21498703.5524   21498706.8684
      -698.8124       -544.5294
   1335132.65146    846309.35046  22681859.2084   22681862.3724
     -2302.5784      -1794.2174
 98  7  8 20 28 15.0010000  0  7G 3G 6G17G21G22G23G26
   -462309.55243   -260053.13942  25004791.1534   25004798.7044
      1415.8914       1103.2914
   3027904.04647   2350000.74146  21673498.4504   21673501.1224
     -4265.7974      -3323.9984
   1293831.98147   1008181.69947  21107240.1854   21107243.0564
     -2065.1724      -1609.2254
  -1016021.58145   -768289.96245  23855245.7944   23855251.5134
       750.3444        584.6834
   1732189.02545   1349757.16045  23725404.7004   23725410.1964
     -2719.4534      -2119.0544
    116638.19247     93230.47546  21500723.8724   21500727.0714
      -717.0784       -558.7624
   1369829.19946    873345.63246  22688461.8254   22688465.0834
     -2323.7974      -1810.7514
 98  7  8 20 28 30.0010000  0  7G 3G 6G17G21G22G23G26
   -483448.06843   -276524.67342  25000768.7004   25000774.9354
      1402.6254       1092.9554
   3092036.03047   2399973.69946  21685702.5364   21685705.1494
     -4285.1564      -3339.0834
   1324924.07747   1032409.31347  21113156.7004   21113159.4894
     -2080.4224      -1621.1084
  -1027163.94545   -776972.24045  23853125.5364   23853130.7744
       735.2504        572.9224
   1773128.04045   1381657.69745  23733194.9504   23733200.5404
     -2739.0624      -2134.3344
    127532.28747    101719.40946  21502797.0604   21502800.0364
      -735.4694       -573.0934
   1404845.27746    900630.90246  22695125.0754   22695127.9584
     -2345.0164      -1827.2854
 98  7  8 20 28 45.0010000  0  7G 3G 6G17G21G22G23G26
   -504386.53643   -292840.27742  24996783.2004   24996791.0444
      1389.3284       1082.5934
   3156458.86947   2450173.29346  21697961.8414   21697964.5484
     -4304.3444      -3354.0344
   1356245.03847   1056815.26147  21119116.7084   21119119.5444
     -2095.4694      -1632.8334
  -1038078.86145   -785477.30145  23851048.3564   23851054.1924
       720.2664        561.2464
   1814360.58045   1413786.92245  23741041.3494   23741046.7634
     -2758.4224      -2149.4204
    138701.82847    110422.97646  21504922.3414   21504925.1424
      -753.6254       -587.2404
   1440180.18046    928164.61746  22701848.9274   22701852.3964
     -2366.1724      -1843.7704
 98  7  8 20 29  0.0010000  0  7G 3G 6G17G21G22G23G26
   -525131.80043   -309005.32142  24992835.7084   24992840.7354
      1376.4064       1072.5244
   3221162.77847   2500591.90746  21710274.5834   21710277.4544
     -4323.0624      -3368.6204
   1387787.69647   1081393.96247  21125119.4744   21125122.5214
     -2110.5314      -1644.5704
  -1048774.39145   -793811.40845  23849012.6384   23849018.3684
       705.5164        549.7524
   1855878.43145   1446138.50045  23748941.8334   23748946.2514
     -2777.5944      -2164.3594
    150139.70047    119335.62646  21507099.0444   21507101.9274
      -771.7344       -601.3514
   1475827.92746    955942.10046  22708632.5524   22708635.8924
     -2387.2194      -1860.1704
 98  7  8 20 29 15.0010000  0  7G 3G 6G17G21G22G23G26
   -545683.88143   -325019.92042  24988925.1384   24988928.9114
      1363.4694       1062.4434
   3286145.17247   2551227.52146  21722640.3334   21722643.3334
     -4341.6254      -3383.0844
   1419557.04147   1106149.30347  21131164.8494   21131167.9664
     -2125.7504      -1656.4294
  -1059248.81645   -801973.23445  23847020.0284   23847025.8174
       690.6564        538.1744
   1897684.90645   1478714.96745  23756897.1384   23756902.2714
     -2797.0624      -2179.5294
    161848.25947    128459.19946  21509327.1924   21509330.3454
      -789.8284       -615.4504
   1511793.09846    983966.91646  22715476.5054   22715479.6694
     -2408.6094      -1876.8384
 98  7  8 20 29 30.0010000  0  7G 3G 6G17G21G22G23G26
   -566046.97743   -340887.10142  24985049.8804   24985054.6614
      1351.8284       1053.3734
   3351399.34947   2602074.91146  21735057.7784   21735060.6264
     -4358.6564      -3396.3564
   1451547.82447   1131077.19247  21137252.6064   21137255.6424
     -2139.4224      -1667.0824
  -1069504.94445   -809964.92945  23845067.8024   23845074.1884
       677.0784        527.5934
   1939779.70945   1511516.10445  23764907.9034   23764913.3884
     -2815.3914      -2193.8114
    173823.69247    137790.73046  21511606.0834   21511609.0714
      -806.6874       -628.5884
   1548074.36246   1012238.04946  22722380.2474   22722383.5284
     -2428.6564      -1892.4594
 98  7  8 20 29 45.0010000  0  7G 3G 6G17G21G22G23G26
   -586237.98343   -356620.32142  24981207.2394   24981213.6494
      1340.5314       1044.5704
   3416906.09447   2653119.11346  21747523.3644   21747526.3294
     -4375.3124      -3409.3344
   1483740.79047   1156162.62547  21143378.5604   21143381.5714
     -2152.8124      -1677.5164
  -1079560.87445   -817800.65345  23843154.4974   23843160.2044
       663.9694        517.3784
   1982148.74845   1544530.91545  23772970.3884   23772975.8724
     -2833.5944      -2207.9954
    186052.42147    147319.64046  21513933.1384   21513935.8214
      -823.6414       -641.7984
   1584655.97546   1040743.22146  22729341.5284   22729345.0324
     -2448.7504      -1908.1174
 98  7  8 20 30  0.0010000  0  7G 3G 6G17G21G22G23G26
   -606265.59843   -372226.18342  24977396.0994   24977401.8994
      1329.6724       1036.1084
   3482657.19847   2704353.71646  21760035.5604   21760038.2784
     -4391.6414      -3422.0584
   1516130.78047   1181401.58847  21149542.1534   21149545.1654
     -2166.0474      -1687.8294
  -1089425.61445   -825487.38445  23841277.3254   23841282.8334
       651.1564        507.3944
   2024784.43445   1577753.53845  23781083.9584   23781089.1034
     -2851.3284      -2221.8144
    198531.43347    157043.56946  21516307.6924   21516310.3414
      -840.4374       -654.8864
   1621533.60346   1069479.04746  22736359.4034   22736362.6494
     -2468.4374      -1923.4584
 98  7  8 20 30 15.0010000  0  7G 3G 6G17G21G22G23G26
   -626133.99943   -387707.99442  24973615.5754   24973619.8884
      1319.5944       1028.2554
   3548650.82547   2755777.30846  21772593.7784   21772596.5564
     -4407.3284      -3434.2824
   1548718.72247   1206794.79847  21155743.4424   21155746.5954
     -2178.8914      -1697.8374
  -1099098.51145   -833024.63545  23839436.4114   23839442.8334
       638.6884        497.6794
   2067683.62145   1611181.46245  23789246.9894   23789252.1814
     -2868.4534      -2235.1584
    211261.95747    166963.48246  21518730.3414   21518733.0604
      -856.7974       -667.6344
   1658706.06446   1098444.61746  22743433.0604   22743436.6924
     -2487.7504      -1938.5064
 98  7  8 20 30 30.0010000  0  7G 3G 6G17G21G22G23G26
   -645853.95444   -403074.11342  24969862.8884   24969868.6184
      1309.4224       1020.3294
   3614876.64847   2807381.82546  21785196.0134   21785198.8134
     -4423.1564      -3446.6154
   1581496.77147   1232336.14247  21161980.8024   21161983.6384
     -2191.8444      -1707.9304
  -1108586.47745   -840417.80345  23837631.0444   23837636.6344
       625.9694        487.7684
   2110838.28645   1644808.46045  23797459.2394   23797464.3374
     -2885.8444      -2248.7094
    224234.90847    177072.29946  21521198.9354   21521201.7714
      -873.2814       -680.4794
   1696166.50246   1127634.57846  22750561.2084   22750564.7004
     -2507.2974      -1953.7384
 98  7  8 20 30 45.0010000  0  7G 3G 6G17G21G22G23G26
   -665422.02244   -418321.89142  24966139.5834   24966145.1614
      1299.5944       1012.6704
   3681338.83947   2859170.52246  21797843.2474   21797846.2714
     -4438.4844      -3458.5594
   1614468.87047   1258028.69247  21168255.4034   21168258.3104
     -2204.4374      -1717.7444
  -1117883.11345   -847661.85245  23835862.0364   23835867.4274
       613.5474        478.0884
   2154252.91445   1678638.04345  23805720.7474   23805726.0794
     -2902.8594      -2261.9684
    237452.89747    187372.05146  21523714.1464   21523717.0634
      -889.1254       -692.8254
   1733918.03946   1157051.38346  22757745.5674   22757748.6854
     -2526.2974      -1968.5434
 98  7  8 20 31  0.0010000  0  7G 3G 6G17G21G22G23G26
   -684846.56344   -433457.86443  24962442.8644   24962447.9624
      1290.6884       1005.7314
   3748025.45847   2911134.09946  21810533.4424   21810536.7004
     -4452.7504      -3469.6754
   1647624.20647   1283864.02847  21174564.6304   21174567.4424
     -2215.9534      -1726.7174
  -1126997.35445   -854763.78545  23834127.2084   23834132.2244
       602.0004        469.0914
   2197919.53345   1712663.97245  23814030.1694   23814034.8334
     -2919.0314      -2274.5704
    250902.89547    197852.59646  21526273.6694   21526276.3414
      -903.8914       -704.3304
   1771949.81846   1186686.54245  22764982.7084   22764985.8844
     -2544.3284      -1982.5934
 98  7  8 20 31 15.0010000  0  7G 3G 6G17G21G22G23G26
   -704129.76944   -448483.63243  24958773.5134   24958777.9544
      1278.2974        996.0754
   3814935.70347   2963271.92746  21823266.0134   21823269.1774
     -4470.6874      -3483.6534
   1680961.98947   1309841.53347  21180908.5994   21180911.3414
     -2231.1414      -1738.5514
  -1135929.22845   -861723.60945  23832427.7244   23832433.8414
       586.8134        457.2564
   2241837.63945   1746885.85345  23822387.7314   23822391.8564
     -2938.7814      -2289.9594
    264582.50747    208512.05946  21528876.9354   21528879.5834
      -922.1254       -718.5394
   1810261.60146   1216539.88846  22772273.0604   22772276.0484
     -2565.9694      -1999.4564
 98  7  8 20 31 30.0010000  0  7G 3G 6G17G21G22G23G26
   -723231.26544   -463367.87143  24955138.5674   24955142.6104
      1268.9534        988.7954
   3882112.27347   3015617.28946  21836049.3494   21836052.2674
     -4485.8124      -3495.4384
   1714520.93047   1335991.36747  21187294.6064   21187297.3964
     -2242.9224      -1747.7314
  -1144636.52045   -868508.42245  23830770.7554   23830776.9194
       574.5164        447.6754
   2286046.73245   1781334.49245  23830800.4814   23830805.7784
     -2955.3124      -2302.8414
    278531.64647    219381.54046  21531531.1774   21531533.7784
      -937.3914       -730.4344
   1848891.88446   1246641.42446  22779624.5444   22779627.9544
     -2584.2814      -2013.7264
 98  7  8 20 31 45.0020000  0  7G 3G 6G17G21G22G23G26
   -742197.96644   -478147.07743  24951529.3384   24951535.3614
      1259.8444        981.6964
   3949518.72747   3068141.77346  21848876.4554   21848879.1974
     -4501.0944      -3507.3464
   1748254.89347   1362277.58047  21193713.9634   21193716.7874
     -2254.5784      -1756.8144
  -1153162.74145   -875152.16145  23829148.1894   23829154.5184
       562.3594        438.2024
   2330501.35045   1815974.44345  23839259.7294   23839264.6044
     -2971.4694      -2315.4304
    292706.93647    230427.24546  21534228.5574   21534231.3344
      -952.3754       -742.1104
   1887793.44346   1276954.33846  22787026.8694   22787030.4434
     -2602.1724      -2027.6664
 98  7  8 20 32  0.0020000  0  7G 3G 6G17G21G22G23G26
   -761031.92144   -492822.81443  24947944.7604   24947952.0534
      1252.0314        975.6094
   4017145.02247   3120837.56946  21861745.1744   21861748.0454
     -4515.0004      -3518.1824
   1782155.53347   1388693.67147  21200165.1824   21200168.0644
     -2264.7504      -1764.7404
  -1161513.30545   -881659.00845  23827558.7914   23827564.6974
       551.8134        429.9844
   2375187.72845   1850794.99945  23847763.4714   23847768.2174
     -2985.9534      -2326.7174
    307096.58247    241639.97646  21536967.0574   21536969.9394
      -965.4064       -752.2654
   1926953.16446   1307468.41846  22794478.7364   22794482.2754
     -2618.3914      -2040.3044
 98  7  8 20 32 15.0020000  0  7G 3G 6G17G21G22G23G26
   -779744.30544   -507403.82542  24944383.6354   24944390.1154
      1242.9694        968.5474
   4084983.82447   3173698.95246  21874654.4554   21874657.4324
     -4530.1564      -3529.9924
   1816211.03347   1415230.43747  21206645.5574   21206648.4164
     -2275.9374      -1773.4584
  -1169701.96345   -888039.69945  23826000.6974   23826007.0144
       540.0784        420.8404
   2420094.13245   1885786.98245  23856308.8694   23856313.9674
     -3001.5314      -2338.8564
    321682.43147    253005.59646  21539742.5884   21539745.4364
      -979.3124       -763.1014
   1966358.17546   1338173.63646  22801977.7054   22801980.7994
     -2635.6094      -2053.7224
 98  7  8 20 32 30.0020000  0  7G 3G 6G17G21G22G23G26
   -798320.61944   -521878.83943  24940848.7524   24940854.2834
      1234.0164        961.5714
   4153049.14747   3226736.84446  21887606.8304   21887609.8424
     -4545.0004      -3541.5584
   1850432.38547   1441896.43447  21213157.8144   21213160.9084
     -2286.6724      -1781.8224
  -1177716.77445   -894284.93945  23824475.3854   23824481.5724
       528.7974        412.0504
   2465231.63645   1920959.05245  23864898.3224   23864902.9284
     -3016.5314      -2350.5444
    336474.78747    264532.12746  21542557.4394   21542560.0294
      -992.7814       -773.5964
   2006021.51146   1369080.13546  22809525.1434   22809528.2604
     -2652.6414      -2066.9934
 98  7  8 20 32 45.0020000  0  7G 3G 6G17G21G22G23G26
   -816761.11444   -536247.97843  24937339.5574   24937347.1314
      1224.9224        954.4854
   4221337.64947   3279948.64646  21900601.5724   21900604.6074
     -4559.9534      -3553.2104
   1884814.36647   1468687.59647  21219700.4324   21219703.3854
     -2297.4694      -1790.2354
  -1185561.61545   -900397.72545  23822982.5724   23822988.0924
       517.2814        403.0764
   2510592.31645   1956305.01445  23873530.4394   23873535.4084
     -3031.3594      -2362.0984
    351469.64547    276216.46146  21545410.7524   21545413.6234
     -1006.3754       -784.1884
   2045941.04146   1400186.27946  22817121.5024   22817124.7254
     -2669.8124      -2080.3734
 98  7  8 20 33  0.0020000  0  7G 3G 6G17G21G22G23G26
   -835061.18344   -550507.72642  24933857.4084   24933863.5964
      1215.2344        946.9364
   4289854.56647   3333338.42546  21913640.0884   21913643.1704
     -4575.4224      -3565.2644
   1919363.89447   1495609.31847  21226274.9394   21226277.7874
     -2308.9374      -1799.1724
  -1193229.55245   -906372.65745  23821523.5494   23821528.6934
       505.3134        393.7504
   2556178.96745   1991827.07945  23882205.2914   23882210.0494
     -3046.7034      -2374.0544
    366673.58047    288063.70346  21548304.1504   21548307.0574
     -1020.6724       -795.3294
   2086123.14546   1431497.02846  22824767.8544   22824770.9004
     -2687.6724      -2094.2904
 98  7  8 20 33 15.0020000  0  7G 3G 6G17G21G22G23G26
   -853227.44743   -564663.17642  24930400.4714   24930406.6704
      1206.6564        940.2524
   4358592.04447   3386900.07546  21926720.5644   21926723.5534
     -4589.8914      -3576.5384
   1954073.86747   1522656.05647  21232880.0644   21232883.0294
     -2319.3594      -1807.2934
  -1200729.68845   -912216.84145  23820096.1584   23820101.8184
       494.4384        385.2764
   2601982.91145   2027518.44245  23890920.6044   23890925.5964
     -3060.7504      -2385.0004
    382080.29247    300068.95246  21551235.8614   21551238.6504
     -1033.9064       -805.6414
   2126562.65546   1463008.34546  22832463.2134   22832466.9044
     -2704.5624      -2107.4514
 98  7  8 20 33 30.0020000  0  7G 3G 6G17G21G22G23G26
   -871265.67043   -578718.88542  24926968.0964   24926973.8384
      1198.0004        933.5064
   4427545.28947   3440629.85746  21939841.9714   21939845.0294
     -4604.2504      -3587.7274
   1988938.57447   1549823.37347  21239514.5104   21239517.5684
     -2329.6094      -1815.2804
  -1208069.87745   -917936.38745  23818699.3464   23818704.2564
       483.8754        377.0454
   2647995.58745   2063372.45745  23899677.2364   23899682.5574
     -3074.6724      -2395.8484
    397686.22147    312229.44346  21554205.5644   21554208.6234
     -1047.3124       -816.0884
   2167253.05446   1494715.16646  22840206.2834   22840209.5064
     -2721.2034      -2120.4184
 98  7  8 20 33 45.0020000  0  7G 3G 6G17G21G22G23G26
   -889165.66043   -592666.90542  24923561.8144   24923567.4514
      1188.9224        926.4334
   4496721.33047   3494533.24046  21953005.5494   21953008.4084
     -4618.8914      -3599.1364
   2023963.83147   1577115.78447  21246179.4944   21246182.6934
     -2340.2194      -1823.5474
  -1215245.54746   -923527.74945  23817334.2754   23817339.6194
       473.2034        368.7304
   2694224.62045   2099395.07145  23908474.4944   23908479.9204
     -3088.9694      -2406.9894
    413500.91247    324552.59946  21557214.7834   21557217.4674
     -1061.0004       -826.7534
   2208199.87546   1526621.79646  22847998.4244   22848001.9284
     -2738.1414      -2133.6164
 98  7  8 20 34  0.0020000  0  7G 3G 6G17G21G22G23G26
   -906932.23543   -606510.91542  24920180.6664   24920186.2914
      1179.8754        919.3834
   4566112.18647   3548604.01446  21966210.4634   21966213.4514
     -4633.2194      -3610.3004
   2059147.78647   1604531.86347  21252874.9244   21252878.1704
     -2351.0474      -1831.9854
  -1222265.51046   -928997.75745  23815997.6434   23816002.9164
       462.8134        360.6334
   2740666.88845   2135583.83445  23917311.8854   23917317.0644
     -3103.3914      -2418.2264
    429515.83947    337031.78646  21560262.5334   21560265.2754
     -1074.3754       -837.1754
   2249400.13746   1558725.90946  22855838.4554   22855841.8654
     -2755.2504      -2146.9484
 98  7  8 20 34 15.0020000  0  7G 3G 6G17G21G22G23G26
   -924573.54243   -620257.29542  24916823.2364   24916828.8384
      1172.1724        913.3814
   4635704.61446   3602831.85946  21979453.2294   21979456.2174
     -4645.9064      -3620.1874
   2094484.02147   1632066.60447  21259599.0804   21259602.1744
     -2360.6564      -1839.4724
  -1229141.13046   -934355.30145  23814689.4004   23814694.6044
       453.7344        353.5594
   2787315.04745   2171933.03545  23926188.4164   23926192.8574
     -3116.5624      -2428.4904
    445722.87447    349660.67446  21563346.5574   21563349.3814
     -1086.8124       -846.8674
   2290847.16646   1591022.31546  22863725.4554   22863728.8304
     -2771.2504      -2159.4164
 98  7  8 20 34 30.0020000  0  7G 3G 6G17G21G22G23G26
   -942093.35743   -633909.05042  24913490.1114   24913497.4284
      1163.8754        906.9164
   4705493.68146   3657212.92846  21992733.7134   21992736.6664
     -4659.2194      -3630.5604
   2129972.90047   1659720.28047  21266352.6044   21266355.7094
     -2371.1414      -1847.6424
  -1235871.21846   -939599.45245  23813408.8144   23813413.8774
       443.6094        345.6704
   2834168.51645   2208442.20445  23935104.5414   23935110.2834
     -3130.4844      -2439.3384
    462126.72047    362442.91046  21566468.0254   21566471.2254
     -1100.3594       -857.4234
   2332543.06246   1623512.63746  22871659.9554   22871663.2954
     -2788.1254      -2172.5654
 98  7  8 20 34 45.0020000  0  7G 3G 6G17G21G22G23G26
   -959482.61844   -647459.02243  24910180.3614   24910186.4904
      1155.1724        900.1344
   4775486.76046   3711752.96646  22006053.1974   22006056.0924
     -4672.7194      -3641.0804
   2165624.54547   1687500.79147  21273136.4474   21273139.5064
     -2381.9374      -1856.0554
  -1242442.64146   -944719.96245  23812158.1664   23812163.5574
       433.1094        337.4884
   2881237.01745   2245118.95845  23944061.8074   23944066.7754
     -3144.9224      -2450.5884
    478740.61347    375388.81946  21569629.5964   21569632.7484
     -1114.3754       -868.3444
   2374496.37146   1656203.54346  22879643.4554   22879646.2794
     -2805.1564      -2185.8364
 98  7  8 20 35  0.0020000  0  7G 3G 6G17G21G22G23G26
   -976745.51543   -660910.60542  24906895.8464   24906902.9754
      1146.7974        893.6084
   4845679.09446   3766448.26546  22019410.1974   22019413.3264
     -4685.9694      -3651.4044
   2201435.89247   1715405.74747  21279951.3854   21279954.4434
     -2392.6414      -1864.3954
  -1248861.07746   -949721.26845  23810936.6584   23810942.1664
       423.0164        329.6234
   2928522.59745   2281964.84445  23953059.8854   23953065.4634
     -3159.5784      -2462.0094
    495562.96447    388497.16746  21572830.6274   21572833.6744
     -1128.3284       -879.2174
   2416700.21446   1689089.67646  22887674.6354   22887677.6234
     -2821.7814      -2198.7914
 98  7  8 20 35 15.0020000  0  7G 3G 6G17G21G22G23G26
   -993890.06443   -674269.94242  24903633.2364   24903637.8654
      1138.7974        887.3744
   4916060.88946   3821291.20046  22032803.4864   22032806.6154
     -4698.5944      -3661.2424
   2237398.06147   1743428.22647  21286795.0964   21286798.0494
     -2402.6094      -1872.1634
  -1255139.94246   -954613.80745  23809741.8304   23809746.9394
       413.8284        322.4634
   2976020.42945   2318976.12145  23962098.2834   23962102.9944
     -3173.7974      -2473.0884
    512584.73747    401760.91546  21576070.0334   21576072.7994
     -1141.5474       -889.5174
   2459143.97646   1722162.74646  22895751.3854   22895754.3734
     -2837.7194      -2211.2094
 98  7  8 20 35 30.0020000  0  7G 3G 6G17G21G22G23G26
  -1010908.41043   -687530.97242  24900394.7214   24900399.9474
      1130.4534        880.8734
   4986638.42246   3876286.65546  22046234.0414   22046237.4044
     -4711.6254      -3671.3964
   2273515.04647   1771571.33747  21293667.7754   21293670.8574
     -2412.8754      -1880.1624
  -1261273.56946   -959393.18045  23808574.4394   23808579.7834
       404.1094        314.8904
   3023736.90445   2356157.79645  23971178.6974   23971182.4714
     -3188.3124      -2484.3994
    529811.53547    415184.41446  21579348.0254   21579350.8504
     -1155.2974       -900.2314
   2501831.84246   1755426.03046  22903874.9394   22903877.8934
     -2853.8754      -2223.7994
 98  7  8 20 35 45.0020000  0  7G 3G 6G17G21G22G23G26
  -1027803.07843   -700695.52942  24897180.2754   24897184.1314
      1122.1254        874.3834
   5057407.89246   3931431.67146  22059700.8074   22059704.0764
     -4724.4224      -3681.3684
   2309784.24947   1799833.06447  21300569.2994   21300572.3464
     -2423.1414      -1888.1624
  -1267263.41246   -964060.50745  23807434.4864   23807439.6194
       394.3914        307.3174
   3071670.61645   2393508.71145  23980300.0334   23980305.1434
     -3202.9534      -2495.8084
    547241.80147    428766.46046  21582665.2444   21582668.0104
     -1168.7664       -910.7264
   2544758.84846   1788875.65646  22912043.4944   22912046.4004
     -2869.8284      -2236.2304
 98  7  8 20 36  0.0020000  0  7G 3G 6G17G21G22G23G26
  -1044578.17844   -713766.99842  24893987.8224   24893993.5764
      1114.4384        868.3934
   5128365.82846   3986723.54446  22073203.9474   22073207.2294
     -4736.7664      -3690.9864
   2346206.22447   1828213.82747  21307500.1664   21307503.0254
     -2433.3284      -1896.1004
  -1273108.22746   -968614.83745  23806322.4474   23806327.3574
       384.7344        299.7934
   3119821.50845   2431028.87245  23989462.8544   23989468.1274
     -3217.3754      -2507.0454
    564869.32147    442502.21446  21586019.3934   21586022.2754
     -1181.7974       -920.8814
   2587923.57446   1822510.52346  22920257.4164   22920260.7214
     -2885.6254      -2248.5394
 98  7  8 20 36 15.0020000  0  7G 3G 6G17G21G22G23G26
  -1061234.99844   -726746.31042  24890817.5494   24890821.5334
      1106.7664        862.4154
   5199512.57746   4042162.54446  22086742.8774   22086746.3814
     -4749.2194      -3700.6904
   2382784.09447   1856716.07647  21314460.7684   21314463.8264
     -2443.3914      -1903.9414
  -1278803.74246   -973052.82845  23805238.9714   23805244.5844
       374.9064        292.1354
   3168192.11445   2468720.23645  23998667.6504   23998673.0644
     -3231.6874      -2518.1984
    582697.11647    456394.01846  21589411.9634   21589414.6934
     -1195.0004       -931.1694
   2631328.05946   1856332.20746  22928516.6974   22928519.9674
     -2901.2974      -2260.7514
 98  7  8 20 36 30.0020000  0  7G 3G 6G17G21G22G23G26
  -1077773.04444   -739633.05042  24887670.5254   24887674.0064
      1098.8284        856.2304
   5270850.10347   4097750.20046  22100317.9794   22100321.0724
     -4761.9374      -3710.6014
   2419515.43647   1885337.90747  21321450.6114   21321453.6354
     -2453.6094      -1911.9034
  -1284346.51146   -977371.79545  23804183.9394   23804189.0844
       364.6094        284.1114
   3216779.53645   2506580.56045  24007913.5254   24007919.5254
     -3246.1564      -2529.4724
    600728.12747    470444.18346  21592842.9944   21592845.5374
     -1208.5784       -941.7494
   2674971.09746   1890339.78546  22936821.9634   22936825.1974
     -2917.2814      -2273.2064
 98  7  8 20 36 45.0020000  0  7G 3G 6G17G21G22G23G26
  -1094199.62944   -752432.91142  24884544.4794   24884549.7644
      1091.1094        850.2154
   5342369.41447   4153479.51146  22113927.8854   22113930.8034
     -4774.2664      -3720.2074
   2456390.27747   1914071.55947  21328467.7754   21328470.9984
     -2463.2974      -1919.4524
  -1289744.96246   -981578.31345  23803156.7994   23803162.0964
       354.9694        276.5994
   3265574.66745   2544602.71545  24017198.8074   24017203.9394
     -3260.0944      -2540.3334
    618950.68747    484643.60246  21596310.8694   21596313.4124
     -1221.3594       -951.7094
   2718842.70846   1924525.46046  22945170.4474   22945173.5884
     -2932.4534      -2285.0284
 98  7  8 20 37  0.0020000  0  7G 3G 6G17G21G22G23G26
  -1110512.11444   -765143.90842  24881440.4864   24881444.0844
      1083.8754        844.5784
   5414073.72747   4209352.97746  22127572.5024   22127575.4324
     -4786.3444      -3729.6194
   2493410.24447   1942918.29047  21335512.2684   21335515.5494
     -2472.7344      -1926.8064
  -1295002.14546   -985674.75545  23802156.0334   23802161.2134
       346.0004        269.6104
   3314578.43545   2582787.46745  24026523.9164   24026529.5294
     -3273.7344      -2550.9624
    637362.71247    498990.65546  21599814.5494   21599817.0684
     -1233.5624       -961.2184
   2762939.86046   1958886.89746  22953561.4244   22953564.7874
     -2947.1874      -2296.5104
 98  7  8 20 37 15.0020000  0  7G 3G 6G17G21G22G23G26
  -1126719.63745   -777773.09943  24878356.1504   24878359.6784
      1076.9534        839.1844
   5485956.30647   4265365.34746  22141251.2364   22141254.3074
     -4798.1094      -3738.7874
   2530569.28447   1971873.39447  21342583.5024   21342586.9124
     -2481.9064      -1933.9534
  -1300126.74146   -989667.86845  23801181.0494   23801185.7364
       337.0944        262.6704
   3363781.34545   2621127.37445  24035887.1584   24035892.4794
     -3286.7344      -2561.0924
    655953.60847    513477.09146  21603352.1194   21603354.5334
     -1245.2814       -970.3494
   2807256.20146   1993419.12346  22961995.0644   22961998.3464
     -2961.8124      -2307.9064
 98  7  8 20 37 30.0020000  0  7G 3G 6G17G21G22G23G26
  -1142819.73945   -790318.58043  24875292.5884   24875297.3934
      1069.8754        833.6694
   5558018.83047   4321517.94046  22154964.4244   22154967.8464
     -4810.0784      -3748.1134
   2567869.53447   2000938.53547  21349681.3694   21349684.7324
     -2491.3754      -1941.3314
  -1305112.49346   -993552.80245  23800232.3074   23800237.3574
       327.7664        255.4024
   3413180.89645   2659620.52045  24045287.1894   24045292.7444
     -3299.7814      -2571.2584
    674722.59647    528102.29046  21606923.6434   21606926.3734
     -1257.1724       -979.6144
   2851795.72846   2028125.25445  22970470.1894   22970473.4944
     -2976.6724      -2319.4854
 98  7  8 20 37 45.0020000  0  7G 3G 6G17G21G22G23G26
  -1158820.52645   -802786.66143  24872247.9714   24872252.6824
      1063.4224        828.6404
   5630255.00246   4377805.83646  22168710.4244   22168713.6934
     -4821.5474      -3757.0504
   2605308.36947   2030111.66147  21356805.9474   21356809.2874
     -2500.6414      -1948.5514
  -1309962.92346   -997332.29045  23799309.2684   23799314.2954
       318.8444        248.4504
   3462770.97945   2698262.12245  24054724.2684   24054729.7524
     -3312.3754      -2581.0714
    693666.59747    542863.87346  21610528.4394   21610531.0184
     -1268.7814       -988.6614
   2896552.99846   2063001.05245  22978987.3544   22978990.7994
     -2991.1724      -2330.7834
 98  7  8 20 38  0.0020000  0  7G 3G 6G17G21G22G23G26
  -1174725.60845   -815180.16043  24869221.0024   24869226.1824
      1057.0474        823.6734
   5702661.47146   4434226.43546  22182489.0574   22182492.1624
     -4832.8754      -3765.8774
   2642884.40947   2059391.69847  21363956.1664   21363959.2484
     -2509.7034      -1955.6134
  -1314682.37246  -1001009.72245  23798411.2294   23798415.7644
       310.2194        241.7294
   3512548.42345   2737049.73345  24064196.7754   24064201.6744
     -3324.8124      -2590.7634
    712781.66547    557758.74946  21614166.1584   21614168.6894
     -1280.1094       -997.4884
   2941527.88346   2098046.42146  22987545.6744   22987549.2604
     -3005.7194      -2342.1194
 98  7  8 20 38 15.0020000  0  7G 3G 6G17G21G22G23G26
  -1190530.83145   -827495.86943  24866213.2444   24866219.5964
      1049.9844        818.1704
   5775240.96646   4490781.86246  22196300.3774   22196303.1784
     -4844.7034      -3775.0934
   2680598.65247   2088779.42647  21371132.9164   21371136.0214
     -2519.1254      -1962.9554
  -1319270.84946  -1004585.08145  23797537.0804   23797541.7214
       301.3134        234.7894
   3562514.78745   2775984.55045  24073704.8774   24073709.2254
     -3337.6564      -2600.7714
    732071.91147    572790.13146  21617837.1044   21617839.7754
     -1292.2344      -1006.9364
   2986724.57746   2133264.63446  22996146.5414   22996149.7294
     -3020.8284      -2353.8924
 98  7  8 20 38 30.0020000  0  7G 3G 6G17G21G22G23G26
  -1206233.30245   -839731.48943  24863225.6744   24863230.4904
      1043.3914        813.0324
   5847992.94546   4547471.69146  22210144.5804   22210147.3814
     -4855.8124      -3783.7504
   2718446.98147   2118271.64247  21378335.5414   21378338.7524
     -2527.5944      -1969.5544
  -1323731.28546  -1008060.68845  23796688.8224   23796694.2954
       293.0944        228.3854
   3612665.84145   2815063.26945  24083248.0724   24083253.6394
     -3349.4224      -2609.9394
    751538.12347    587958.62546  21621541.2684   21621543.8114
     -1303.5164      -1015.7264
   3032141.98746   2168654.82145  23004789.3144   23004792.6314
     -3035.1564      -2365.0574
 98  7  8 20 38 45.0020000  0  7G 3G 6G17G21G22G23G26
  -1221835.77145   -851889.19343  24860256.3614   24860261.7524
      1036.8754        807.9554
   5920910.80646   4604290.77646  22224020.4244   22224023.3654
     -4866.6724      -3792.2124
   2756423.24547   2147863.54047  21385562.0414   21385565.3464
     -2536.0314      -1976.1284
  -1328067.64646  -1011439.60045  23795863.7834   23795868.7754
       285.0474        222.1144
   3662994.28145   2854280.20345  24092825.4714   24092830.8614
     -3361.1414      -2619.0714
    771173.18247    603258.68646  21625277.5184   21625280.2484
     -1314.5314      -1024.3104
   3077775.48046   2204213.38846  23013473.3304   23013476.7404
     -3049.3284      -2376.1004
 98  7  8 20 39  0.0020000  0  7G 3G 6G17G21G22G23G26
  -1237345.95245   -863975.00843  24857304.4474   24857308.0804
      1030.7664        803.1944
   5993988.62546   4661234.51046  22237926.9244   22237930.2404
     -4877.5164      -3800.6624
   2794521.86647   2177550.78447  21392812.0494   21392815.3184
     -2544.2034      -1982.4964
  -1332288.75746  -1014728.70745  23795060.5494   23795065.4124
       277.2504        216.0394
   3713493.64345   2893630.33445  24102435.1504   24102440.7174
     -3372.5314      -2627.9464
    790968.41347    618683.56046  21629044.5964   21629046.9864
     -1325.3284      -1032.7234
   3123615.30346   2239932.73945  23022195.9634   23022199.0924
     -3063.1564      -2386.8754
 98  7  8 20 39 15.0020000  0  7G 3G 6G17G21G22G23G26
  -1252759.26145   -875985.32943  24854371.3774   24854378.1504
      1024.5944        798.3854
   6067234.98046   4718309.55646  22251864.9714   22251868.2754
     -4888.3914      -3809.1364
   2832747.93447   2207337.33947  21400085.9944   21400089.1824
     -2552.2814      -1988.7914
  -1336384.35446  -1017920.02145  23794280.5104   23794285.2684
       269.0474        209.6474
   3764169.99845   2933118.40145  24112078.8384   24112084.5214
     -3384.0474      -2636.9204
    810932.76547    634240.21946  21632843.5414   21632845.9084
     -1336.3444      -1041.3074
   3169672.05946   2275821.11545  23030960.2054   23030963.6274
     -3077.5164      -2398.0644
 98  7  8 20 39 30.0020000  0  7G 3G 6G17G21G22G23G26
  -1268078.85144   -887922.58643  24851456.0724   24851461.9084
      1018.3134        793.4904
   6140644.28546   4775511.58446  22265834.6354   22265838.0574
     -4899.1874      -3817.5494
   2871094.48547   2237217.77747  21407383.2524   21407386.4164
     -2560.3124      -1995.0494
  -1340354.74946  -1021013.78545  23793525.5574   23793530.6894
       260.6564        203.1094
   3815018.80245   2972740.81645  24121754.7134   24121759.7994
     -3395.4844      -2645.8324
    831063.41047    649926.45346  21636674.3694   21636676.9824
     -1347.4064      -1049.9274
   3215946.60646   2311879.20045  23039766.1044   23039769.5254
     -3092.1414      -2409.4604
 98  7  8 20 39 45.0020000  0  7G 3G 6G17G21G22G23G26
  -1283304.88144   -899786.97843  24848557.9944   24848563.5254
      1011.2194        787.9634
   6214213.94046   4832838.55246  22279834.1354   22279837.6624
     -4910.7344      -3826.5464
   2909561.03747   2267191.72147  21414703.2994   21414706.4164
     -2569.1724      -2001.9524
  -1344201.13146  -1024010.89045  23792793.0494   23792797.9594
       251.5634        196.0234
   3866039.03945   3012496.83045  24131463.6894   24131469.4434
     -3407.8444      -2655.4634
    851359.05747    665741.26246  21640536.6434   21640539.2214
     -1359.2974      -1059.1924
   3262439.20946   2348107.20745  23048613.4714   23048616.8694
     -3107.5314      -2421.4534
 98  7  8 20 40  0.0020000  0  7G 3G 6G17G21G22G23G26
  -1298423.63544   -911567.77243  24845681.2684   24845687.4084
      1004.8444        782.9954
   6287957.53346   4890301.06446  22293867.2834   22293870.7294
     -4921.5164      -3834.9474
   2948158.55347   2297267.71147  21422048.1664   21422051.2364
     -2576.8754      -2007.9554
  -1347910.80146  -1026901.48945  23792087.3614   23792092.6934
       243.3134        189.5944
   3917243.40145   3052396.31345  24141207.4864   24141213.0764
     -3419.1094      -2664.2414
    871831.21247    681693.60246  21644432.3544   21644435.0144
     -1370.0004      -1067.5324
   3309163.60046   2384515.82045  23057504.6354   23057507.9394
     -3122.1254      -2432.8254
 98  7  8 20 40 15.0020000  0  7G 3G 6G17G21G22G23G26
  -1313448.62844   -923275.47643  24842822.2524   24842828.9554
       998.9064        778.3694
   6361860.66446   4947887.89046  22307930.5494   22307934.0414
     -4931.7974      -3842.9594
   2986868.07047   2327430.98147  21429414.1274   21429417.2564
     -2583.9844      -2013.4944
  -1351499.10646  -1029697.50045  23791404.4084   23791409.2364
       235.5474        183.5434
   3968613.86645   3092425.23445  24150983.1114   24150988.1864
     -3429.8444      -2672.6064
    892460.28647    697768.22146  21648357.7914   21648360.4394
     -1380.1094      -1075.4104
   3356103.35646   2421092.25745  23066436.7524   23066439.9634
     -3136.0164      -2443.6494
 98  7  8 20 40 30.0020000  0  7G 3G 6G17G21G22G23G26
  -1328388.11744   -934916.57243  24839979.7754   24839984.6394
       993.2034        773.9254
   6435915.27546   5005592.75846  22322023.0804   22322026.3384
     -4942.0164      -3850.9214
   3025682.15347   2357675.72347  21436800.1504   21436803.3854
     -2591.1254      -2019.0584
  -1354972.44746  -1032403.94045  23790743.1744   23790747.7444
       227.6414        177.3824
   4020142.43245   3132577.33745  24160788.5334   24160793.8894
     -3440.4844      -2680.8974
    913238.92947    713959.39047  21652311.7294   21652314.2484
     -1390.2034      -1083.2754
   3403246.79246   2457827.39945  23075408.1504   23075410.9514
     -3149.6724      -2454.2904
 98  7  8 20 40 45.0020000  0  7G 3G 6G17G21G22G23G26
  -1343246.23245   -946494.26943  24837151.8934   24837158.5494
       987.7194        769.6514
   6510119.71946   5063414.36946  22336143.5334   22336146.6864
     -4952.0944      -3858.7744
   3064599.92047   2388001.26547  21444206.2294   21444209.4984
     -2598.1414      -2024.5254
  -1358330.28146  -1035020.38545  23790104.1114   23790108.9044
       219.9224        171.3684
   4071826.29345   3172850.46545  24170623.9324   24170628.9474
     -3450.9374      -2689.0424
    934163.31647    730264.12947  21656293.6504   21656296.0064
     -1399.9224      -1090.8484
   3450591.84746   2494719.65845  23084417.4864   23084420.9794
     -3163.2194      -2464.8464
 98  7  8 20 41  0.0020000  0  7G 3G 6G17G21G22G23G26
  -1358019.24945   -958005.64143  24834340.9324   24834348.8224
       981.9694        765.1704
   6584479.43646   5121356.97946  22350293.8384   22350297.0494
     -4962.5944      -3866.9564
   3103627.83347   2418412.63247  21451632.8774   21451636.0764
     -2605.5944      -2030.3334
  -1361570.47846  -1037545.15445  23789487.9944   23789492.5184
       212.0944        165.2684
   4123672.39745   3213250.01045  24180489.6504   24180494.7364
     -3461.9224      -2697.6014
    955238.23047    746686.15647  21660304.2684   21660306.5294
     -1410.1254      -1098.7994
   3498144.02746   2531773.29545  23093466.4634   23093469.6154
     -3177.1094      -2475.6704
 98  7  8 20 41 15.0020000  0  7G 3G 6G17G21G22G23G26
  -1372711.83445   -969454.32943  24831544.8074   24831552.1114
       976.7344        761.0924
   6658989.95946   5179417.10446  22364472.5804   22364476.1434
     -4972.3914      -3874.5904
   3142759.28147   2448904.67647  21459079.2684   21459082.4674
     -2612.2034      -2035.4834
  -1364699.52546  -1039983.31745  23788892.6744   23788897.2444
       204.8134        159.5944
   4175676.80445   3253772.89745  24190385.5104   24190390.9004
     -3472.2974      -2705.6864
    976460.83647    763223.26847  21664342.4944   21664344.7214
     -1419.8444      -1106.3724
   3545900.30146   2568985.97645  23102554.2834   23102557.2484
     -3190.7034      -2486.2624
 98  7  8 20 41 30.0020000  0  7G 3G 6G17G21G22G23G26
  -1387319.52145   -980836.88343  24828764.8224   24828771.2214
       970.8594        756.5144
   6733650.37546   5237594.01546  22378679.8774   22378683.3934
     -4982.4224      -3882.4074
   3181994.05347   2479477.23347  21466545.4634   21466548.6504
     -2619.2504      -2040.9744
  -1367715.20546  -1042333.13945  23788318.8464   23788323.9204
       197.2504        153.7014
   4227841.05345   3294420.33945  24200312.6274   24200318.1114
     -3483.0164      -2714.0384
    997833.70247    779877.46347  21668409.6824   21668411.8504
     -1429.9374      -1114.2374
   3593863.27146   2606359.71545  23111681.5644   23111684.6004
     -3204.4064      -2496.9404
 98  7  8 20 41 45.0020000  0  7G 3G 6G17G21G22G23G26
  -1401844.75845   -992155.15443  24826000.5964   24826007.4674
       965.5314        752.3624
   6808454.66746   5295883.04746  22392914.7524   22392918.0804
     -4991.8594      -3889.7614
   3221330.40247   2510128.94247  21474030.8384   21474033.9674
     -2625.8914      -2046.1494
  -1370625.16946  -1044600.58245  23787764.6354   23787769.5454
       190.4534        148.4054
   4280159.59145   3335188.03045  24210268.2684   24210273.8814
     -3493.1254      -2721.9164
   1019351.00147    796644.20447  21672504.5494   21672506.8814
     -1439.3914      -1121.6034
   3642023.87046   2643887.45645  23120846.2214   23120849.2914
     -3217.2504      -2506.9484
 98  7  8 20 42  0.0020000  0  7G 3G 6G17G21G22G23G26
  -1416281.92044  -1003404.83343  24823253.5414   24823261.3034
       959.2974        747.5044
   6883410.13746   5354289.87646  22407178.3464   22407181.7794
     -5002.3444      -3897.9304
   3260772.05247   2540862.69947  21481536.4794   21481539.5374
     -2633.0944      -2051.7614
  -1373426.59146  -1046783.45445  23787231.5184   23787236.4634
       182.9384        142.5494
   4332638.53645   3376080.68845  24220254.7604   24220260.2324
     -3504.2034      -2730.5484
   1041019.69547    813528.92047  21676627.9474   21676630.2324
     -1449.9374      -1129.8214
   3690382.58746   2681569.57146  23130048.4794   23130051.8774
     -3230.7034      -2517.4314
 98  7  8 20 42 15.0020000  0  7G 3G 6G17G21G22G23G26
  -1430625.98545  -1014581.97143  24820523.6824   24820529.6934
       953.3754        742.8904
   6958522.34146   5412818.83946  22421471.7524   22421475.3854
     -5012.4844      -3905.8324
   3300321.24447   2571680.25847  21489062.3074   21489065.4244
     -2640.0784      -2057.2044
  -1376115.83646  -1048878.91745  23786719.7914   23786724.5254
       175.6884        136.8994
   4385283.04745   3417102.37445  24230272.6894   24230278.8894
     -3515.0164      -2738.9734
   1062847.53147    830537.64346  21680781.3384   21680783.7054
     -1460.4224      -1137.9914
   3738942.35146   2719408.34445  23139289.0724   23139292.2714
     -3243.7974      -2527.6344
 98  7  8 20 42 30.0020000  0  7G 3G 6G17G21G22G23G26
  -1444883.87844  -1025691.91043  24817810.7994   24817816.0614
       947.9064        738.6284
   7033782.64746   5471463.20046  22435793.3934   22435796.8034
     -5021.9694      -3913.2224
   3339973.83547   2602578.38647  21496608.1194   21496611.1434
     -2646.6874      -2062.3544
  -1378697.45346  -1050890.51945  23786228.5414   23786233.0764
       168.7504        131.4944
   4438090.37745   3458250.91545  24240321.6504   24240327.5104
     -3525.7034      -2747.3014
   1084831.95547    847668.37846  21684964.9324   21684967.2874
     -1470.5784      -1145.9054
   3787695.61346   2757397.89845  23148566.3144   23148569.4904
     -3256.3754      -2537.4354
 98  7  8 20 42 45.0020000  0  7G 3G 6G17G21G22G23G26
  -1459060.14444  -1036738.31443  24815113.0414   24815119.9364
       942.4534        734.3794
   7109185.59046   5530218.71046  22450142.1974   22450145.6784
     -5031.5624      -3920.6984
   3379724.92647   2633553.26947  21504172.6114   21504175.6934
     -2653.2504      -2067.4684
  -1381175.15246  -1052821.13945  23785757.0414   23785761.8814
       161.8594        126.1244
   4491057.10145   3499523.65945  24250400.7214   24250405.8184
     -3536.2814      -2755.5444
   1106967.64647    864916.98646  21689177.4084   21689179.9984
     -1480.5784      -1153.6974
   3836638.07546   2795534.88046  23157880.0184   23157883.4044
     -3269.0784      -2547.3344
 98  7  8 20 43  0.0030000  0  7G 3G 6G17G21G22G23G26
  -1473158.94145  -1047724.31443  24812430.2024   24812435.6044
       937.1724        730.2644
   7184732.92146   5589086.72446  22464518.4604   22464521.8824
     -5040.8594      -3927.9424
   3419571.92847   2664602.88747  21511755.1634   21511758.2224
     -2659.4694      -2072.3134
  -1383555.75646  -1054676.09645  23785303.8584   23785308.9444
       155.4224        121.1084
   4544181.51745   3540919.29245  24260510.3514   24260516.2454
     -3546.6414      -2763.6164
   1129248.81547    882278.95346  21693417.2184   21693419.7614
     -1490.2194      -1161.2094
   3885769.79446   2833819.33346  23167229.3824   23167232.2764
     -3281.4694      -2556.9894
 98  7  8 20 43 15.0030000  0  7G 3G 6G17G21G22G23G26
  -1487182.16145  -1058651.44143  24809761.5854   24809766.0854
       932.6884        726.7694
   7260411.63946   5648057.13046  22478919.4994   22478922.9214
     -5049.5314      -3934.7004
   3459507.32647   2695721.38547  21519354.5934   21519357.5934
     -2665.1414      -2076.7334
  -1385841.62046  -1056457.24045  23784869.1944   23784874.3044
       149.4224        116.4334
   4597455.74545   3582431.65045  24270647.6874   24270653.2184
     -3556.4844      -2771.2874
   1151672.23047    899751.76446  21697684.0934   21697686.6014
     -1499.4224      -1168.3814
   3935080.32646   2872243.12546  23176612.8824   23176616.0464
     -3293.1724      -2566.1084
 98  7  8 20 43 30.0030000  0  7G 3G 6G17G21G22G23G26
  -1501138.28045  -1069526.27543  24807106.1944   24807110.5774
       928.2034        723.2754
   7336221.01946   5707129.33846  22493345.2654   22493348.7224
     -5058.3754      -3941.5914
   3499528.64847   2726906.83947  21526970.3974   21526973.4214
     -2671.0944      -2081.3724
  -1388036.39446  -1058167.39445  23784450.9914   23784455.7024
       143.2504        111.6234
   4650877.65145   3624059.08345  24280814.1244   24280820.6404
     -3566.3914      -2779.0064
   1174232.15647    917330.94146  21701976.9684   21701979.3124
     -1508.5004      -1175.4554
   3984565.78646   2910803.21646  23186029.6084   23186032.8784
     -3304.8754      -2575.2274
 98  7  8 20 43 45.0030000  0  7G 3G 6G17G21G22G23G26
  -1515028.16545  -1080349.50843  24804462.9834   24804466.4994
       923.5784        719.6714
   7412163.86146   5766305.54846  22507797.0854   22507800.5424
     -5067.6254      -3948.7994
   3539641.64047   2758163.72247  21534603.4684   21534606.5734
     -2677.5784      -2086.4254
  -1390139.55646  -1059806.16845  23784051.1164   23784056.3084
       136.9534        106.7174
   4704448.04245   3665802.21445  24291008.1554   24291013.6404
     -3576.5944      -2786.9564
   1196927.56147    935015.69246  21706295.8824   21706298.2964
     -1517.7974      -1182.6994
   4034226.91646   2949500.20245  23195480.0854   23195483.2494
     -3316.9224      -2584.6144
 98  7  8 20 44  0.0030000  0  7G 3G 6G17G21G22G23G26
  -1528854.46345  -1091123.15943  24801831.7804   24801834.6874
       920.0164        716.8954
   7488241.71746   5825586.96046  22522273.9914   22522277.2374
     -5076.0164      -3955.3374
   3579846.22847   2789491.97447  21542254.3274   21542257.3514
     -2682.9534      -2090.6134
  -1392152.45146  -1061374.60345  23783667.5384   23783672.4484
       131.5474        102.5044
   4758167.56745   3707661.57945  24301229.9764   24301235.0854
     -3585.9374      -2794.2374
   1219757.85247    952805.54246  21710640.4134   21710642.6984
     -1526.1724      -1189.2254
   4084065.89746   2988335.76945  23204963.7654   23204967.0584
     -3328.2194      -2593.4174
 98  7  8 20 44 15.0030000  0  7G 3G 6G17G21G22G23G26
  -1542621.38645  -1101850.58844  24799211.6634   24799216.7964
       915.8594        713.6574
   7564450.52846   5884970.42146  22536776.3354   22536779.4994
     -5084.8754      -3962.2404
   3620138.91047   2820888.87747  21549921.8514   21549924.8394
     -2689.2034      -2095.4834
  -1394078.73046  -1062875.54445  23783301.3664   23783305.9014
       125.5004         97.7924
   4812033.44845   3749634.96745  24311480.9994   24311486.5544
     -3595.9224      -2802.0174
   1242719.98047    970698.12646  21715009.9994   21715012.2964
     -1535.1414      -1196.2134
   4134080.49046   3027308.18545  23214481.3274   23214484.6554
     -3340.1094      -2602.6834
 98  7  8 20 44 30.0030000  0  7G 3G 6G17G21G22G23G26
  -1556325.95345  -1112529.40844  24796604.3514   24796607.9374
       911.7034        710.4184
   7640791.10146   5944456.55046  22551303.5464   22551306.6044
     -5093.5944      -3969.0344
   3660526.63347   2852359.83647  21557607.3744   21557610.4684
     -2695.5624      -2100.4384
  -1395915.13546  -1064306.45345  23782951.6634   23782956.4684
       119.6564         93.2394
   4866047.77245   3791724.03845  24321758.9444   24321764.2064
     -3605.6874      -2809.6274
   1265814.99147    988694.25546  21719404.7964   21719406.9764
     -1543.8914      -1203.0324
   4184273.05646   3066419.26545  23224032.7334   23224036.1084
     -3351.9694      -2611.9244
 98  7  8 20 44 45.0030000  0  7G 3G 6G17G21G22G23G26
  -1569959.63345  -1123153.00444  24794009.1714   24794014.0934
       906.4534        706.3274
   7717271.74146   6004051.82646  22565857.6324   22565860.7144
     -5103.5164      -3976.7654
   3701018.44047   2883911.89647  21565312.6324   21565315.7494
     -2702.9844      -2106.2224
  -1397657.58946  -1065664.16145  23782620.4764   23782625.5624
       113.0314         88.0764
   4920214.86545   3833932.12945  24332066.8904   24332071.8354
     -3616.1724      -2817.7964
   1289048.57147   1006798.36046  21723826.0224   21723828.1554
     -1553.5944      -1210.5934
   4234652.07746   3105675.63145  23233619.5384   23233622.3744
     -3364.9064      -2622.0054
 98  7  8 20 45  0.0030000  0  7G 3G 6G17G21G22G23G26
  -1583526.74545  -1133724.70043  24791427.5154   24791432.4254
       902.4224        703.1864
   7793889.90846   6063754.26046  22580437.2494   22580440.5774
     -5112.2664      -3983.5844
   3741609.19247   2915541.05747  21573036.6794   21573039.7844
     -2709.2034      -2111.0674
  -1399313.60746  -1066954.51045  23782305.2184   23782309.6714
       107.7034         83.9254
   4974526.08345   3876252.53845  24342402.0544   24342407.2224
     -3625.4064      -2824.9924
   1312416.43747   1025007.10246  21728272.6794   21728274.9404
     -1562.2194      -1217.3134
   4285214.58646   3145074.99245  23243241.4294   23243244.5814
     -3376.7974      -2631.2704
 98  7  8 20 45 15.0030000  0  7G 3G 6G17G21G22G23G26
  -1597032.04745  -1144248.25244  24788857.6164   24788861.0264
       898.4694        700.1064
   7870637.71946   6123557.71646  22595041.9524   22595045.2804
     -5120.6094      -3990.0854
   3782294.16347   2947243.63847  21580778.8044   21580781.7454
     -2715.2974      -2115.8164
  -1400887.79946  -1068181.09245  23782005.4604   23782010.3704
       102.3594         79.7614
   5028976.44445   3918681.37245  24352763.8664   24352769.7264
     -3634.4374      -2832.0294
   1335915.72447   1043318.24646  21732744.6084   21732746.9174
     -1570.8754      -1224.0584
   4335955.79446   3184613.58945  23252896.9684   23252900.2374
     -3388.5004      -2640.3904
 98  7  8 20 45 30.0030000  0  7G 3G 6G17G21G22G23G26
  -1610477.73145  -1154725.36143  24786298.9524   24786303.2064
       894.3134        696.8674
   7947510.55446   6183458.58846  22609670.4994   22609674.0384
     -5129.0164      -3996.6364
   3823071.03147   2979017.82647  21588538.4294   21588541.4764
     -2721.5474      -2120.6864
  -1402380.77646  -1069344.40445  23781720.9444   23781726.1474
        96.7974         75.4264
   5083560.95945   3961214.74145  24363150.8124   24363155.4874
     -3643.3594      -2838.9814
   1359543.56547   1061729.57046  21737240.7574   21737243.0194
     -1579.3594      -1230.6704
   4386872.89146   3224289.23945  23262586.2264   23262589.5774
     -3400.2974      -2649.5824
 98  7  8 20 45 45.0030000  0  7G 3G 6G17G21G22G23G26
  -1623858.87445  -1165152.15243  24783752.2654   24783757.1404
       889.7504        693.3124
   8024508.74346   6243457.13446  22624322.9604   22624326.4644
     -5137.4694      -4003.2224
   3863941.50847   3010864.95647  21596315.7264   21596318.7964
     -2727.9224      -2125.6534
  -1403789.83446  -1070442.31845  23781453.1554   23781458.3124
        90.9694         70.8854
   5138276.85745   4003850.46345  24373562.7724   24373568.1164
     -3652.1254      -2845.8124
   1383297.07847   1080238.81546  21741760.9444   21741763.1364
     -1587.8754      -1237.3054
   4437965.39446   3264101.57845  23272308.8194   23272312.0654
     -3412.1414      -2658.8114
 98  7  8 20 46  0.0030000  0  7G 3G 6G17G21G22G23G26
  -1637173.38445  -1175527.02244  24781218.2574   24781221.8314
       885.4064        689.9274
   8101628.65046   6303550.54146  22638998.0624   22639001.7064
     -5145.2664      -4009.2984
   3904903.48747   3042783.38847  21604110.5774   21604113.6124
     -2733.7504      -2130.1954
  -1405113.92646  -1071474.02145  23781200.7724   23781205.9874
        85.4384         66.5754
   5193119.79845   4046585.18945  24383998.6944   24384004.3664
     -3660.3754      -2852.2404
   1407176.31347   1098846.02846  21746304.7414   21746307.0264
     -1596.1254      -1243.7344
   4489230.89846   3304048.72245  23282064.4444   23282067.6554
     -3423.3284      -2667.5284
 98  7  8 20 46 15.0030000  0  7G 3G 6G17G21G22G23G26
  -1650419.80245  -1185848.81843  24778697.0384   24778701.6444
       880.7814        686.3234
   8178865.07846   6363734.73646  22653695.7024   22653699.0654
     -5152.8914      -4015.2394
   3945954.47747   3074771.18147  21611922.3354   21611925.4174
     -2739.7344      -2134.8584
  -1406351.76146  -1072438.51945  23780965.2884   23780970.3744
        79.6254         62.0454
   5248087.15645   4089416.88445  24394459.5074   24394465.3784
     -3668.6094      -2858.6574
   1431180.69847   1117550.76047  21750872.8354   21750875.1444
     -1604.4534      -1250.2234
   4540664.36046   3344126.74045  23291851.9444   23291855.2494
     -3434.3914      -2676.1494
 98  7  8 20 46 30.0030000  0  7G 3G 6G17G21G22G23G26
  -1663601.42745  -1196120.21143  24776189.2804   24776195.0344
       876.5634        683.0364
   8256210.30646   6424003.71046  22668414.2964   22668417.6244
     -5160.0004      -4020.7794
   3987091.48447   3106825.99747  21619750.2104   21619753.0114
     -2745.3124      -2139.2054
  -1407506.08546  -1073337.93545  23780745.5624   23780750.1084
        74.0634         57.7114
   5303172.97745   4132340.86645  24404941.6714   24404947.3314
     -3676.3444      -2864.6834
   1455305.06647   1136348.98346  21755463.3974   21755465.9404
     -1612.2814      -1256.3234
   4592259.82646   3384330.99345  23301670.1014   23301673.3944
     -3445.1724      -2684.5504
 98  7  8 20 46 45.0030000  0  7G 3G 6G17G21G22G23G26
  -1676719.29045  -1206341.83043  24773693.2884   24773698.6554
       872.2504        679.6754
   8333662.28946   6484355.87846  22683152.7804   22683156.4954
     -5167.1724      -4026.3684
   4028309.75847   3138944.13847  21627594.1014   21627597.0304
     -2750.6874      -2143.3934
  -1408575.72946  -1074171.37345  23780542.4914   23780547.8944
        68.2974         53.2184
   5358373.15245   4175353.95345  24415445.8434   24415451.5854
     -3683.9694      -2870.6254
   1479545.99447   1155238.03346  21760076.4214   21760078.9054
     -1620.0784      -1262.3994
   4644017.68046   3424661.77945  23311519.5384   23311523.1594
     -3456.1254      -2693.0844
 98  7  8 20 47  0.0030000  0  7G 3G 6G17G21G22G23G26
  -1689769.70045  -1216510.93143  24771209.4054   24771213.9764
       867.8134        676.2184
   8411224.81346   6544794.17146  22697912.2654   22697915.6164
     -5174.4844      -4032.0664
   4069611.63547   3171127.42647  21635453.6244   21635456.6364
     -2756.2344      -2147.7154
  -1409552.90746  -1074932.76545  23780356.6474   23780361.5694
        61.8754         48.2144
   5413693.10545   4218460.38145  24425973.2264   24425978.4524
     -3692.0944      -2876.9564
   1503906.83747   1174220.52646  21764711.9914   21764714.3704
     -1628.0474      -1268.6084
   4695942.70046   3465122.83245  23321400.1324   23321403.8234
     -3467.2194      -2701.7294
 98  7  8 20 47 15.0030000  0  7G 3G 6G17G21G22G23G26
  -1702758.02945  -1226631.66744  24768737.6404   24768743.3474
       863.5634        672.9064
   8488891.33546   6605313.50646  22712691.7654   22712695.0934
     -5181.4374      -4037.4844
   4110992.11247   3203371.96147  21643328.0154   21643331.0154
     -2761.5624      -2151.8674
  -1410436.36046  -1075621.10945  23780188.3044   23780192.9094
        55.5314         43.2714
   5469131.36745   4261659.02045  24436522.6944   24436528.0734
     -3700.0164      -2883.1294
   1528383.17447   1193293.01746  21769369.8354   21769372.0854
     -1635.8284      -1274.6714
   4748029.21046   3505709.71045  23331312.0854   23331315.6834
     -3477.9374      -2710.0814
 98  7  8 20 47 30.0030000  0  7G 3G 6G17G21G22G23G26
  -1715683.45945  -1236703.33543  24766278.5774   24766284.2374
       859.7974        669.9724
   8566661.51446   6665913.61946  22727490.9444   22727494.7534
     -5188.0164      -4042.6104
   4152451.54547   3235678.02047  21651217.5544   21651220.4954
     -2766.4064      -2155.6414
  -1411226.86446  -1076237.05645  23780037.8194   23780043.0464
        49.8284         38.8274
   5524685.40645   4304947.84945  24447094.3664   24447099.3234
     -3707.2504      -2888.7664
   1552974.67047   1212455.24046  21774049.5224   21774051.8084
     -1643.1254      -1280.3574
   4800273.96546   3546419.90545  23341253.9294   23341257.2804
     -3488.0314      -2717.9464
 98  7  8 20 47 45.0030000  0  7G 3G 6G17G21G22G23G26
  -1728551.79745  -1246730.57643  24763829.2024   24763835.0384
       855.7974        666.8554
   8644531.24046   6726591.28846  22742309.4604   22742313.2694
     -5194.7504      -4047.8574
   4193984.37647   3268041.27347  21659121.1164   21659123.9404
     -2771.4064      -2159.5374
  -1411931.91846  -1076786.38745  23779903.5384   23779908.6124
        44.0474         34.3224
   5580349.25445   4348322.25145  24457686.8124   24457691.0654
     -3714.7814      -2894.6354
   1577676.42947   1231703.37846  21778749.9834   21778752.2804
     -1650.6414      -1286.2134
   4852670.06946   3587248.03745  23351224.7724   23351227.9484
     -3498.2344      -2725.8974
 98  7  8 20 48  0.0030000  0  7G 3G 6G17G21G22G23G26
  -1741361.85144  -1256712.35943  24761391.9294   24761398.1404
       852.3594        664.1764
   8722500.82446   6787346.77246  22757146.3744   22757150.3234
     -5201.0314      -4052.7524
   4235589.20947   3300460.63247  21667037.9834   21667040.7494
     -2775.7194      -2162.8984
  -1412553.16746  -1077270.43545  23779785.2964   23779790.3584
        38.9694         30.3654
   5636126.16745   4391784.77045  24468301.1324   24468306.5344
     -3722.0474      -2900.2964
   1602492.32947   1251040.46446  21783472.3194   21783474.5344
     -1658.0624      -1291.9974
   4905218.04446   3628194.50445  23361224.3744   23361227.3974
     -3508.0314      -2733.5314
 98  7  8 20 48 15.0030000  0  7G 3G 6G17G21G22G23G26
  -1754120.84145  -1266654.39144  24758963.4214   24758968.1904
       848.6414        661.2784
   8800565.08746   6848176.03846  22772001.6794   22772005.7224
     -5207.7974      -4058.0244
   4277256.73747   3332928.84247  21674967.2574   21674969.9644
     -2780.1874      -2166.3804
  -1413100.85546  -1077697.15045  23779680.8354   23779685.0194
        33.8594         26.3844
   5692014.40745   4435334.02745  24478936.4054   24478941.5624
     -3729.9844      -2906.4814
   1627420.75747   1270465.22846  21788215.9764   21788218.2964
     -1665.9374      -1298.1334
   4957913.34646   3669255.77645  23371251.4764   23371254.6164
     -3518.2974      -2741.5304
 98  7  8 20 48 30.0030000  0  7G 3G 6G17G21G22G23G26
  -1766820.82945  -1276550.42943  24756546.9294   24756552.8474
       844.7194        658.2224
   8878735.24346   6909087.81046  22786876.7184   22786880.8664
     -5214.9374      -4063.5884
   4318994.32947   3365451.64947  21682909.6404   21682912.4874
     -2784.7974      -2169.9724
  -1413570.30446  -1078062.89745  23779591.9214   23779595.9524
        28.7814         22.4274
   5748025.13545   4478978.72445  24489594.7184   24489599.9334
     -3738.1414      -2912.8374
   1652469.26047   1289983.56146  21792982.6474   21792984.9564
     -1673.8594      -1304.3064
   5010767.30746   3710440.67345  23381309.4214   23381312.7024
     -3528.9064      -2749.7974
 98  7  8 20 48 45.0030000  0  7G 3G 6G17G21G22G23G26
  -1779474.06845  -1286410.06044  24754139.3904   24754143.7264
       842.4844        656.4814
   8957003.14046   6970075.74246  22801770.7964   22801774.9914
     -5220.6564      -4068.0444
   4360788.69647   3398018.69447  21690862.8124   21690865.6244
     -2787.6414      -2172.1874
  -1413976.13546  -1078379.07545  23779514.2104   23779518.3944
        25.4694         19.8464
   5804146.51545   4522709.63845  24500273.9294   24500279.4134
     -3744.5624      -2917.8414
   1677624.90947   1309585.38446  21797769.4914   21797771.6014
     -1680.1094      -1309.1764
   5063769.07346   3751740.74045  23391395.3664   23391398.4954
     -3537.8594      -2756.7744
 98  7  8 20 49  0.0030000  0  7G 3G 6G17G21G22G23G26
  -1792088.41845  -1296239.34844  24751738.6714   24751743.9334
       838.8914        653.6814
   9035362.07946   7031134.61746  22816681.7804   22816685.8004
     -5227.7194      -4073.5474
   4402631.13047   3430623.19847  21698825.1324   21698828.0974
     -2791.9064      -2175.5114
  -1414327.04546  -1078652.46445  23779447.7184   23779452.6634
        20.8284         16.2304
   5860369.50045   4566519.73845  24510973.1944   24510979.2654
     -3752.3914      -2923.9414
   1702881.08447   1329265.53446  21802575.6014   21802577.8274
     -1687.9224      -1315.2644
   5116910.12346   3793149.35845  23401507.6714   23401510.6124
     -3548.1254      -2764.7734
 98  7  8 20 49 15.0030000  0  7G 3G 6G17G21G22G23G26
  -1804646.27945  -1306024.62244  24749348.6084   24749354.8434
       835.4384        650.9904
   9113829.89046   7092278.33346  22831614.1474   22831618.1084
     -5234.7194      -4079.0024
   4444541.47147   3463280.61447  21706800.4994   21706803.3824
     -2796.2034      -2178.8604
  -1414605.80846  -1078869.62945  23779394.1084   23779398.6204
        16.3594         12.7484
   5916712.32945   4610423.21345  24521694.7804   24521700.6044
     -3760.0164      -2929.8824
   1728257.93947   1349039.72646  21807404.8434   21807407.2804
     -1695.6874      -1321.3154
   5170207.47246   3834679.75545  23411649.9444   23411652.5344
     -3558.2344      -2772.6504
 98  7  8 20 49 30.0030000  0  7G 3G 6G17G21G22G23G26
  -1817150.39845  -1315768.03344  24746969.8514   24746975.3944
       831.8444        648.1904
   9192404.78946   7153505.49446  22846566.3824   22846570.4604
     -5241.8594      -4084.5664
   4486518.90147   3495990.30947  21714788.5934   21714791.4404
     -2800.7034      -2182.3664
  -1414818.91546  -1079035.64345  23779353.8514   23779358.5384
        12.1094          9.4364
   5973169.54145   4654415.81445  24532438.3664   24532443.7924
     -3767.5784      -2935.7754
   1753752.05647   1368905.28546  21812255.9134   21812258.1634
     -1703.4224      -1327.3424
   5223657.62746   3876329.21445  23421821.3514   23421824.3044
     -3568.4064      -2780.5764
 98  7  8 20 49 45.0030000  0  7G 3G 6G17G21G22G23G26
  -1829600.79345  -1325469.61044  24744600.3664   24744605.8394
       828.4064        645.5114
   9271086.38846   7214815.79846  22861538.7334   22861542.4374
     -5248.7974      -4089.9724
   4528562.93147   3528751.90247  21722789.2024   21722792.0504
     -2804.9694      -2185.6904
  -1414968.56346  -1079152.18945  23779325.6014   23779330.1594
         7.9694          6.2094
   6029741.87245   4698498.11945  24543203.5384   24543208.5894
     -3775.2974      -2941.7904
   1779360.31547   1388859.79246  21817128.8904   21817131.2224
     -1710.7814      -1333.0764
   5277261.46546   3918098.44045  23432021.6554   23432024.8664
     -3578.5624      -2788.4904
 98  7  8 20 50  0.0030000  0  7G 3G 6G17G21G22G23G26
  -1842000.09445  -1335131.31844  24742240.5384   24742246.1284
       824.5004        642.4684
   9349869.51646   7276205.20846  22876531.0464   22876534.8314
     -5255.9374      -4095.5364
   4570669.24447   3561562.02447  21730801.8274   21730804.6044
     -2809.5004      -2189.2214
  -1415055.69546  -1079220.03145  23779308.5304   23779313.3124
         3.3284          2.5934
   6086429.72945   4742670.45845  24553990.9444   24553997.0264
     -3783.3914      -2948.0974
   1805075.66247   1408897.73646  21822022.6324   21822025.1164
     -1718.2664      -1338.9084
   5331017.44046   3959986.21645  23442251.0694   23442254.4444
     -3589.2034      -2796.7824
 98  7  8 20 50 15.0030000  0  7G 3G 6G17G21G22G23G26
  -1854342.18345  -1344748.50144  24739892.1634   24739896.0654
       820.8594        639.6314
   9428758.76646   7337677.31446  22891542.8904   22891546.7454
     -5262.8914      -4100.9544
   4612842.17047   3594424.05147  21738826.9054   21738829.8944
     -2813.8444      -2192.6064
  -1415073.79946  -1079234.07845  23779305.3824   23779309.8824
        -1.2034         -0.9374
   6143236.85645   4786935.72545  24564801.1404   24564805.6754
     -3791.1254      -2954.1234
   1830902.11247   1429022.25946  21826936.9994   21826939.5304
     -1725.4374      -1344.4974
   5384931.89846   4001997.48545  23452510.5544   23452513.8584
     -3599.7194      -2804.9764
 98  7  8 20 50 30.0030000  0  7G 3G 6G17G21G22G23G26
  -1866630.39345  -1354323.65344  24737553.5624   24737558.5894
       817.5634        637.0624
   9507751.53446   7399230.08746  22906574.8974   22906578.7294
     -5269.4694      -4106.0804
   4655081.84647   3627338.09747  21746865.1244   21746868.0654
     -2818.1414      -2195.9544
  -1415023.80046  -1079195.06045  23779314.8904   23779320.0464
        -5.5164         -4.2984
   6200157.62845   4831289.54145  24575632.6874   24575637.9254
     -3798.2814      -2959.7004
   1856831.63947   1449227.09946  21831870.9444   21831873.4994
     -1731.7814      -1349.4404
   5439004.39546   4044131.89845  23462799.9374   23462803.4764
     -3609.9694      -2812.9634
 98  7  8 20 50 45.0030000  0  7G 3G 6G17G21G22G23G26
  -1878862.44545  -1363855.07644  24735226.1084   24735230.3974
       813.6564        634.0184
   9586848.10546   7460863.74846  22921626.7884   22921630.6084
     -5276.4534      -4111.5224
   4697393.72847   3660308.40047  21754916.6164   21754919.3704
     -2823.1254      -2199.8384
  -1414900.80146  -1079099.18145  23779338.1794   23779343.2294
       -10.6564         -8.3044
   6257190.77045   4875730.94145  24586485.3044   24586490.6944
     -3805.8594      -2965.6054
   1882861.62247   1469510.21846  21836824.4294   21836827.0654
     -1738.6414      -1354.7854
   5493236.15946   4086390.41545  23473120.2724   23473123.8944
     -3620.6564      -2821.2914
 98  7  8 20 51  0.0030000  0  7G 3G 6G17G21G22G23G26
  -1891043.21245  -1373346.51544  24732907.8824   24732913.0974
       810.3594        631.4494
   9666041.45046   7522572.80646  22936696.7494   22936700.5114
     -5282.6724      -4116.3684
   4739772.14147   3693330.54447  21762980.8514   21762983.8274
     -2827.4064      -2203.1744
  -1414705.89846  -1078947.25045  23779375.2494   23779380.3234
       -15.4374        -12.0294
   6314329.21745   4920254.36045  24597359.0304   24597364.3624
     -3812.6874      -2970.9254
   1908988.84247   1489869.10746  21841796.3354   21841798.9374
     -1745.0624      -1359.7894
   5547622.88746   4128769.68345  23483469.9604   23483473.8394
     -3630.8914      -2829.2654
 98  7  8 20 51 15.0030000  0  7G 3G 6G17G21G22G23G26
  -1903170.67145  -1382796.43744  24730600.0154   24730605.3944
       806.6564        628.5634
   9745330.93646   7584356.78346  22951784.7184   22951788.9834
     -5289.2504      -4121.4944
   4782218.51447   3726405.64747  21771058.1084   21771060.9794
     -2832.0624      -2206.8024
  -1414436.42646  -1078737.22145  23779426.1474   23779430.5654
       -20.4224        -15.9134
   6371574.78245   4964861.27445  24608253.2024   24608258.7924
     -3820.0004      -2976.6234
   1935215.65947   1510305.60846  21846787.0694   21846789.5894
     -1751.7344      -1364.9884
   5602165.37746   4171270.32945  23493849.0154   23493852.5654
     -3641.3754      -2837.4354
 98  7  8 20 51 30.0030000  0  7G 3G 6G17G21G22G23G26
  -1915241.23545  -1392202.02644  24728302.9834   24728307.2494
       802.8284        625.5804
   9824721.45146   7646219.48446  22966892.2654   22966896.2264
     -5296.0624      -4126.8024
   4824735.61747   3759535.86347  21779148.8744   21779151.9444
     -2836.7504      -2210.4554
  -1414092.16046  -1078468.91045  23779491.8974   23779496.7024
       -25.3444        -19.7484
   6428931.00845   5009554.39845  24619167.1554   24619171.7374
     -3827.4064      -2982.3944
   1961541.51447   1530819.27146  21851796.8434   21851799.3864
     -1758.2664      -1370.0774
   5656864.94446   4213893.36945  23504257.7024   23504261.4994
     -3651.7974      -2845.5564
 98  7  8 20 51 45.0030000  0  7G 3G 6G17G21G22G23G26
  -1927250.09445  -1401559.50044  24726017.8434   24726022.6364
       797.9694        621.7944
   9904215.71346   7708163.03446  22982019.5934   22982023.5654
     -5303.5314      -4132.6224
   4867323.13547   3792720.95247  21787253.1634   21787256.2104
     -2841.8914      -2214.4604
  -1413673.08446  -1078142.30245  23779571.5384   23779575.9794
       -30.9064        -24.0834
   6486400.44645   5054335.76145  24630103.1714   24630108.2104
     -3835.5474      -2988.7384
   1987968.20647   1551411.52046  21856825.4834   21856828.1904
     -1765.7194      -1375.8854
   5711724.47046   4256641.05345  23514697.3514   23514700.6554
     -3663.1724      -2854.4204
 98  7  8 20 52  0.0030000  0  7G 3G 6G17G21G22G23G26
  -1939187.20545  -1410861.07544  24723746.4834   24723751.3004
       793.7974        618.5434
   9983820.16846   7770192.43946  22997168.0544   22997171.6634
     -5310.3124      -4137.9064
   4909985.18547   3825964.11247  21795371.5694   21795374.6404
     -2846.2974      -2217.8944
  -1413171.94546  -1077751.75445  23779667.2494   23779671.7964
       -35.7814        -27.8814
   6543989.93645   5099210.65045  24641062.2724   24641066.3624
     -3842.9064      -2994.4724
   2014506.86747   1572091.00646  21861875.7334   21861878.3234
     -1772.7034      -1381.3274
   5766752.97446   4299520.42045  23525169.1014   23525172.3474
     -3673.7974      -2862.6994
 98  7  8 20 52 15.0030000  0  7G 3G 6G17G21G22G23G26
  -1951061.55645  -1420113.77144  24721486.6474   24721492.0384
       789.5164        615.2074
  10063529.73246   7832303.74946  23012336.1634   23012339.8904
     -5317.6254      -4143.6044
   4952717.08947   3859261.70647  21803503.0544   21803506.1834
     -2851.2814      -2221.7784
  -1412596.88246  -1077303.61045  23779776.3974   23779780.9914
       -40.8444        -31.8264
   6601690.10545   5144171.80045  24652042.1404   24652047.1904
     -3850.4224      -3000.3294
   2041154.47047   1592855.38246  21866946.5694   21866949.1014
     -1780.3284      -1387.2694
   5821943.02646   4342525.64445  23535671.3354   23535674.9214
     -3684.7974      -2871.2704
 98  7  8 20 52 30.0030000  0  7G 3G 6G17G21G22G23G26
  -1962868.97345  -1429314.27944  24719239.6244   24719245.3784
       784.8914        611.6034
  10143354.43746   7894504.77746  23027526.5544   23027529.8234
     -5325.5944      -4149.8134
   4995529.12047   3892621.73847  21811650.0154   21811653.2024
     -2856.9064      -2226.1614
  -1411941.55746  -1076792.91445  23779901.2264   23779905.7024
       -46.4374        -36.1854
   6659508.53145   5189225.10645  24663044.8354   24663050.8584
     -3858.6094      -3006.7094
   2067921.33947   1613712.69846  21872040.3124   21872042.8434
     -1788.4694      -1393.6124
   5877301.81246   4385662.36945  23546205.6084   23546208.8084
     -3696.2664      -2880.2074
 98  7  8 20 52 45.0030000  0  7G 3G 6G17G21G22G23G26
  -1974615.45445  -1438467.32344  24717004.2104   24717009.3314
       781.4534        608.9254
  10223290.21746   7956792.37146  23042738.0544   23042741.6164
     -5332.2974      -4155.0374
   5038416.97747   3926040.85847  21819811.1244   21819814.0894
     -2861.2664      -2229.5584
  -1411210.25446  -1076223.02345  23780039.9994   23780044.4294
       -50.9224        -39.6794
   6717441.94345   5234368.00045  24674068.7654   24674074.2264
     -3865.6724      -3012.2124
   2094803.01547   1634659.47546  21877155.6324   21877157.9404
     -1795.6724      -1399.2254
   5932822.78646   4428925.47245  23556771.3664   23556774.6244
     -3706.3124      -2888.0364
 98  7  8 20 53  0.0030000  0  7G 3G 6G17G21G22G23G26
  -1986308.50445  -1447578.72644  24714779.4214   24714783.5224
       777.5784        605.9054
  10303327.59346   8019159.12246  23057968.6554   23057971.9834
     -5339.3914      -4160.5644
   5081370.55047   3959511.17247  21827984.8354   21827987.8124
     -2865.8594      -2233.1374
  -1410410.01446  -1075599.41345  23780192.2414   23780196.6014
       -55.7814        -43.4664
   6775482.52945   5279594.37145  24685113.2414   24685119.3944
     -3873.0944      -3017.9954
   2121797.75247   1655694.35146  21882292.5464   21882294.8904
     -1803.6874      -1405.4714
   5988495.40746   4472306.72845  23567365.1324   23567368.1794
     -3716.7034      -2896.1324
 98  7  8 20 53 15.0030000  0  7G 3G 6G17G21G22G23G26
  -1997944.65945  -1456645.77844  24712565.5854   24712569.4174
       773.5784        602.7884
  10383472.24846   8081609.45946  23073219.5304   23073222.8474
     -5346.9374      -4166.4454
   5124393.04347   3993035.20747  21836171.9054   21836174.9764
     -2870.8594      -2237.0334
  -1409537.86346  -1074919.75945  23780358.4994   23780362.6834
       -60.7974        -47.3744
   6833633.61445   5324906.88445  24696178.8824   24696183.0194
     -3880.8124      -3024.0104
   2148912.56947   1676822.79546  21887452.5154   21887454.9874
     -1811.9224      -1411.8874
   6044322.43546   4515808.31645  23577988.7184   23577991.7294
     -3727.1724      -2904.2904
 98  7  8 20 53 30.0030000  0  7G 3G 6G17G21G22G23G26
  -2009524.91945  -1465669.31944  24710361.3744   24710365.8274
       770.1884        600.1464
  10463727.31146   8144145.83746  23088491.8354   23088494.9994
     -5354.0004      -4171.9484
   5167488.30747   4026615.93747  21844372.7494   21844375.6204
     -2875.4694      -2240.6254
  -1408595.23446  -1074185.20045  23780537.9604   23780542.2964
       -65.2034        -50.8084
   6891898.59245   5370308.13545  24707267.0934   24707271.2414
     -3888.1094      -3029.6964
   2176146.25247   1698043.86546  21892634.8274   21892637.1834
     -1819.5314      -1417.8174
   6100302.49746   4559429.14845  23588641.1714   23588643.8194
     -3737.1094      -2912.0334
 98  7  8 20 53 45.0040000  0  7G 3G 6G17G21G22G23G26
  -2021054.25245  -1474653.14144  24708166.9964   24708171.6254
       767.1414        597.7724
  10544093.01946   8206768.43146  23103785.0204   23103788.2074
     -5360.4064      -4176.9404
   5210657.36847   4060254.17347  21852587.5514   21852590.4344
     -2879.7814      -2243.9854
  -1407583.30846  -1073396.64645  23780730.0514   23780734.2934
       -69.4694        -54.1314
   6950277.43645   5415798.11445  24718376.0354   24718380.7584
     -3894.9694      -3035.0414
   2203498.88947   1719357.62246  21897839.5824   21897842.1024
     -1827.0004      -1423.6364
   6156436.60246   4603170.01345  23599323.1294   23599326.2234
     -3746.7194      -2919.5214
 98  7  8 20 54  0.0040000  0  7G 3G 6G17G21G22G23G26
  -2032532.57745  -1483597.21844  24705982.7384   24705987.8124
       763.4694        594.9114
  10624550.54746   8269462.56746  23119095.6054   23119098.7934
     -5367.1414      -4182.1874
   5253891.86747   4093943.39447  21860814.7854   21860817.6804
     -2884.7504      -2247.8574
  -1406503.35846  -1072555.07845  23780935.8484   23780940.2664
       -74.4534        -58.0154
   7008758.30745   5461367.60244  24729504.5664   24729510.0394
     -3902.3914      -3040.8244
   2230965.42647   1740760.13246  21903066.4654   21903068.9614
     -1835.0624      -1429.9194
   6212714.37946   4647022.81945  23610032.5984   23610035.9264
     -3756.8124      -2927.3864
 98  7  8 20 54 15.0040000  0  7G 3G 6G17G21G22G23G26
  -2043963.13445  -1492504.08745  24703807.9654   24703813.0274
       760.6564        592.7194
  10705103.76046   8332231.27146  23134424.0514   23134427.2974
     -5373.2344      -4186.9364
   5297197.50547   4127688.05147  21869055.4264   21869058.4024
     -2889.3284      -2251.4254
  -1405353.17246  -1071658.78946  23781154.4804   23781158.4774
       -78.8444        -61.4374
   7067345.50445   5507019.93745  24740653.5744   24740659.2114
     -3909.1874      -3046.1204
   2258545.39247   1762251.03446  21908314.6054   21908316.9494
     -1842.1874      -1435.4714
   6269136.11046   4690987.81245  23620769.2774   23620772.8404
     -3766.0004      -2934.5454
 98  7  8 20 54 30.0040000  0  7G 3G 6G17G21G22G23G26
  -2055345.32345  -1501373.27345  24701641.9654   24701646.0314
       756.9844        589.8584
  10785752.31246   8395074.26646  23149771.1764   23149774.1294
     -5379.8124      -4192.0624
   5340576.31347   4161489.72147  21877309.9734   21877312.8324
     -2894.3594      -2255.3454
  -1404131.46046  -1070706.75746  23781387.0904   23781390.7234
       -84.0164        -65.4674
   7126038.76745   5552754.90645  24751822.6524   24751827.7504
     -3916.5314      -3051.8434
   2286234.89547   1783827.28146  21913583.7854   21913586.3284
     -1849.6094      -1441.2544
   6325699.90746   4735063.50345  23631532.9344   23631536.0744
     -3775.6724      -2942.0824
 98  7  8 20 54 45.0040000  0  7G 3G 6G17G21G22G23G26
  -2066676.12345  -1510202.39645  24699485.6844   24699490.7814
       753.6094        587.2284
  10866492.46146   8457988.61846  23165135.4574   23165138.9734
     -5385.6254      -4196.5914
   5384022.25747   4195343.70547  21885577.6914   21885580.4224
     -2898.5314      -2258.5964
  -1402837.83546  -1069698.68745  23781632.9494   23781636.7114
       -88.5944        -69.0344
   7184833.98345   5598569.30044  24763011.4184   24763017.3244
     -3922.9694      -3056.8594
   2314027.77147   1805484.08246  21918872.4734   21918875.0624
     -1856.2504      -1446.4294
   6382400.92846   4779246.12145  23642322.7234   23642326.3444
     -3784.6094      -2949.0464
 98  7  8 20 55  0.0040000  0  7G 3G 6G17G21G22G23G26
  -2077948.13845  -1518985.73145  24697340.6524   24697346.4064
       749.1414        583.7464
  10947324.97646   8520974.94946  23180517.6214   23180521.1724
     -5392.2194      -4201.7294
   5427537.34047   4229251.56647  21893858.5514   21893861.3404
     -2903.6564      -2262.5894
  -1401468.40746  -1068631.55245  23781893.7544   23781897.8914
       -94.0944        -73.3204
   7243731.88845   5644463.76945  24774218.7464   24774224.2664
     -3930.2194      -3062.5084
   2341927.99647   1827224.53246  21924181.7704   21924184.3014
     -1863.9224      -1452.4074
   6439242.07046   4823537.92445  23653139.6054   23653142.5594
     -3794.4064      -2956.6804
 98  7  8 20 55 15.0040000  0  7G 3G 6G17G21G22G23G26
  -2089157.14845  -1527719.96345  24695207.6604   24695212.7814
       745.4694        580.8854
  11028251.44746   8584034.50346  23195917.3874   23195920.9144
     -5397.9534      -4206.1974
   5471124.32347   4263215.45147  21902152.8094   21902155.3634
     -2907.8914      -2265.8894
  -1400023.61046  -1067505.69345  23782168.4884   23782172.8484
       -98.4694        -76.7294
   7302733.81845   5690439.26144  24785446.8714   24785452.1914
     -3936.7034      -3067.5614
   2369936.09347   1849049.03946  21929511.6454   21929514.3164
     -1870.4224      -1457.4724
   6496225.12846   4867940.32045  23663982.7234   23663986.0044
     -3803.3124      -2963.6204
 98  7  8 20 55 30.0040000  0  7G 3G 6G17G21G22G23G26
  -2100307.50345  -1536408.49045  24693085.7624   24693091.5274
       741.1884        577.5494
  11109267.39246   8647163.76746  23211334.1454   23211337.5904
     -5404.1254      -4211.0064
   5514778.62447   4297231.79047  21910459.7624   21910462.5044
     -2912.7034      -2269.6394
  -1398510.54546  -1066326.63245  23782456.5744   23782461.1914
      -103.3124        -80.5034
   7361837.57345   5736494.07944  24796693.6524   24796698.9024
     -3943.8444      -3073.1254
   2398044.27847   1870951.53346  21934860.4344   21934862.9654
     -1877.3594      -1462.8774
   6553346.11946   4912450.19245  23674852.6604   23674856.1054
     -3812.8754      -2971.0714
 98  7  8 20 55 45.0040000  0  7G 3G 6G17G21G22G23G26
  -2111392.17845  -1545045.83845  24690975.8484   24690982.0594
       736.6414        574.0064
  11190372.54446   8710362.54046  23226767.8554   23226771.6174
     -5409.9694      -4215.5604
   5558502.95147   4331302.69247  21918780.3794   21918783.1334
     -2917.2034      -2273.1454
  -1396925.34346  -1065091.35845  23782758.2154   23782762.7034
      -108.1724        -84.2904
   7421046.38545   5782630.80545  24807960.6844   24807966.2854
     -3950.7034      -3078.4704
   2426255.95547   1892934.67646  21940229.0124   21940231.7544
     -1884.2814      -1468.2714
   6610610.85646   4957072.06445  23685749.4574   23685753.4304
     -3822.4844      -2978.5594
 98  7  8 20 56  0.0040000  0  7G 3G 6G17G21G22G23G26
  -2122409.67045  -1553630.84245  24688879.6684   24688884.5904
       732.3444        570.6574
  11271563.74546   8773628.36146  23242218.0274   23242222.2814
     -5415.6254      -4219.9684
   5602291.79547   4365423.87347  21927113.2074   21927115.9374
     -2921.3284      -2276.3604
  -1395268.88346  -1063800.56346  23783073.4344   23783077.9574
      -112.6874        -87.8084
   7480355.69245   5828845.80545  24819247.1134   24819251.6024
     -3957.2344      -3083.5594
   2454568.74747   1914996.60446  21945616.5664   21945619.0864
     -1890.7504      -1473.3124
   6668018.75446   5001805.50945  23696674.1994   23696677.5164
     -3831.8914      -2985.8894
 98  7  8 20 56 15.0040000  0  7G 3G 6G17G21G22G23G26
  -2133367.75845  -1562169.55845  24686793.7934   24686798.5864
       728.6564        567.7844
  11352837.85346   8836958.79546  23257684.1914   23257688.0824
     -5421.0314      -4224.1804
   5646138.74747   4399590.32747  21935456.7854   21935459.5514
     -2925.0474      -2279.2574
  -1393548.07746  -1062459.63145  23783400.8244   23783405.0554
      -116.8914        -91.0844
   7539760.98145   5875135.60745  24830551.1524   24830556.7424
     -3963.5624      -3088.4904
   2482974.92247   1937131.30146  21951022.2774   21951024.5044
     -1896.8444      -1478.0604
   6725564.55946   5046646.40245  23707624.7934   23707628.0394
     -3840.9844      -2992.9754
 98  7  8 20 56 30.0040000  0  7G 3G 6G17G21G22G23G26
  -2144266.26745  -1570661.85645  24684720.7624   24684725.4614
       724.2974        564.3874
  11434199.11846   8900357.14346  23273166.5594   23273170.4264
     -5427.2974      -4229.0624
   5690046.42647   4433804.10647  21943812.3874   21943815.0124
     -2929.5004      -2282.7274
  -1391759.10646  -1061065.57745  23783741.0204   23783745.0864
      -121.8284        -94.9314
   7599264.95145   5921502.28345  24841874.8634   24841880.3244
     -3970.4694      -3093.8724
   2511477.52047   1959341.13346  21956445.9414   21956448.2974
     -1903.7034      -1483.4054
   6783251.08646   5091596.94345  23718602.1294   23718605.4924
     -3850.7664      -3000.5974
 98  7  8 20 56 45.0040000  0  7G 3G 6G17G21G22G23G26
  -2155102.80245  -1579105.83545  24682658.4264   24682662.4694
       720.5314        561.4534
  11515650.84546   8963825.97746  23288666.4344   23288669.9614
     -5433.0164      -4233.5194
   5734017.25647   4468067.08947  21952179.7704   21952182.3364
     -2933.3594      -2285.7354
  -1389898.57646  -1059615.76846  23784095.3484   23784099.4844
      -126.3124        -98.4254
   7658869.64745   5967947.46745  24853217.3014   24853222.5864
     -3976.9374      -3098.9124
   2540081.08047   1981629.63246  21961888.9024   21961891.2114
     -1910.2664      -1488.5194
   6841082.18246   5136660.15045  23729607.3324   23729610.7424
     -3860.1564      -3007.9144
 98  7  8 20 57  0.0040000  0  7G 3G 6G17G21G22G23G26
  -2165883.65345  -1587506.44745  24680607.1054   24680611.9224
       717.0784        558.7624
  11597188.54246   9027361.80746  23304182.8714   23304186.3404
     -5438.5004      -4237.7924
   5778047.85347   4502376.64747  21960558.4344   21960561.1294
     -2937.2664      -2288.7784
  -1387970.00046  -1058112.94845  23784461.8954   23784466.0084
      -130.7034       -101.8474
   7718572.97345   6014469.50745  24864578.9104   24864584.0434
     -3983.4064      -3103.9534
   2568787.38747   2003998.19646  21967351.8634   21967354.5004
     -1917.0784      -1493.8274
   6899057.40146   5181835.65845  23740639.3094   23740642.6604
     -3869.7194      -3015.3654
 98  7  8 20 57 15.0040000  0  7G 3G 6G17G21G22G23G26
  -2176614.17245  -1595867.82545  24678564.5904   24678569.2424
       713.9224        556.3034
  11678808.18246   9090961.48246  23319714.6374   23319718.3634
     -5443.8914      -4241.9934
   5822136.69747   4536731.58847  21968947.9024   21968950.4454
     -2940.9694      -2291.6644
  -1385975.80046  -1056558.97545  23784841.3484   23784846.0704
      -134.9064       -105.1224
   7778374.50245   6061068.07145  24875958.3244   24875963.1524
     -3989.8284      -3108.9574
   2597594.95447   2026445.66546  21972833.5274   21972836.1414
     -1923.6254      -1498.9294
   6957175.29946   5227122.32945  23751698.6604   23751701.6724
     -3879.0784      -3022.6584
 98  7  8 20 57 30.0040000  0  7G 3G 6G17G21G22G23G26
  -2187298.90645  -1604193.56245  24676531.0664   24676535.1684
       710.6724        553.7704
  11760507.88946   9154623.55346  23335261.4804   23335265.2894
     -5449.4534      -4246.3274
   5866279.27247   4571128.40247  21977348.2464   21977350.9184
     -2944.7974      -2294.6474
  -1383919.05646  -1054956.27946  23785232.5274   23785236.9924
      -139.4374       -108.6534
   7838271.40345   6107740.93245  24887356.1764   24887361.8484
     -3996.4224      -3114.0954
   2626498.95247   2048968.27046  21978333.9884   21978336.6604
     -1930.3444      -1504.1644
   7015433.14646   5272518.06245  23762784.8164   23762788.3444
     -3888.6724      -3030.1344
 98  7  8 20 57 45.0040000  0  7G 3G 6G17G21G22G23G26
  -2197937.34945  -1612483.18045  24674506.8164   24674511.2584
       707.8594        551.5794
  11842289.27346   9218349.26046  23350823.8874   23350827.8244
     -5454.6564      -4250.3814
   5910479.56247   4605570.18747  21985759.3554   21985762.0044
     -2948.5314      -2297.5574
  -1381793.44546  -1053299.91746  23785637.3554   23785641.8444
      -143.9374       -112.1594
   7898263.85745   6154488.28144  24898772.1684   24898777.5474
     -4002.4224      -3118.7704
   2655501.99747   2071568.05546  21983852.9024   21983855.4804
     -1936.5944      -1509.0344
   7073833.60346   5318024.92645  23773898.1524   23773901.6334
     -3897.9064      -3037.3304
 98  7  8 20 58  0.0040000  0  7G 3G 6G17G21G22G23G26
  -2208536.71745  -1620742.37145  24672489.9884   24672494.2544
       705.4534        549.7044
  11924146.58146   9282134.12846  23366401.0204   23366404.7934
     -5459.6564      -4254.2784
   5954733.23847   4640053.56847  21994180.5354   21994183.1254
     -2952.0004      -2300.2604
  -1379602.33846  -1051592.52046  23786054.4654   23786058.6844
      -148.1724       -115.4594
   7958342.35845   6201302.68245  24910205.1844   24910210.2934
     -4008.0314      -3123.1414
   2684595.19847   2094238.09446  21989389.3634   21989391.4264
     -1942.4694      -1513.6124
   7132367.81446   5363636.00345  23785036.8954   23785040.4344
     -3906.6094      -3044.1114
 98  7  8 20 58 15.0040000  0  7G 3G 6G17G21G22G23G26
  -2219099.17945  -1628972.80345  24670479.7934   24670483.6844
       703.0784        547.8534
  12006081.67946   9345979.61846  23381992.6454   23381996.7814
     -5464.8124      -4258.2954
   5999043.83347   4674581.30547  22002612.6764   22002615.3834
     -2955.9064      -2303.3044
  -1377345.95946  -1049834.24746  23786483.2934   23786487.3484
      -152.4844       -118.8194
   8018507.21045   6248184.34445  24921654.0274   24921658.9494
     -4013.7664      -3127.6104
   2713779.05147   2116978.77546  21994942.5434   21994944.9104
     -1948.5164      -1518.3244
   7191033.78346   5409349.75245  23796200.4104   23796203.4574
     -3915.3124      -3050.8934
 98  7  8 20 58 30.0040000  0  7G 3G 6G17G21G22G23G26
  -2229627.59745  -1637176.70245  24668475.8554   24668480.6604
       700.6884        545.9904
  12088089.37146   9409881.67646  23397597.8634   23397602.0944
     -5469.5474      -4261.9854
   6043410.08247   4709152.40847  22011055.2304   22011057.9024
     -2959.5624      -2306.1534
  -1375027.65846  -1048027.74346  23786924.5514   23786929.2504
      -156.5784       -122.0094
   8078754.62645   6295130.34445  24933118.5354   24933122.8594
     -4019.1254      -3131.7864
   2743051.61947   2139788.58346  22000513.0434   22000515.3524
     -1954.4064      -1522.9144
   7249827.25046   5455162.85445  23807388.6604   23807392.1644
     -3923.7504      -3057.4684
 98  7  8 20 58 45.0040000  0  7G 3G 6G17G21G22G23G26
  -2240115.43245  -1645348.99345  24666479.9264   24666484.2274
       697.8594        543.7874
  12170173.03146   9473842.92346  23413218.1684   23413222.5164
     -5474.7034      -4266.0024
   6087834.78247   4743769.06147  22019508.9414   22019511.7894
     -2963.5474      -2309.2574
  -1372646.08546  -1046171.92446  23787377.9574   23787382.5274
      -160.7814       -125.2844
   8139084.39645   6342140.52645  24944599.4804   24944604.9654
     -4024.6874      -3136.1204
   2772414.62547   2162668.85746  22006100.7074   22006103.3324
     -1960.4694      -1527.6384
   7308749.90946   5501076.61645  23818600.9414   23818604.0354
     -3932.4224      -3064.2254
 98  7  8 20 59  0.0040000  0  7G 3G 6G17G21G22G23G26
  -2250561.34145  -1653488.61245  24664492.9104   24664497.4454
       694.7344        541.3514
  12252331.24546   9537862.26046  23428852.3874   23428856.6764
     -5479.8754      -4270.0324
   6132316.77147   4778430.34847  22027973.8324   22027976.4694
     -2967.5314      -2312.3624
  -1370203.02546  -1044268.20346  23787842.8164   23787847.3404
      -165.0944       -128.6444
   8199497.64745   6389215.76345  24956095.6374   24956101.8834
     -4030.5164      -3140.6624
   2801867.28647   2185618.99546  22011705.0904   22011707.6334
     -1966.7034      -1532.4964
   7367801.04346   5547090.49945  23829838.2304   23829841.3014
     -3941.2194      -3071.0804
 98  7  8 20 59 15.0040000  0  7G 3G 6G17G21G22G23G26
  -2260956.84145  -1661588.93945  24662514.9104   24662519.3164
       691.3754        538.7344
  12334567.98246   9601942.79446  23444501.0354   23444505.8984
     -5484.9224      -4273.9654
   6176859.15847   4813138.69947  22036449.6454   22036452.3634
     -2971.3284      -2315.3214
  -1367693.95946  -1042313.04046  23788320.1214   23788324.4344
      -169.2974       -131.9204
   8259998.99245   6436359.63244  24967608.7464   24967614.5474
     -4036.2034      -3145.0934
   2831414.28147   2208642.63946  22017328.0514   22017330.7114
     -1972.7344      -1537.1964
   7426985.83546   5593208.51645  23841100.5124   23841103.2304
     -3949.9844      -3077.9104
 98  7  8 20 59 30.0040000  0  7G 3G 6G17G21G22G23G26
  -2271300.41045  -1669648.81645  24660546.3634   24660550.1604
       687.9384        536.0554
  12416882.48646   9666083.91446  23460165.2234   23460169.8054
     -5490.0784      -4277.9834
   6221459.33047   4847892.08447  22044936.9184   22044939.5204
     -2975.1254      -2318.2794
  -1365123.02846  -1040309.67146  23788809.2464   23788813.4534
      -173.1874       -134.9514
   8320584.69245   6483569.23545  24979137.5824   24979143.6414
     -4041.6414      -3149.3304
   2861050.69447   2231735.96146  22022967.6134   22022970.1914
     -1978.5944      -1541.7614
   7486302.57346   5639429.34745  23852388.0904   23852391.5824
     -3958.7034      -3084.7044
 98  7  8 20 59 45.0040000  0  7G 3G 6G17G21G22G23G26
  -2281599.28845  -1677673.87945  24658586.5354   24658590.9064
       684.8284        533.6324
  12499264.37046   9730277.54445  23475842.1374   23475846.9414
     -5494.5784      -4281.4894
   6266109.77847   4882684.63847  22053433.5434   22053436.3444
     -2978.7194      -2321.0804
  -1362502.36746  -1038267.55346  23789307.8954   23789311.6094
      -176.6254       -137.6304
   8381244.19945   6530836.33044  24990680.8794   24990687.2074
     -4046.6724      -3153.2514
   2890768.62847   2254892.80246  22028622.8714   22028625.2034
     -1984.2344      -1546.1574
   7545742.59746   5685746.25545  23863699.4184   23863702.3484
     -3967.0474      -3091.2054
 98  7  8 21  0  0.0040000  0  7G 3G 6G17G21G22G23G26
  -2291843.47545  -1685656.31545  24656636.6914   24656641.4964
       681.1414        530.7594
  12581720.82546   9794529.27945  23491533.1214   23491537.9614
     -5499.5164      -4285.3374
   6310820.97847   4917524.53147  22061941.7304   22061944.4844
     -2982.6414      -2324.1364
  -1359824.70846  -1036181.02346  23789817.5274   23789821.4414
      -180.2664       -140.4674
   8441985.68645   6578167.30744  25002239.3094   25002243.6334
     -4052.1564      -3157.5244
   2920577.42647   2278120.44946  22034295.0434   22034297.3874
     -1990.2344      -1550.8324
   7605314.10446   5732165.62245  23875035.7464   23875038.9104
     -3975.7504      -3097.9874
 98  7  8 21  0 15.0040000  0  7G 3G 6G17G21G22G23G26
  -2302032.59645  -1693595.82245  24654697.9344   24654702.7734
       677.3284        527.7884
  12664249.93446   9858837.62646  23507237.8014   23507241.9614
     -5504.4534      -4289.1844
   6355588.97147   4952408.68447  22070460.9574   22070463.8874
     -2986.4844      -2327.1314
  -1357094.92746  -1034053.87446  23790336.9024   23790341.0044
      -183.7814       -143.2064
   8502810.89045   6625563.53645  25013814.5594   25013819.8674
     -4057.9534      -3162.0414
   2950477.63547   2301419.32246  22039985.0434   22039987.5744
     -1996.5474      -1555.7514
   7665016.05946   5778686.61845  23886396.5594   23886399.7344
     -3984.5944      -3104.8784
 98  7  8 21  0 30.0040000  0  7G 3G 6G17G21G22G23G26
  -2312167.45345  -1701493.05245  24652769.0744   24652773.5744
       673.7974        525.0374
  12746850.92546   9923201.99345  23522956.4264   23522960.9494
     -5509.1564      -4292.8494
   6400410.02447   4987334.18247  22078990.0824   22078992.8484
     -2989.7664      -2329.6874
  -1354316.01446  -1031888.44646  23790865.7464   23790870.1524
      -186.8754       -145.6174
   8563720.75845   6673025.74444  25025405.0824   25025411.8554
     -4063.5474      -3166.4004
   2980468.76547   2324789.04146  22045692.0904   22045694.6454
     -2002.4224      -1560.3294
   7724848.84946   5825309.57645  23897782.2304   23897785.2664
     -3993.2344      -3111.6114
 98  7  8 21  0 45.0040000  0  7G 3G 6G17G21G22G23G26
  -2322246.24045  -1709346.60745  24650851.3874   24650856.0624
       670.0314        522.1024
  12829524.19546   9987622.66946  23538688.9734   23538693.1334
     -5514.0314      -4296.6484
   6445281.49547   5022298.96847  22087528.9804   22087531.6764
     -2993.1414      -2332.3174
  -1351489.21646  -1029685.70546  23791403.5664   23791407.7624
      -190.0784       -148.1134
   8624717.06345   6720555.28145  25037012.4184   25037017.6454
     -4069.3124      -3170.8934
   3010550.14647   2348229.08746  22051416.3484   22051418.8204
     -2008.4374      -1565.0164
   7784813.42146   5872035.21745  23909193.1994   23909196.6454
     -4002.1094      -3118.5274
 98  7  8 21  1  0.0040000  0  7G 3G 6G17G21G22G23G26
  -2332266.03445  -1717154.18345  24648944.4494   24648948.9844
       666.1254        519.0584
  12912273.67146  10052102.73046  23554435.7304   23554440.1374
     -5518.9534      -4300.4834
   6490206.21147   5057305.24047  22096077.6054   22096080.2894
     -2996.5944      -2335.0084
  -1348611.45146  -1027443.25046  23791951.4804   23791955.5004
      -193.4374       -150.7314
   8685803.48545   6768155.02845  25048636.7544   25048641.8874
     -4075.2974      -3175.5564
   3040725.30547   2371742.20946  22057158.4654   22057160.8094
     -2014.7504      -1569.9354
   7844914.65746   5918867.35245  23920629.7704   23920632.6174
     -4011.2034      -3125.6134
 98  7  8 21  1 15.0040000  0  7G 3G 6G17G21G22G23G26
  -2342224.79845  -1724914.21145  24647049.3244   24647053.6954
       662.0634        515.8934
  12995097.35846  10116640.62546  23570196.6054   23570200.7304
     -5523.8444      -4304.2944
   6535184.46947   5092353.24247  22104636.7934   22104639.5234
     -3000.1724      -2337.7964
  -1345680.44346  -1025159.30546  23792508.9654   23792512.7504
      -196.9224       -153.4464
   8746979.52445   6815824.63145  25060278.0124   25060283.4024
     -4081.0944      -3180.0734
   3070997.47447   2395330.92646  22062919.1054   22062921.4734
     -2021.0784      -1574.8664
   7905154.44846   5965807.44945  23932093.3164   23932096.5514
     -4020.4064      -3132.7844
 98  7  8 21  1 30.0040000  0  7G 3G 6G17G21G22G23G26
  -2352123.58145  -1732627.50045  24645166.0274   24645169.7304
       657.9384        512.6794
  13077995.14246  10181236.25446  23585971.5204   23585975.8094
     -5529.0784      -4308.3734
   6580217.17247   5127443.66347  22113206.1604   22113208.9264
     -3004.0624      -2340.8284
  -1342699.62046  -1022836.54046  23793076.2074   23793080.0864
      -200.3754       -156.1364
   8808241.17245   6863560.92644  25071936.0044   25071941.6174
     -4087.0314      -3184.7004
   3101361.80147   2418991.45046  22068697.1524   22068699.4264
     -2027.3444      -1579.7484
   7965531.22146   6012854.29145  23943582.4884   23943585.5594
     -4029.6564      -3139.9924
 98  7  8 21  1 45.0040000  0  7G 3G 6G17G21G22G23G26
  -2361971.37445  -1740301.05845  24643291.6524   24643295.7194
       654.9064        510.3174
  13160962.89146  10245886.39646  23601759.8014   23601764.0904
     -5533.4064      -4311.7454
   6625300.09747   5162573.21847  22121785.1914   22121788.0394
     -3007.1724      -2343.2514
  -1339675.01746  -1020479.66846  23793651.8094   23793655.9694
      -203.1414       -158.2914
   8869583.53245   6911360.11745  25083609.1134   25083614.4344
     -4092.1414      -3188.6814
   3131811.11247   2442718.19846  22074491.4574   22074493.9774
     -2032.7344      -1583.9494
   8026035.74246   6060000.67745  23955095.8094   23955098.8794
     -4037.7664      -3146.3114
 98  7  8 21  2  0.0040000  0  7G 3G 6G17G21G22G23G26
  -2371774.60545  -1747939.87045  24641426.4414   24641430.0624
       652.1254        508.1494
  13243995.07046  10310586.74846  23617560.0984   23617564.5514
     -5537.6874      -4315.0814
   6670428.39147   5197738.12747  22130372.6914   22130375.7034
     -3009.9844      -2345.4424
  -1336607.13246  -1018089.07546  23794235.2774   23794239.3554
      -205.9844       -160.5074
   8931002.50445   6959219.02644  25095296.6374   25095302.9064
     -4097.0944      -3192.5414
   3162339.87247   2466506.85346  22080301.0274   22080303.6524
     -2037.8124      -1587.9064
   8086660.38746   6107240.66545  23966632.7384   23966636.2194
     -4045.5944      -3152.4114
 98  7  8 21  2 15.0040000  0  7G 3G 6G17G21G22G23G26
  -2381533.82545  -1755544.41845  24639569.0824   24639573.4414
       649.1254        505.8124
  13327095.40346  10375340.20546  23633373.9104   23633378.3284
     -5542.2664      -4318.6494
   6715599.30247   5232936.24447  22138968.5744   22138971.5044
     -3012.7034      -2347.5614
  -1333494.30646  -1015663.46646  23794827.5984   23794831.9104
      -209.0314       -162.8814
   8992497.48645   7007137.15544  25106998.6764   25107003.8324
     -4102.1724      -3196.4984
   3192945.34947   2490355.28846  22086124.8954   22086127.5784
     -2042.8594      -1591.8384
   8147405.14446   6154574.24045  23978192.0044   23978195.8594
     -4053.6254      -3158.6694
 98  7  8 21  2 30.0040000  0  7G 3G 6G17G21G22G23G26
  -2391242.69045  -1763109.69945  24637721.4414   24637725.7304
       645.4064        502.9144
  13410268.59746  10440150.43046  23649201.2854   23649205.7034
     -5547.5314      -4322.7524
   6760814.50847   5268168.87747  22147572.8404   22147575.7114
     -3016.0314      -2350.1544
  -1330329.48646  -1013197.31946  23795430.5044   23795434.2544
      -212.9844       -165.9624
   9054071.62545   7055116.95545  25118715.8404   25118720.7974
     -4107.6564      -3200.7714
   3223630.88747   2514266.10946  22091964.2704   22091966.9534
     -2048.5474      -1596.2704
   8208275.44846   6202005.65945  23989775.1684   23989779.0944
     -4062.4224      -3165.5244
 98  7  8 21  2 45.0040000  0  7G 3G 6G17G21G22G23G26
  -2400904.42545  -1770638.26845  24635882.6994   24635887.5394
       642.7814        500.8694
  13493512.57846  10505015.81546  23665042.1994   23665046.5354
     -5551.6094      -4325.9294
   6806071.80647   5303434.31147  22156184.9184   22156187.7544
     -3018.2974      -2351.9204
  -1327113.05446  -1010690.97946  23796042.0824   23796045.8914
      -215.9374       -168.2634
   9115718.02345   7103153.05444  25130447.0824   25130453.3404
     -4111.8444      -3204.0344
   3254393.97447   2538237.35746  22097818.2544   22097821.0664
     -2053.2504      -1599.9354
   8269269.03846   6249533.13245  24001381.9264   24001385.8754
     -4070.0624      -3171.4774
 98  7  8 21  3  0.0040000  0  7G 3G 6G17G21G22G23G26
  -2410517.23445  -1778128.71145  24634053.4734   24634057.0594
       639.1564        498.0444
  13576826.68646  10569935.85546  23680896.2464   23680900.4774
     -5556.7344      -4329.9234
   6851373.58747   5338734.40747  22164805.6374   22164808.5314
     -3021.7034      -2354.5744
  -1323840.04646  -1008140.54946  23796664.9344   23796669.1174
      -220.2034       -171.5874
   9177435.40945   7151244.48145  25142191.4024   25142197.6254
     -4116.8754      -3207.9554
   3285237.64747   2562271.40446  22103687.6054   22103690.3714
     -2058.9374      -1604.3674
   8330387.96746   6297158.27545  24013012.4734   24013016.2464
     -4078.8124      -3178.2954
 98  7  8 21  3 15.0040000  0  7G 3G 6G17G21G22G23G26
  -2420075.12645  -1785576.37345  24632234.6764   24632238.7194
       635.4224        495.1344
  13660218.14246  10634916.15146  23696764.9104   23696769.3634
     -5561.9534      -4333.9894
   6896727.01247   5374074.74247  22173436.0204   22173438.8324
     -3025.2974      -2357.3744
  -1320504.12446  -1005541.09346  23797299.6134   23797303.6094
      -224.4064       -174.8624
   9239228.34245   7199394.78545  25153950.1994   25153956.2934
     -4122.0004      -3211.9484
   3316165.27447   2586370.86346  22109573.0354   22109575.8124
     -2064.6094      -1608.7874
   8391635.96846   6344883.99645  24024667.3094   24024670.9414
     -4087.4224      -3185.0044
 98  7  8 21  3 30.0040000  0  7G 3G 6G17G21G22G23G26
  -2429586.52445  -1792987.80445  24630424.6604   24630429.5704
       632.7974        493.0884
  13743680.36946  10699951.60445  23712647.4344   23712651.4304
     -5566.3284      -4337.3994
   6942126.55247   5409451.01547  22182075.0744   22182077.9694
     -3027.9064      -2359.4074
  -1317113.27946  -1002898.84346  23797944.8794   23797949.0274
      -227.6874       -177.4194
   9301090.49745   7247599.00345  25165722.5744   25165728.4924
     -4126.3444      -3215.3334
   3347168.64447   2610529.34746  22115472.6374   22115475.1914
     -2069.1564      -1612.3304
   8453004.15746   6392703.37945  24036345.2234   24036349.6414
     -4095.0314      -3190.9334
 98  7  8 21  3 45.0040000  0  7G 3G 6G17G21G22G23G26
  -2439054.79745  -1800365.62545  24628622.8094   24628627.8244
       629.6884        490.6664
  13827212.85246  10765041.78345  23728543.1374   23728547.4614
     -5571.2344      -4341.2224
   6987568.03847   5444859.97247  22190722.5594   22190725.5824
     -3030.8914      -2361.7334
  -1313667.81046  -1000214.02246  23798600.4804   23798604.3594
      -231.6874       -180.5364
   9363023.20945   7295858.22345  25177507.9964   25177513.4344
     -4131.2814      -3219.1804
   3378246.06847   2634745.54246  22121386.5514   22121389.0944
     -2074.4844      -1616.4814
   8514491.52546   6440615.60845  24048046.4964   24048050.1764
     -4103.2344      -3197.3254
 98  7  8 21  4  0.0040000  0  7G 3G 6G17G21G22G23G26
  -2448478.16145  -1807708.44045  24626830.0434   24626834.6024
       626.6724        488.3164
  13910814.66246  10830186.00045  23744452.2304   23744456.3204
     -5575.7034      -4344.7044
   7033051.95947   5480301.99447  22199377.9184   22199380.8124
     -3033.6874      -2363.9124
  -1310163.82246   -997483.60846  23799267.3634   23799271.2774
      -235.5784       -183.5674
   9425026.01445   7344172.04745  25189306.8554   25189312.1294
     -4135.7974      -3222.6994
   3409401.59647   2659022.59246  22127315.0204   22127317.3284
     -2079.6874      -1620.5364
   8576099.72946   6488622.01345  24059770.2234   24059773.4924
     -4111.3124      -3203.6204
 98  7  8 21  4 15.0040000  0  7G 3G 6G17G21G22G23G26
  -2457849.89245  -1815011.03345  24625045.8714   24625050.1954
       623.0004        485.4554
  13994490.24046  10895387.69345  23760375.1524   23760379.1374
     -5580.8594      -4348.7224
   7078583.95347   5515781.47647  22208042.2464   22208045.2344
     -3037.1414      -2366.6034
  -1306596.75046   -994704.02746  23799946.1454   23799950.1054
      -239.9064       -186.9404
   9487102.51745   7392543.33145  25201118.8244   25201124.7544
     -4140.9374      -3226.7054
   3440642.12747   2683365.87746  22133260.0594   22133262.6254
     -2085.5944      -1625.1384
   8637835.95846   6536728.16945  24071517.8554   24071520.7384
     -4120.0624      -3210.4384
 98  7  8 21  4 30.0050000  0  7G 3G 6G17G21G22G23G26
  -2467173.87245  -1822276.42645  24623271.7594   24623276.4584
       619.9384        483.0684
  14078238.70546  10960646.18145  23776312.1494   23776316.1924
     -5585.0784      -4352.0094
   7124163.14547   5551297.73647  22216715.7124   22216718.5014
     -3039.9694      -2368.8074
  -1302971.88846   -991879.42546  23800636.1424   23800639.6574
      -243.6094       -189.8254
   9549252.27945   7440971.68245  25212946.5634   25212952.9384
     -4145.3594      -3230.1504
   3471966.09847   2707774.17546  22139220.7674   22139223.2044
     -2090.9064      -1629.2784
   8699698.52446   6584932.75745  24083290.1494   24083293.6184
     -4127.9534      -3216.5874
 98  7  8 21  4 45.0050000  0  7G 3G 6G17G21G22G23G26
  -2476448.87645  -1829503.63845  24621506.6574   24621511.7674
       616.6724        480.5244
  14162050.84046  11025954.28245  23792261.0874   23792264.7904
     -5589.9534      -4355.8084
   7169789.80947   5586850.98547  22225398.0564   22225400.8684
     -3043.7034      -2371.7174
  -1299287.88546   -989008.74346  23801337.2284   23801340.8954
      -247.6254       -192.9554
   9611469.67145   7489452.71245  25224785.8454   25224791.8214
     -4150.4374      -3234.1074
   3503374.21247   2732248.04846  22145197.6104   22145200.1064
     -2096.9534      -1633.9894
   8761679.37546   6633229.53545  24095084.7674   24095087.7554
     -4136.2504      -3223.0524
 98  7  8 21  5  0.0050000  0  7G 3G 6G17G21G22G23G26
  -2485678.92045  -1836695.83745  24619750.3374   24619754.7674
       613.9064        478.3694
  14245930.64146  11091315.11645  23808222.9314   23808226.8564
     -5594.0004      -4358.9614
   7215469.12747   5622445.26747  22234090.6494   22234093.4154
     -3046.8914      -2374.2004
  -1295550.24146   -986096.26346  23802048.2354   23802052.2204
      -250.7034       -195.3534
   9673759.71945   7537990.36845  25236639.4854   25236644.8534
     -4154.9844      -3237.6504
   3534867.55447   2756788.32746  22151190.8684   22151193.3764
     -2102.1414      -1638.0324
   8823779.24146   6681619.04145  24106902.2514   24106904.9234
     -4143.6874      -3228.8474
 98  7  8 21  5 15.0050000  0  7G 3G 6G17G21G22G23G26
  -2494862.64145  -1843851.91345  24618003.0874   24618008.0324
       610.6094        475.8004
  14329874.62746  11156725.95945  23824196.8684   23824200.8294
     -5598.4224      -4362.4074
   7261199.93547   5658079.67247  22242792.9854   22242795.8924
     -3050.4534      -2376.9764
  -1291763.82646   -983145.77246  23802768.7124   23802772.2164
      -254.0624       -197.9714
   9736122.07845   7586584.36745  25248506.3924   25248512.7314
     -4159.9224      -3241.4984
   3566441.97747   2781391.79046  22157199.1734   22157201.4114
     -2107.7504      -1642.4034
   8885993.37546   6730097.59045  24118740.9384   24118743.8684
     -4151.3594      -3234.8254
 98  7  8 21  5 30.0050000  0  7G 3G 6G17G21G22G23G26
  -2504003.01745  -1850974.24145  24616263.3604   24616268.3764
       607.8754        473.6694
  14413876.57346  11222181.96445  23840182.1494   23840186.2394
     -5602.0474      -4365.2314
   7306977.11547   5693750.20647  22251503.9074   22251506.6734
     -3053.4224      -2379.2904
  -1287933.61646   -980161.16046  23803497.5564   23803501.2944
      -256.9374       -200.2114
   9798552.07145   7635231.07545  25260386.7044   25260391.7204
     -4164.3124      -3244.9194
   3598097.62347   2806058.54146  22163222.7904   22163225.2864
     -2113.2814      -1646.7134
   8948315.62146   6778660.37545  24130600.5634   24130603.1184
     -4158.5624      -3240.4384
 98  7  8 21  5 45.0050000  0  7G 3G 6G17G21G22G23G26
  -2513096.55345  -1858060.07345  24614533.2824   24614538.3804
       604.3914        470.9544
  14497938.37046  11287684.61145  23856178.5714   23856182.9664
     -5606.3754      -4368.6044
   7352804.23147   5729459.65447  22260224.7674   22260227.6264
     -3057.0944      -2382.1514
  -1284052.16146   -977136.60446  23804236.2124   23804239.9624
      -260.8124       -203.2314
   9861053.41145   7683933.37545  25272280.4234   25272286.1654
     -4169.3594      -3248.8514
   3629841.09447   2830793.72446  22169263.3534   22169265.8254
     -2119.3754      -1651.4614
   9010752.86646   6827312.78245  24142481.9154   24142484.3064
     -4166.5944      -3246.6964
 98  7  8 21  6  0.0050000  0  7G 3G 6G17G21G22G23G26
  -2522135.83445  -1865103.62245  24612812.6264   24612816.8684
       600.7974        468.1534
  14582065.54346  11353238.19145  23872187.5954   23872191.4744
     -5610.6094      -4371.9034
   7398689.81747   5765214.65947  22268956.3534   22268959.2824
     -3061.0474      -2385.2314
  -1280110.90446   -974065.46646  23804986.0714   23804990.1264
      -264.7034       -206.2624
   9923629.21745   7732693.65445  25284186.4854   25284191.7824
     -4174.1724      -3252.6014
   3661678.05747   2855601.76046  22175321.7124   22175324.1034
     -2125.5944      -1656.3074
   9073311.11846   6876059.48545  24154386.2984   24154389.1224
     -4174.5314      -3252.8814
 98  7  8 21  6 15.0050000  0  7G 3G 6G17G21G22G23G26
  -2531120.19745  -1872104.37145  24611102.9464   24611107.5054
       596.9064        465.1224
  14666258.00246  11418842.65145  23888208.9154   23888212.8884
     -5615.2504      -4375.5194
   7444636.35547   5801017.16347  22277699.8994   22277702.6534
     -3065.2974      -2388.5434
  -1276111.14546   -970948.74146  23805747.0014   23805750.9034
      -268.7504       -209.4164
   9986279.32645   7781511.95145  25296110.0634   25296115.9114
     -4179.4224      -3256.6924
   3693608.29847   2880482.48346  22181397.9384   22181400.3884
     -2131.9534      -1661.2624
   9135990.14746   6924900.27845  24166313.3924   24166316.4974
     -4182.8444      -3259.3594
 98  7  8 21  6 30.0050000  0  7G 3G 6G17G21G22G23G26
  -2540041.06345  -1879055.64645  24609405.3214   24609409.8454
       593.3284        462.3344
  14750524.68346  11484504.94245  23904244.2984   23904248.1184
     -5619.4844      -4378.8194
   7490649.88747   5836871.87247  22286456.1344   22286458.9464
     -3069.0314      -2391.4534
  -1272047.49946   -967782.22746  23806520.4784   23806524.2044
      -272.2814       -212.1674
  10049013.95545   7830396.04644  25308048.0794   25308053.5404
     -4184.3594      -3260.5404
   3725636.75447   2905439.73346  22187492.8294   22187495.2554
     -2137.7034      -1665.7434
   9198798.28246   6973841.68345  24178265.5954   24178268.1734
     -4190.8124      -3265.5684
 98  7  8 21  6 45.0050000  0  7G 3G 6G17G21G22G23G26
  -2548912.50645  -1885968.38945  24607717.2284   24607721.5754
       589.4384        459.3024
  14834849.87146  11550212.81845  23920290.8374   23920295.1144
     -5624.0004      -4382.3384
   7536714.13147   5872766.09547  22295221.5484   22295224.5244
     -3072.9844      -2394.5334
  -1267936.32846   -964578.68746  23807302.7904   23807306.7984
      -275.9064       -214.9924
  10111816.92945   7879333.38344  25319998.9784   25320005.3174
     -4189.5164      -3264.5584
   3757746.94447   2930460.67146  22193603.1734   22193605.5404
     -2143.7664      -1670.4674
   9261722.75646   7022873.74445  24190239.6574   24190242.7284
     -4199.2504      -3272.1434
 98  7  8 21  7  0.0050000  0  7G 3G 6G17G21G22G23G26
  -2557717.33145  -1892829.25745  24606041.4314   24606045.1694
       584.9384        455.7954
  14919250.31446  11615979.34445  23936351.8994   23936355.9784
     -5628.9064      -4386.1614
   7582844.99447   5908712.22947  22303999.8214   22304002.8104
     -3077.3124      -2397.9064
  -1263763.45846   -961327.06046  23808096.8994   23808101.0014
      -280.0784       -218.2434
  10174706.01845   7928337.83144  25331966.5244   25331973.0524
     -4195.2504      -3269.0264
   3789956.15147   2955558.77046  22199732.0564   22199734.4814
     -2150.3124      -1675.5684
   9324783.33946   7072011.85245  24202239.6964   24202243.1304
     -4208.3914      -3279.2654
 98  7  8 21  7 15.0050000  0  7G 3G 6G17G21G22G23G26
  -2566462.63145  -1899643.72545  24604377.5484   24604381.0994
       581.2344        452.9104
  15003713.54646  11681794.78545  23952424.6574   23952428.8294
     -5632.7344      -4389.1444
   7629029.65647   5944700.28147  22312788.6104   22312791.5994
     -3080.5164      -2400.4024
  -1259535.15746   -958032.23846  23808901.3064   23808905.3254
      -283.6724       -221.0434
  10237669.85945   7977400.51644  25343947.7904   25343952.9464
     -4199.7814      -3272.5574
   3822251.88547   2980724.28646  22205877.8214   22205880.4464
     -2155.7194      -1679.7814
   9387970.79546   7121248.83045  24214263.6814   24214267.0564
     -4216.5314      -3285.6094
 98  7  8 21  7 30.0050000  0  7G 3G 6G17G21G22G23G26
  -2575157.81345  -1906419.15645  24602723.0404   24602726.5204
       578.0004        450.3904
  15088230.33046  11747651.95745  23968507.3214   23968511.6344
     -5636.3594      -4391.9684
   7675257.76447   5980722.19047  22321585.5794   22321588.4384
     -3083.3444      -2402.6064
  -1255255.05446   -954697.06546  23809715.5714   23809719.6734
      -287.1724       -223.7704
  10300695.97845   8026511.73644  25355940.9074   25355946.2634
     -4203.8754      -3275.7474
   3854625.93047   3005950.82846  22212038.4154   22212040.7474
     -2160.9064      -1683.8234
   9451277.53846   7170578.76645  24226310.7824   24226314.1574
     -4224.5164      -3291.8304
 98  7  8 21  7 45.0050000  0  7G 3G 6G17G21G22G23G26
  -2583803.59146  -1913156.08445  24601077.8764   24601082.3994
       574.7194        447.8334
  15172805.97046  11813554.99645  23984601.9624   23984606.1224
     -5640.4534      -4395.1584
   7721530.31847   6016778.73047  22330390.7984   22330393.6924
     -3086.3914      -2404.9804
  -1250921.07246   -951319.90346  23810540.2124   23810544.5134
      -290.7664       -226.5714
  10363786.81545   8075673.35745  25367947.2904   25367953.8064
     -4208.2664      -3279.1684
   3887076.61647   3031237.08646  22218213.7044   22218216.2944
     -2165.7664      -1687.6104
   9514707.58246   7220004.78345  24238380.9544   24238384.4114
     -4232.8754      -3298.3444
 98  7  8 21  8  0.0050000  0  7G 3G 6G17G21G22G23G26
  -2592397.82246  -1919852.83745  24599442.1734   24599445.4314
       571.0164        444.9474
  15257444.50646  11879507.03745  24000708.2674   24000712.4154
     -5644.8284      -4398.5674
   7767848.48147   6052870.81247  22339204.9384   22339207.7284
     -3089.4694      -2407.3784
  -1246533.38146   -947900.87446  23811375.0174   23811379.4814
      -294.3444       -229.3594
  10426944.29445   8124886.94944  25379965.7284   25379971.6924
     -4212.8914      -3282.7724
   3919597.64547   3056578.16646  22224402.2594   22224404.7554
     -2170.5784      -1691.3604
   9578261.80146   7269527.55645  24250474.9464   24250478.6854
     -4241.1564      -3304.7974
 98  7  8 21  8 15.0050000  0  7G 3G 6G17G21G22G23G26
  -2600939.62545  -1926508.74045  24597816.6654   24597820.3334
       567.8754        442.5004
  15342145.24346  11945507.54745  24016826.3214   24016830.6224
     -5648.6414      -4401.5384
   7814207.57547   6088994.78647  22348026.6814   22348029.3644
     -3091.6874      -2409.1074
  -1242097.95046   -944444.66346  23812219.0484   23812223.3134
      -297.0164       -231.4414
  10490168.09545   8174152.17844  25391997.1034   25392003.0914
     -4216.9844      -3285.9624
   3952189.49047   3081974.42046  22230604.2434   22230606.6454
     -2174.9694      -1694.7814
   9641935.17346   7319143.16445  24262591.8604   24262595.8454
     -4248.6414      -3310.6294
 98  7  8 21  8 30.0050000  0  7G 3G 6G17G21G22G23G26
  -2609426.41746  -1933121.79245  24596201.8534   24596205.8374
       563.9064        439.4074
  15426911.35446  12011559.00045  24032956.7434   24032961.3024
     -5653.2344      -4405.1184
   7860605.95347   6125149.36947  22356856.1104   22356858.8884
     -3094.5474      -2411.3354
  -1237614.82846   -940951.28646  23813072.3214   23813076.5284
      -300.5624       -234.2054
  10553460.41345   8223470.85045  25404040.8994   25404047.6734
     -4221.7034      -3289.6394
   3984853.19847   3107426.66946  22236819.7594   22236822.2554
     -2180.0164      -1698.7134
   9705728.04846   7368851.89945  24274730.9784   24274735.2204
     -4256.7974      -3316.9854
 98  7  8 21  8 45.0050000  0  7G 3G 6G17G21G22G23G26
  -2617855.29446  -1939689.68945  24594597.6574   24594601.7124
       560.0944        436.4374
  15511743.95746  12077662.25845  24049100.1344   24049104.6344
     -5657.6254      -4408.5394
   7907047.79747   6161337.82147  22365693.6654   22365696.3844
     -3097.6254      -2413.7344
  -1233077.78546   -937415.89046  23813935.9704   23813939.8954
      -304.2664       -237.0904
  10616820.27845   8272842.12444  25416098.1494   25416103.8684
     -4226.1254      -3293.0844
   4017593.42547   3132938.54646  22243050.0404   22243052.5834
     -2185.2664      -1702.8044
   9769641.04146   7418654.23845  24286893.0714   24286897.2554
     -4264.7814      -3323.2064
 98  7  8 21  9  0.0050000  0  7G 3G 6G17G21G22G23G26
  -2626229.24246  -1946214.78645  24593004.1104   24593007.9784
       556.3134        433.4904
  15596641.57046  12143816.18345  24065255.3684   24065259.4704
     -5662.2034      -4412.1064
   7953535.53747   6197562.03247  22374539.8374   22374542.6264
     -3100.8914      -2416.2784
  -1228485.12946   -933837.15546  23814809.7354   23814813.8254
      -308.2974       -240.2314
  10680245.54145   8322264.32844  25428167.6814   25428173.3764
     -4230.6874      -3296.6404
   4050412.95247   3158512.21346  22249295.4624   22249297.9814
     -2190.7814      -1707.1024
   9833671.72846   7468548.27945  24299077.8994   24299082.0134
     -4272.7034      -3329.3794
 98  7  8 21  9 15.0050000  0  7G 3G 6G17G21G22G23G26
  -2634551.50246  -1952699.63145  24591420.4624   24591424.1884
       553.1094        430.9944
  15681602.16246  12210019.17845  24081423.1264   24081427.5324
     -5666.0624      -4415.1144
   8000067.85347   6233820.98147  22383394.6574   22383397.4934
     -3103.5944      -2418.3854
  -1223834.91546   -930213.57446  23815694.6884   23815698.4974
      -311.9224       -243.0564
  10743733.42845   8371735.38944  25440249.1184   25440254.9194
     -4234.5314      -3299.6354
   4083308.95947   3184145.47846  22255555.5404   22255557.7204
     -2195.5314      -1710.8044
   9897813.30246   7518528.72745  24311283.6494   24311287.1534
     -4279.6874      -3334.8214
 98  7  8 21  9 30.0050000  0  7G 3G 6G17G21G22G23G26
  -2642822.68146  -1959144.65345  24589846.5634   24589850.3844
       549.7344        428.3644
  15766622.69346  12276268.88145  24097601.9704   24097606.8684
     -5670.0164      -4418.1944
   8046642.71447   6270113.08447  22392257.7204   22392260.5094
     -3106.3594      -2420.5404
  -1219129.36646   -926546.87346  23816590.1344   23816594.3534
      -315.3754       -245.7474
  10807279.27145   8421251.58644  25452341.2824   25452347.5994
     -4238.2664      -3302.5454
   4116277.45847   3209835.22946  22261829.0564   22261831.5634
     -2200.2504      -1714.4814
   9962061.05346   7568591.91645  24323509.6734   24323513.1304
     -4286.6564      -3340.2524
 98  7  8 21  9 45.0050000  0  7G 3G 6G17G21G22G23G26
  -2651043.47446  -1965550.42145  24588282.2824   24588286.0204
       546.0784        425.5154
  15851702.82946  12342565.02245  24113791.9784   24113796.3134
     -5674.2504      -4421.4944
   8093258.95447   6306437.43047  22401128.3684   22401131.1694
     -3109.3914      -2422.9024
  -1214375.25346   -922842.32846  23817494.5484   23817498.3684
      -318.7194       -248.3524
  10870884.03445   8470813.67644  25464445.0714   25464450.6854
     -4242.6094      -3305.9294
   4149316.69847   3235580.09946  22268116.5324   22268118.7824
     -2205.2194      -1718.3524
  10026413.46146   7618736.64145  24335755.3994   24335758.7634
     -4293.8444      -3345.8524
 98  7  8 21 10  0.0050000  0  7G 3G 6G17G21G22G23G26
  -2659205.69746  -1971910.56645  24586728.5244   24586732.3214
       542.3754        422.6304
  15936848.44646  12408912.19245  24129994.6424   24129999.2004
     -5678.2194      -4424.5864
   8139925.19747   6342800.73847  22410008.8134   22410011.6854
     -3112.5944      -2425.3984
  -1209569.00446   -919097.15946  23818409.3604   23818413.3334
      -322.0164       -250.9214
  10934556.57845   8520428.59244  25476561.8064   25476568.0284
     -4246.8124      -3309.2054
   4182434.33847   3261386.06246  22274418.4784   22274421.2084
     -2210.3444      -1722.3464
  10090875.92546   7668967.13745  24348022.3994   24348025.8564
     -4301.0004      -3351.4294
 98  7  8 21 10 15.0050000  0  7G 3G 6G17G21G22G23G26
  -2667315.96446  -1978230.19245  24585185.4314   24585189.1814
       538.8754        419.9034
  16022047.05946  12475300.66545  24146207.5244   24146212.3994
     -5681.7504      -4427.3384
   8186635.29347   6379198.21847  22418897.3924   22418900.2744
     -3115.6254      -2427.7604
  -1204716.77946   -915316.16946  23819332.9154   23819336.6654
      -325.1414       -253.3564
  10998286.96545   8570088.60444  25488689.2674   25488695.0094
     -4250.7344      -3312.2614
   4215627.48447   3287250.85646  22280734.8844   22280737.5204
     -2215.6094      -1726.4494
  10155441.13946   7719277.68845  24360308.6494   24360311.8254
     -4307.9534      -3356.8474
 98  7  8 21 10 30.0050000  0  7G 3G 6G17G21G22G23G26
  -2675374.25446  -1984509.33845  24583652.3924   24583656.1304
       535.6564        417.3944
  16107299.02846  12541730.70945  24162430.5324   24162434.9854
     -5685.0474      -4429.9074
   8233394.17947   6415633.71447  22427795.2284   22427797.9354
     -3118.8444      -2430.2684
  -1199815.14946   -911496.67246  23820265.5174   23820269.3024
      -328.2974       -255.8164
  11062075.15745   8619793.63044  25500827.8924   25500833.5174
     -4254.2504      -3315.0004
   4248898.91647   3313176.65546  22287066.1574   22287068.7354
     -2220.4224      -1730.1994
  10220112.96246   7769671.32045  24372615.4314   24372617.9384
     -4314.8754      -3362.2404
 98  7  8 21 10 45.0050000  0  7G 3G 6G17G21G22G23G26
  -2683382.16446  -1990749.22145  24582127.9624   24582132.1574
       532.1724        414.6794
  16192601.10146  12608199.79345  24178663.1034   24178667.4624
     -5688.4224      -4432.5374
   8280205.51947   6452110.08447  22436703.1814   22436705.9354
     -3122.5784      -2433.1784
  -1194862.81746   -907637.67146  23821207.5714   23821211.2864
      -331.8444       -258.5804
  11125918.76645   8669541.85544  25512977.0094   25512981.7084
     -4258.1414      -3318.0324
   4282244.32747   3339160.10246  22293411.7984   22293414.2474
     -2225.5164      -1734.1684
  10284891.39246   7820148.01345  24384942.5094   24384945.6144
     -4322.1254      -3367.8904
 98  7  8 21 11  0.0050000  0  7G 3G 6G17G21G22G23G26
  -2691341.20246  -1996951.01545  24580613.6424   24580617.8604
       529.0634        412.2564
  16277949.66246  12674705.10645  24194904.2284   24194908.2944
     -5691.3444      -4434.8134
   8327069.88947   6488627.77647  22445621.2984   22445624.1694
     -3125.8914      -2435.7594
  -1189862.98346   -903741.65146  23822159.5014   23822162.9114
      -334.7034       -260.8084
  11189818.57345   8719333.87044  25525136.4074   25525142.0094
     -4261.8284      -3320.9054
   4315662.94747   3365200.59646  22299771.0094   22299773.2474
     -2230.2034      -1737.8214
  10349775.66446   7870707.19845  24397289.3454   24397292.8604
     -4329.0474      -3373.2834
 98  7  8 21 11 15.0050000  0  7G 3G 6G17G21G22G23G26
  -2699252.51646  -2003115.61745  24579107.8994   24579112.0364
       525.7194        409.6514
  16363341.71546  12741244.31645  24211153.7984   24211158.2864
     -5694.2504      -4437.0784
   8373980.91847   6525181.82447  22454548.1184   22454551.0244
     -3128.9224      -2438.1214
  -1184821.53146   -899813.21346  23823118.6814   23823122.5484
      -337.5314       -263.0114
  11253773.68345   8769168.99344  25537306.9624   25537313.8334
     -4265.5474      -3323.8034
   4349149.19747   3391293.78846  22306143.2744   22306145.7354
     -2234.6094      -1741.2544
  10414762.21246   7921346.05845  24409655.9624   24409659.5714
     -4335.8754      -3378.6044
 98  7  8 21 11 30.0050000  0  7G 3G 6G17G21G22G23G26
  -2707115.30846  -2009242.43345  24577611.7514   24577615.9114
       522.4844        407.1314
  16448772.95046  12807814.03545  24227410.9854   24227415.6144
     -5696.7974      -4439.0624
   8420934.27447   6561768.85947  22463483.0324   22463485.8454
     -3131.7034      -2440.2884
  -1179741.72646   -895854.87946  23824085.2824   23824088.9384
      -339.9534       -264.8994
  11317782.97345   8819046.29044  25549486.9384   25549493.6064
     -4269.1874      -3326.6404
   4382697.97147   3417435.70146  22312527.1034   22312529.7744
     -2238.7974      -1744.5174
  10479848.95246   7972062.99445  24422041.5794   24422045.0244
     -4342.5944      -3383.8394
 98  7  8 21 11 45.0050000  0  7G 3G 6G17G21G22G23G26
  -2714924.89246  -2015327.76845  24576125.4234   24576129.0444
       519.1414        404.5254
  16534249.76146  12874419.28245  24243676.6884   24243681.3644
     -5699.7504      -4441.3644
   8467934.99847   6598392.79847  22472427.0634   22472430.0524
     -3134.7194      -2442.6384
  -1174619.78846   -891863.72246  23825059.9154   23825063.6654
      -342.6094       -266.9684
  11381852.48045   8868970.55544  25561679.6344   25561686.5404
     -4273.1094      -3329.6964
   4416316.63947   3443632.07546  22318924.6654   22318927.2674
     -2243.4224      -1748.1214
  10545043.93946   8022864.27545  24434447.6424   24434450.8764
     -4349.7344      -3389.4034
 98  7  8 21 12  0.0050000  0  7G 3G 6G17G21G22G23G26
  -2722693.79346  -2021381.40445  24574647.1964   24574651.1344
       516.6094        402.5534
  16619760.47446  12941050.93945  24259948.7594   24259953.7164
     -5701.7504      -4442.9224
   8514972.05547   6635045.05047  22481377.7354   22481380.6424
     -3136.9534      -2444.3794
  -1169464.84246   -887846.83846  23826040.7044   23826044.3024
      -344.8594       -268.7224
  11445972.22445   8918933.92344  25573880.6494   25573886.6854
     -4276.1874      -3332.0944
   4449998.56147   3469877.73746  22325334.1574   22325336.7004
     -2247.5784      -1751.3604
  10610337.20446   8073742.14645  24446872.4934   24446875.7984
     -4356.0624      -3394.3344
 98  7  8 21 12 15.0050000  0  7G 3G 6G17G21G22G23G26
  -2730415.95845  -2027398.61545  24573177.6034   24573182.3134
       513.1724        399.8744
  16705309.52546  13007712.47245  24276228.3134   24276232.7434
     -5704.6254      -4445.1624
   8562050.55947   6671729.59947  22490336.7284   22490339.7394
     -3139.9534      -2446.7174
  -1164265.38046   -883795.27346  23827030.3064   23827034.0324
      -348.2664       -271.3764
  11510144.40345   8968938.17744  25586092.2354   25586098.5404
     -4279.9224      -3335.0044
   4483750.85047   3496178.23546  22331757.0404   22331759.6304
     -2252.5314      -1755.2194
  10675734.97246   8124701.44245  24459317.0484   24459320.8684
     -4363.4064      -3400.0574
 98  7  8 21 12 30.0050000  0  7G 3G 6G17G21G22G23G26
  -2738093.50045  -2033381.05645  24571716.3454   24571720.9504
       510.2344        397.5854
  16790895.82346  13074403.03445  24292515.1424   24292519.9234
     -5707.1564      -4447.1354
   8609165.52447   6708442.56247  22499302.2984   22499305.3924
     -3142.3444      -2448.5804
  -1159021.93946   -879709.43146  23828028.0174   23828031.7084
      -351.1254       -273.6044
  11574365.90545   9018980.81644  25598313.5094   25598319.1924
     -4283.2194      -3337.5734
   4517569.51747   3522530.45746  22338192.5954   22338195.1034
     -2256.8444      -1758.5804
  10741233.14946   8175738.98545  24471781.1344   24471784.6494
     -4369.9534      -3405.1584
 98  7  8 21 12 45.0050000  0  7G 3G 6G17G21G22G23G26
  -2745727.71146  -2039329.73945  24570263.9624   24570268.0054
       507.5004        395.4554
  16876518.58546  13141122.00745  24308808.5874   24308813.2394
     -5709.3914      -4448.8764
   8656316.29447   6745183.42247  22508274.8604   22508277.8134
     -3144.5164      -2450.2724
  -1153736.97246   -875591.24046  23829033.8134   23829037.7514
      -353.6564       -275.5764
  11638636.56044   9069061.82344  25610543.4854   25610549.7434
     -4286.4064      -3340.0574
   4551450.79947   3548931.47046  22344639.7514   22344642.0014
     -2260.9064      -1761.7454
  10806827.60546   8226851.55445  24484263.5484   24484267.2044
     -4376.1254      -3409.9684
 98  7  8 21 13  0.0050000  0  7G 3G 6G17G21G22G23G26
  -2753316.03846  -2045242.67145  24568820.0874   24568824.1654
       504.5314        393.1414
  16962179.73446  13207870.88245  24325109.5404   24325114.0874
     -5711.8754      -4450.8124
   8703502.06447   6781951.55747  22517254.0794   22517257.0674
     -3146.6414      -2451.9284
  -1148409.95946   -871440.27546  23830047.3214   23830050.8374
      -356.3914       -277.7074
  11702960.10645   9119183.99343  25622784.2824   25622791.0094
     -4289.7814      -3342.6874
   4585400.01047   3575385.41246  22351100.2674   22351102.5754
     -2265.4064      -1765.2524
  10872520.79846   8278041.04345  24496764.3844   24496767.9704
     -4382.7194      -3415.1064
 98  7  8 21 13 15.0050000  0  7G 3G 6G17G21G22G23G26
  -2760858.82946  -2051120.12345  24567384.2354   24567387.9034
       501.5474        390.8164
  17047879.16546  13274649.59645  24341417.2434   24341422.0364
     -5714.3754      -4452.7604
   8750719.50547   6818744.36847  22526239.0244   22526241.9894
     -3148.6564      -2453.4984
  -1143039.24646   -867255.26046  23831069.2354   23831072.8804
      -359.3914       -280.0454
  11767333.90245   9169345.35444  25635034.4314   25635040.7704
     -4293.0164      -3345.2074
   4619417.29947   3601892.40046  22357573.5094   22357575.7824
     -2269.8444      -1768.7094
  10938313.06046   8329307.74345  24509284.1574   24509287.9894
     -4389.2504      -3420.1954
 98  7  8 21 13 30.0050000  0  7G 3G 6G17G21G22G23G26
  -2768356.41346  -2056962.33345  24565957.8684   24565961.9114
       498.2344        388.2354
  17133616.40346  13341457.75445  24357732.3764   24357737.9314
     -5717.1724      -4454.9394
   8797967.74847   6855561.18147  22535230.0564   22535233.2314
     -3151.0784      -2455.3864
  -1137622.03246   -863034.01446  23832100.1104   23832103.5444
      -362.7814       -282.6874
  11831755.23145   9219543.73644  25647293.3134   25647299.9114
     -4296.3914      -3347.8374
   4653499.85747   3628450.25346  22364059.2284   22364061.4194
     -2274.4374      -1772.2894
  11004204.16946   8380651.46545  24521822.7984   24521826.6184
     -4396.1564      -3425.5764
 98  7  8 21 13 45.0050000  0  7G 3G 6G17G21G22G23G26
  -2775808.87646  -2062769.41845  24564539.5564   24564543.6924
       495.6884        386.2504
  17219393.47246  13408296.95345  24374055.6034   24374061.3454
     -5719.5314      -4456.7784
   8845250.16247   6892404.62147  22544227.6264   22544230.6964
     -3152.9694      -2456.8594
  -1132159.23046   -858777.24946  23833139.6264   23833143.1184
      -365.3754       -284.7084
  11896222.65945   9269778.01244  25659561.0954   25659566.8024
     -4298.9374      -3349.8214
   4687648.69947   3655059.75346  22370557.5634   22370559.8374
     -2278.5164      -1775.4674
  11070195.84046   8432073.54045  24534380.6814   24534384.4074
     -4402.4694      -3430.4954
 98  7  8 21 14  0.0050000  0  7G 3G 6G17G21G22G23G26
  -2783229.47746  -2068551.63545  24563127.5564   24563131.6224
       493.0634        384.2054
  17305198.11546  13475157.64745  24390384.0014   24390389.4154
     -5721.6874      -4458.4584
   8892553.66147   6929264.48647  22553229.0794   22553232.1614
     -3154.7974      -2458.2834
  -1126663.69746   -854494.97346  23834185.3844   23834189.0754
      -367.9694       -286.7294
  11960719.46045   9320035.23344  25671834.3454   25671841.1534
     -4301.2664      -3351.6364
   4721850.07847   3681710.19246  22377065.8994   22377067.8924
     -2282.3124      -1778.4254
  11136273.71646   8483562.80045  24546954.8924   24546958.1034
     -4408.5784      -3435.2564
 98  7  8 21 14 15.0050000  0  7G 3G 6G17G21G22G23G26
  -2790601.76046  -2074296.22345  24561724.4384   24561728.3064
       489.7344        381.6114
  17391044.06746  13542050.52945  24406719.5794   24406724.3844
     -5724.6414      -4460.7594
   8939893.23247   6966152.46647  22562237.7514   22562240.6924
     -3157.3444      -2460.2684
  -1121121.26246   -850176.15046  23835240.0874   23835243.9314
      -371.1724       -289.2254
  12025258.70745   9370325.49944  25684115.7044   25684122.8684
     -4304.1414      -3353.8764
   4756115.11247   3708410.23246  22383586.0244   22383588.1814
     -2286.4224      -1781.6274
  11202451.02146   8535129.52845  24559547.8134   24559551.5174
     -4415.2344      -3440.4424
 98  7  8 21 14 30.0050000  0  7G 3G 6G17G21G22G23G26
  -2797924.22446  -2080001.97645  24560331.1264   24560334.8884
       486.6414        379.2004
  17476935.05346  13608978.49345  24423064.3684   24423069.4424
     -5727.4064      -4462.9144
   8987272.18347   7003071.12547  22571253.6424   22571256.5954
     -3159.8284      -2462.2044
  -1115532.73746   -845821.41446  23836303.2744   23836307.0834
      -373.8914       -291.3434
  12089840.60045   9420648.98044  25696405.6494   25696411.7434
     -4306.8124      -3355.9584
   4790439.54847   3735156.56146  22390117.6734   22390119.7824
     -2290.1094      -1784.5014
  11268727.71946   8586773.70145  24572160.1424   24572164.0324
     -4421.6414      -3445.4344
 98  7  8 21 14 45.0050000  0  7G 3G 6G17G21G22G23G26
  -2805195.48746  -2085667.85645  24558947.4314   24558951.3564
       482.9694        376.3394
  17562870.57346  13675941.16145  24439417.5244   24439422.2824
     -5730.5624      -4465.3734
   9034693.93247   7040023.13847  22580277.4314   22580280.3724
     -3162.9844      -2464.6634
  -1109900.64746   -841432.73546  23837375.0874   23837378.7904
      -376.9694       -293.7424
  12154469.15345   9471008.85244  25708703.7674   25708709.2634
     -4310.2194      -3358.6124
   4824824.05147   3761949.69546  22396661.0014   22396663.1924
     -2294.3914      -1787.8374
  11335105.70846   8638496.81145  24584791.3604   24584795.0404
     -4428.7344      -3450.9624
 98  7  8 21 15  0.0050000  0  7G 3G 6G17G21G22G23G26
  -2812412.48046  -2091291.44345  24557573.8064   24557577.6494
       479.0944        373.3204
  17648852.99446  13742940.38945  24455779.8534   24455784.8334
     -5733.9064      -4467.9794
   9082161.56947   7077010.91047  22589310.3604   22589313.3134
     -3166.1724      -2467.1474
  -1104221.75546   -837007.58446  23838455.7674   23838459.6574
      -380.3594       -296.3844
  12219147.39945   9521407.40344  25721011.5714   25721017.6304
     -4313.7194      -3361.3394
   4859272.70447   3788792.81346  22403216.4234   22403218.4854
     -2298.9694      -1791.4044
  11401590.64546   8690303.24645  24597443.1884   24597446.5634
     -4436.0944      -3456.6964
 98  7  8 21 15 15.0060000  0  7G 3G 6G17G21G22G23G26
  -2819571.12946  -2096869.56745  24556211.7324   24556215.6584
       475.1094        370.2154
  17734889.99246  13809982.13445  24472151.6314   24472156.7174
     -5737.1094      -4470.4754
   9129679.01147   7114037.48647  22598352.6004   22598355.5534
     -3169.2814      -2469.5704
  -1098492.56246   -832543.23746  23839545.7794   23839549.3774
      -383.6564       -298.9534
  12283880.16945   9571848.46844  25733330.1234   25733337.0064
     -4316.9844      -3363.8844
   4893792.29947   3815691.21146  22409785.1864   22409787.2014
     -2303.5164      -1794.9474
  11468189.33846   8742198.33445  24610116.3114   24610120.0024
     -4443.2504      -3462.2734
 98  7  8 21 15 30.0060000  0  7G 3G 6G17G21G22G23G26
  -2826669.47346  -2102400.70945  24554860.6154   24554863.9904
       471.1254        367.1104
  17820968.68446  13877056.35845  24488532.2404   24488537.0924
     -5740.2664      -4472.9344
   9177239.88847   7151097.91147  22607403.1234   22607406.0764
     -3172.3444      -2471.9564
  -1092716.57046   -828042.42646  23840645.0294   23840648.8034
      -386.6094       -301.2544
  12348658.27345   9622324.87344  25745656.8814   25745663.8694
     -4320.2814      -3366.4534
   4928376.24847   3842639.76046  22416366.3184   22416368.5104
     -2307.8444      -1798.3204
  11534888.64146   8794171.82245  24622808.6934   24622812.0684
     -4450.1724      -3467.6664
 98  7  8 21 15 45.0060000  0  7G 3G 6G17G21G22G23G26
  -2833699.13546  -2107878.31845  24553523.1544   24553526.4714
       465.8914        363.0324
  17907104.61846  13944175.19645  24504923.3814   24504928.5614
     -5744.8594      -4476.5144
   9224855.05247   7188200.63247  22616464.0924   22616466.9864
     -3176.6414      -2475.3044
  -1086889.85846   -823502.09346  23841753.6154   23841757.2604
      -390.6094       -304.3714
  12413494.42644   9672846.47744  25757994.6004   25758001.0924
     -4324.8444      -3370.0084
   4963033.66347   3869645.55146  22422961.3894   22422963.8964
     -2313.5314      -1802.7524
  11601700.68646   8846233.15545  24635523.0534   24635526.9324
     -4458.4064      -3474.0834
 98  7  8 21 16  0.0060000  0  7G 3G 6G17G21G22G23G26
  -2840653.19846  -2113297.02445  24552199.5294   24552202.8224
       461.4384        359.5624
  17993307.42646  14011346.14245  24521327.4904   24521332.7284
     -5748.6724      -4479.4854
   9272532.37347   7225351.79347  22625536.9904   22625539.7794
     -3180.1724      -2478.0564
  -1081005.12146   -818916.54546  23842873.1934   23842876.9674
      -393.9534       -306.9764
  12478397.68645   9723420.40144  25770345.5374   25770352.9824
     -4328.7814      -3373.0764
   4997776.23147   3896717.69346  22429572.6154   22429575.0644
     -2318.6874      -1806.7694
  11668634.50046   8898389.36645  24648260.1864   24648263.8654
     -4465.9844      -3479.9884
 98  7  8 21 16 15.0060000  0  7G 3G 6G17G21G22G23G26
  -2847538.17946  -2118661.90245  24550889.3894   24550892.9864
       456.5314        355.7394
  18079568.00746  14078562.11045  24537742.1074   24537746.8424
     -5752.7814      -4482.6874
   9320264.18447   7262545.41247  22634619.6934   22634622.5414
     -3184.1094      -2481.1244
  -1075066.87846   -814289.30746  23844003.7094   23844007.1664
      -397.8284       -309.9964
  12543362.08245   9774041.94544  25782708.0064   25782713.8424
     -4333.2664      -3376.5714
   5032598.02547   3923851.57346  22436198.9514   22436201.5884
     -2324.2974      -1811.1404
  11735684.15046   8950635.84145  24661019.2014   24661022.8114
     -4474.0164      -3486.2464
 98  7  8 21 16 30.0060000  0  7G 3G 6G17G21G22G23G26
  -2854356.48946  -2123974.82345  24549592.1704   24549596.0494
       452.4844        352.5854
  18165883.37046  14145820.75945  24554167.5214   24554172.1274
     -5755.9844      -4485.1834
   9368049.13447   7299780.44347  22643712.9824   22643715.9004
     -3187.3284      -2483.6324
  -1069076.54746   -809621.47546  23845143.6234   23845147.2214
      -400.9694       -312.4434
  12608389.22145   9824712.42544  25795082.5454   25795089.2484
     -4337.0784      -3379.5414
   5067497.59847   3951046.06046  22442839.9754   22442842.4364
     -2329.1094      -1814.8904
  11802846.98446   9002970.51545  24673799.6394   24673802.7794
     -4481.1414      -3491.7984
 98  7  8 21 16 45.0060000  0  7G 3G 6G17G21G22G23G26
  -2861109.40246  -2129236.79645  24548307.4904   24548311.3344
       447.7664        348.9084
  18252249.94946  14213119.32245  24570602.8034   24570606.7874
     -5759.6254      -4488.0194
   9415885.20547   7337055.29847  22652815.8114   22652818.7754
     -3190.8594      -2486.3844
  -1063035.70646   -804914.29246  23846293.1864   23846296.7954
      -404.5944       -315.2684
  12673476.49145   9875429.71144  25807468.6154   25807474.9084
     -4341.3124      -3382.8414
   5102475.87547   3978301.87346  22449496.1934   22449498.3734
     -2334.7344      -1819.2744
  11870121.06546   9055391.86645  24686601.6704   24686604.4124
     -4488.8284      -3497.7884
 98  7  8 21 17  0.0060000  0  7G 3G 6G17G21G22G23G26
  -2867788.48946  -2134441.23845  24547036.2404   24547039.9204
       442.5004        344.8054
  18338673.50546  14280462.27045  24587048.6934   24587053.0064
     -5763.8124      -4491.2824
   9463774.58747   7374371.70547  22661928.9984   22661931.9984
     -3194.5944      -2489.2944
  -1056937.26346   -800162.22046  23847453.6704   23847457.1034
      -408.7814       -318.5314
  12738627.69845   9926196.83044  25819865.9594   25819871.4904
     -4345.7034      -3386.2624
   5137541.86647   4005626.03546  22456169.1154   22456171.6234
     -2340.9224      -1824.0954
  11937511.45346   9107903.85845  24699425.7324   24699428.6864
     -4496.7344      -3503.9494
 98  7  8 21 17 15.0060000  0  7G 3G 6G17G21G22G23G26
  -2874392.46146  -2139587.16345  24545779.3264   24545783.3934
       437.7974        341.1404
  18425155.73646  14347850.94845  24603505.4674   24603510.2604
     -5767.3594      -4494.0464
   9511714.53947   7411727.51047  22671051.5214   22671054.4514
     -3197.6254      -2491.6564
  -1050780.52546   -795364.72346  23848625.0764   23848628.7444
      -412.2664       -321.2464
  12803838.45445   9977010.35343  25832275.3574   25832282.1664
     -4349.2664      -3389.0384
   5172694.48547   4033017.69746  22462858.6004   22462861.0964
     -2346.3124      -1828.2954
  12005014.06646   9160503.30645  24712270.8964   24712274.0144
     -4503.8124      -3509.4644
 98  7  8 21 17 30.0060000  0  7G 3G 6G17G21G22G23G26
  -2880921.14946  -2144674.41045  24544536.8734   24544540.9394
       432.8914        337.3174
  18511696.45646  14415285.20445  24619974.1154   24619979.0024
     -5771.2664      -4497.0904
   9559704.78547   7449122.50847  22680183.8504   22680186.9324
     -3200.8914      -2494.2004
  -1044568.45046   -790524.11146  23849807.1784   23849810.8694
      -415.8284       -324.0224
  12869106.81245  10027868.76344  25844695.5064   25844702.7754
     -4353.0474      -3391.9854
   5207931.75947   4060475.32146  22469563.8264   22469566.2174
     -2351.7344      -1832.5204
  12072627.44246   9213189.04845  24725137.2014   24725140.6354
     -4511.0784      -3515.1264
 98  7  8 21 17 45.0060000  0  7G 3G 6G17G21G22G23G26
  -2887380.27146  -2149707.45945  24543307.6704   24543311.9474
       428.1094        333.5924
  18598294.24746  14482763.92245  24636453.1234   24636457.6584
     -5775.2814      -4500.2194
   9607742.06847   7486554.15947  22689325.1544   22689328.1434
     -3204.2664      -2496.8304
  -1038305.19446   -785643.61746  23850998.8114   23851002.4204
      -419.5314       -326.9074
  12934428.25045  10078768.53844  25857124.7874   25857130.9394
     -4356.6564      -3394.7974
   5243245.27247   4087992.35446  22476283.8964   22476286.2644
     -2356.9534      -1836.5874
  12140347.84646   9265958.19145  24738023.8574   24738027.2214
     -4518.5474      -3520.9464
 98  7  8 21 18  0.0060000  0  7G 3G 6G17G21G22G23G26
  -2893765.37146  -2154682.82845  24542092.7014   24542095.8774
       423.1254        329.7084
  18684953.33146  14550290.40945  24652943.7794   24652949.2994
     -5779.2974      -4503.3484
   9655831.58447   7524026.50647  22698476.3814   22698479.2644
     -3207.7664      -2499.5584
  -1031982.91646   -780717.13346  23852202.1784   23852205.5764
      -423.5784       -330.0614
  12999805.67645  10129711.94144  25869567.0374   25869573.6464
     -4360.4064      -3397.7194
   5278640.92547   4115573.39446  22483019.4754   22483021.7364
     -2362.5944      -1840.9824
  12208181.57146   9318815.64145  24750932.3504   24750935.9594
     -4526.0164      -3526.7654
 98  7  8 21 18 15.0060000  0  7G 3G 6G17G21G22G23G26
  -2900064.48046  -2159591.18245  24540893.9284   24540897.4674
       417.0784        324.9964
  18771679.99946  14617869.55645  24669447.4674   24669452.4364
     -5783.8124      -4506.8674
   9703982.88247   7561546.99647  22707639.0214   22707642.0214
     -3212.0004      -2502.8574
  -1025589.60046   -775735.28746  23853418.8034   23853422.1194
      -428.5164       -333.9084
  13065249.02945  10180706.68944  25882020.4754   25882026.6394
     -4364.9534      -3401.2624
   5314129.58947   4143226.91146  22489772.7094   22489774.7254
     -2368.8124      -1845.8284
  12276134.40946   9371765.91245  24763863.5454   24763866.9204
     -4533.9224      -3532.9264
 98  7  8 21 18 30.0060000  0  7G 3G 6G17G21G22G23G26
  -2906277.40946  -2164432.38645  24539711.7254   24539715.2874
       411.2344        320.4424
  18858468.11146  14685496.57945  24685962.6004   24685967.2754
     -5788.0164      -4510.1424
   9752191.87947   7599112.44847  22716813.1704   22716815.9824
     -3215.9534      -2505.9374
  -1019127.11246   -770699.54646  23854648.3504   23854651.7134
      -433.1724       -337.5374
  13130754.61745  10231749.99144  25894485.7094   25894492.0374
     -4369.2034      -3404.5744
   5349705.42847   4170948.35246  22496542.5294   22496544.6624
     -2374.7034      -1850.4184
  12344199.40146   9424803.56045  24776815.6154   24776818.9674
     -4541.4844      -3538.8194
 98  7  8 21 18 45.0060000  0  7G 3G 6G17G21G22G23G26
  -2912401.96046  -2169204.72645  24538546.0684   24538549.5374
       405.6414        316.0844
  18945320.03846  14753173.33645  24702490.2564   24702494.7794
     -5792.0314      -4513.2714
   9800460.50347   7636724.36347  22725998.3424   22726001.2834
     -3219.5624      -2508.7504
  -1012595.86046   -765610.22646  23855891.3654   23855894.7874
      -437.3444       -340.7874
  13196321.71245  10282841.15943  25906962.3964   25906968.9004
     -4372.7974      -3407.3744
   5385369.40447   4198738.47446  22503329.1704   22503331.4904
     -2380.2664      -1854.7524
  12412378.92346   9477930.45545  24789789.7174   24789793.2214
     -4548.8914      -3544.5904
 98  7  8 21 19  0.0060000  0  7G 3G 6G17G21G22G23G26
  -2918442.72546  -2173911.78945  24537396.3424   24537399.8464
       399.8134        311.5424
  19032232.54346  14820897.27545  24719029.1314   24719033.8424
     -5796.2504      -4516.5584
   9848781.81847   7674377.33847  22735193.3964   22735196.5494
     -3223.2504      -2511.6234
  -1006003.29346   -760473.13046  23857145.5844   23857148.9824
      -441.6564       -344.1484
  13261942.80945  10333974.42944  25919449.5454   25919456.2714
     -4376.7034      -3410.4184
   5421117.12947   4226593.85246  22510131.7324   22510134.2524
     -2386.0004      -1859.2214
  12480670.38346   9531144.57845  24802784.7874   24802788.1274
     -4556.6094      -3550.6054
 98  7  8 21 19 15.0060000  0  7G 3G 6G17G21G22G23G26
  -2924403.50046  -2178556.50945  24536262.1934   24536266.3534
       394.7814        307.6224
  19119201.47446  14888665.19045  24735578.9514   24735584.2484
     -5799.7974      -4519.3224
   9897153.77447   7712069.77047  22744398.2564   22744401.3034
     -3226.6564      -2514.2784
   -999351.87346   -755290.17646  23858411.4124   23858415.2214
      -445.4224       -347.0824
  13327618.22945  10385150.00444  25931947.2404   25931953.8854
     -4380.2814      -3413.2064
   5456943.34547   4254510.39446  22516949.1704   22516951.6434
     -2391.0004      -1863.1174
  12549071.39046   9584444.07945  24815801.1784   24815805.0574
     -4563.7974      -3556.2054
 98  7  8 21 19 30.0060000  0  7G 3G 6G17G21G22G23G26
  -2930284.47546  -2183139.06045  24535143.3424   24535147.0574
       389.1414        303.2264
  19206228.29546  14956478.24245  24752139.8964   24752144.5614
     -5804.0004      -4522.5974
   9945585.25147   7749808.58047  22753614.4824   22753617.5294
     -3231.1414      -2517.7724
   -992638.07346   -750058.60746  23859689.1234   23859692.8614
      -450.0314       -350.6744
  13393354.20845  10436372.81044  25944456.7404   25944463.1744
     -4384.7664      -3416.7004
   5492849.93447   4282489.56246  22523782.1074   22523784.2404
     -2396.8124      -1867.6464
  12617587.18246   9637832.99945  24828839.4044   24828842.7094
     -4571.9064      -3562.5244
 98  7  8 21 19 45.0060000  0  7G 3G 6G17G21G22G23G26
  -2936085.31546  -2187659.15845  24534038.9434   24534042.7874
       384.3444        299.4894
  19293313.37846  15024336.65745  24768710.9594   24768715.7404
     -5807.2814      -4525.1544
   9994080.50247   7787597.09047  22762842.7794   22762845.7564
     -3234.9064      -2520.7064
   -985858.03846   -744775.42946  23860978.9824   23860982.6624
      -453.9534       -353.7304
  13459155.15945  10487646.19244  25956978.1934   25956983.7834
     -4388.6874      -3419.7564
   5528840.07347   4310533.83946  22530630.6864   22530632.8654
     -2401.8594      -1871.5794
  12686220.46646   9691313.47045  24841899.8894   24841903.3574
     -4579.1414      -3568.1624
 98  7  8 21 20  0.0060000  0  7G 3G 6G17G21G22G23G26
  -2941806.41646  -2192117.11945  24532950.3894   24532953.7524
       378.6414        295.0454
  19380453.86245  15092238.24345  24785293.7094   24785299.2054
     -5811.2504      -4528.2474
  10042641.03847   7825436.46747  22772083.6074   22772086.6784
     -3239.5784      -2524.3474
   -979010.58346   -739439.72146  23862282.1704   23862285.6974
      -458.8914       -357.5774
  13525022.25245  10538971.19044  25969513.1314   25969520.5414
     -4393.4534      -3423.4704
   5564914.51547   4338643.80346  22537495.5684   22537497.8424
     -2407.9534      -1876.3274
  12754970.04546   9744884.58045  24854982.4674   24854985.5724
     -4587.2664      -3574.4934
 98  7  8 21 20 15.0060000  0  7G 3G 6G17G21G22G23G26
  -2947447.88046  -2196513.03245  24531877.0534   24531880.3114
       373.5474        291.0754
  19467647.30545  15160181.10145  24801886.0144   24801891.5454
     -5814.6094      -4530.8644
  10091263.61647   7863324.18947  22781336.3184   22781339.3774
     -3243.5314      -2527.4274
   -972094.82646   -734050.78146  23863598.2714   23863602.1394
      -463.2504       -360.9744
  13590955.94445  10590348.01144  25982059.4824   25982067.0104
     -4397.7504      -3426.8184
   5601074.61947   4366820.51546  22544376.4044   22544378.5024
     -2413.3444      -1880.5284
  12823832.76546   9798543.84045  24868087.0454   24868090.4784
     -4594.5004      -3580.1304
 98  7  8 21 20 30.0060000  0  7G 3G 6G17G21G22G23G26
  -2953012.94946  -2200849.41545  24530817.9594   24530821.3694
       368.4844        287.1314
  19554893.73545  15228165.26045  24818488.7564   24818494.4044
     -5818.2974      -4533.7384
  10139948.68547   7901260.60147  22790600.7714   22790603.9944
     -3247.8284      -2530.7754
   -965112.65046   -728610.09446  23864926.4204   23864930.2644
      -467.7344       -364.4684
  13656955.33345  10641776.04444  25994619.2874   25994626.8734
     -4402.1564      -3430.2524
   5637314.53547   4395059.42446  22551272.8344   22551275.0254
     -2418.6724      -1884.6794
  12892807.92746   9852290.70945  24881212.2874   24881215.6974
     -4602.2664      -3586.1814
 98  7  8 21 20 45.0060000  0  8G 3G 6G 1G17G21G22G23G26
  -2958503.92746  -2205128.06745  24529773.0374   24529776.5184
       363.8134        283.4904
  19642197.72445  15296194.25945  24835101.7254   24835106.6114
     -5822.0944      -4536.6964
    -15552.42453                  26503529.3574
      1296.6564
  10188699.26447   7939248.06947  22799877.6074   22799880.7014
     -3252.0624      -2534.0754
   -958064.69446   -723118.14146  23866267.9984   23866271.6544
      -471.7814       -367.6224
  13723020.65745  10693255.42244  26007190.7094   26007196.4394
     -4406.3594      -3433.5274
   5673636.11447   4423361.95646  22558184.3034   22558186.4824
     -2424.0164      -1888.8434
  12961902.35546   9906130.52845  24894360.9754   24894364.3964
     -4610.1254      -3592.3054
 98  7  8 21 21  0.0060000  0  8G 3G 6G 1G17G21G22G23G26
  -2963924.52046  -2209351.86245  24528741.3814   24528744.9674
       359.0164        279.7524
  19729559.30445  15364268.13145  24851726.2404   24851732.0534
     -5826.0314      -4539.7654
    -35007.60943                  26499826.6154
      1297.4064
  10237513.35947   7977285.02347  22809166.5534   22809169.6464
     -3256.4224      -2537.4724
   -950954.91346   -717578.02246  23867620.9364   23867624.4754
      -476.1414       -371.0194
  13789150.28945  10744784.97344  26019774.7174   26019780.9754
     -4410.9374      -3437.0944
   5710037.64147   4451726.79246  22565111.4904   22565113.5414
     -2429.4694      -1893.0934
  13031113.69046   9960061.43845  24907530.9904   24907534.2714
     -4617.9694      -3598.4174
 98  7  8 21 21 15.0060000  0  8G 3G 6G 1G17G21G22G23G26
  -2969277.14646  -2213522.71445  24527722.6934   24527726.3384
       354.5944        276.3074
  19816974.67345  15432383.91145  24868360.8894   24868366.2214
     -5829.4534      -4542.4314
    -54476.34444                  26496121.9364
      1298.3754
  10286390.22147   8015370.88947  22818467.5764   22818470.5764
     -3260.5944      -2540.7224
   -943782.19646   -711988.85846  23868985.9284   23868989.2914
      -480.3444       -374.2944
  13855345.88945  10796365.91344  26032371.4594   26032378.9164
     -4415.2344      -3440.4424
   5746516.68947   4480152.03746  22572053.1784   22572055.2284
     -2434.5004      -1897.0134
  13100436.36746  10014079.10745  24920723.2794   24920726.6434
     -4625.1254      -3603.9944
 98  7  8 21 21 30.0060000  0  8G 3G 6G 1G17G21G22G23G26
  -2974564.85046  -2217642.97645  24526716.6784   24526720.4754
       350.4534        273.0804
  19904440.79645  15500539.25745  24885005.1544   24885010.2404
     -5832.6414      -4544.9154
    -73960.53844                  26492413.8734
      1299.5944
  10335330.58247   8053506.23647  22827780.9284   22827783.9044
     -3264.7194      -2543.9374
   -936547.29846   -706351.23246  23870362.4204   23870365.7364
      -484.2344       -377.3254
  13921604.94545  10847996.26644  26044980.0454   26044986.5844
     -4419.2034      -3443.5354
   5783071.85747   4508636.59146  22579009.2564   22579011.4124
     -2439.4694      -1900.8854
  13169866.11046  10068180.21345  24933934.9434   24933938.4364
     -4632.0624      -3609.3994
 98  7  8 21 21 45.0060000  0  8G 3G 6G 1G17G21G22G23G26
  -2979786.50846  -2221711.75745  24525723.0454   24525726.8894
       345.7504        269.4164
  19991957.16745  15568733.75145  24901659.2954   24901665.4824
     -5836.2194      -4547.7034
    -93461.39343                  26488702.9044
      1300.5634
  10384332.22147   8091689.32647  22837105.2874   22837108.1354
     -3268.7664      -2547.0904
   -929251.88946   -700666.46446  23871750.4124   23871753.7994
      -488.4534       -380.6134
  13987923.67745  10899673.11944  26057600.1544   26057606.7404
     -4423.2814      -3446.7134
   5819703.65547   4537180.85746  22585980.0534   22585982.3964
     -2444.7814      -1905.0244
  13239401.42446  10122363.56645  24947166.8654   24947170.2404
     -4639.2664      -3615.0124
 98  7  8 21 22  0.0060000  0  8G 3G 6G 1G17G21G22G23G26
  -2984938.10846  -2225725.96245  24524742.5064   24524745.4714
       341.1564        265.8364
  20079525.38445  15636968.62145  24918322.6864   24918328.6394
     -5839.5164      -4550.2724
   -112978.18744    -11153.12452  26484988.1864   26484998.8534
      1301.6254       1014.2534
  10433389.93747   8129916.11847  22846440.4594   22846443.4004
     -3272.2344      -2549.7934
   -921896.01746   -694934.58646  23873150.4044   23873154.0024
      -492.2974       -383.6084
  14054300.99845  10951395.64544  26070231.3964   26070237.7714
     -4426.9534      -3449.5744
   5856412.24047   4565784.96046  22592965.4124   22592967.6974
     -2449.6414      -1908.8114
  13309041.50946  10176628.56845  24960419.4044   24960422.7794
     -4646.0944      -3620.3334
 98  7  8 21 22 15.0060000  0  8G 3G 6G 1G17G21G22G23G26
  -2990015.32546  -2229682.20145  24523776.6004   24523779.3654
       336.0004        261.8184
  20167149.85745  15705247.34645  24934997.3184   24935003.2364
     -5843.5164      -4553.3894
   -132503.64143    -26367.58142  26481273.5614   26481283.0924
      1301.9384       1014.4974
  10482505.31147   8168187.83847  22855787.1624   22855790.1154
     -3276.2504      -2552.9224
   -914475.96746   -689152.68946  23874562.2644   23874565.5684
      -496.8124       -387.1274
  14120736.50745  11003163.49644  26082873.8504   26082880.3654
     -4430.9224      -3452.6664
   5893198.08047   4594449.25846  22599965.5844   22599967.6004
     -2454.9224      -1912.9264
  13378790.86246  10230978.70545  24973692.2254   24973695.7524
     -4653.6094      -3626.1894
 98  7  8 21 22 30.0060000  0  8G 3G 6G 1G17G21G22G23G26
  -2995017.87546  -2233580.25945  24522824.3654   24522827.9634
       331.0164        257.9344
  20254830.98845  15773570.24445  24951682.2714   24951688.6824
     -5847.2344      -4556.2874
   -152035.44743    -41587.02042  26477555.3894   26477566.6434
      1302.3134       1014.7894
  10531678.83447   8206504.86547  22865144.3034   22865147.1154
     -3280.2344      -2556.0274
   -906991.87646   -683320.90246  23875986.6004   23875989.9284
      -501.0004       -390.3904
  14187228.74345  11054975.54444  26095527.0374   26095533.3424
     -4434.6564      -3455.5764
   5930060.74747   4623173.42246  22606980.2874   22606982.4674
     -2460.0944      -1916.9564
  13448652.03346  10285415.97845  24986985.9904   24986989.7994
     -4661.2194      -3632.1194
 98  7  8 21 22 45.0060000  0  8G 3G 6G 1G17G21G22G23G26
  -2999946.75246  -2237420.91045  24521886.3264   24521889.8424
       326.0474        254.0634
  20342564.14045  15841933.64845  24968377.6074   24968383.6544
     -5850.5624      -4558.8804
   -171574.50543    -56812.07642  26473837.9364   26473849.7874
      1302.7664       1015.1424
  10580910.18147   8244866.95247  22874512.7094   22874515.5684
     -3284.0004      -2558.9614
   -899447.78046   -677442.34246  23877421.9044   23877425.1394
      -504.9694       -393.4824
  14253774.19345  11106829.09844  26108190.3184   26108197.1784
     -4438.1414      -3458.2914
   5967000.96947   4651958.02346  22614009.7644   22614012.0024
     -2465.3914      -1921.0844
  13518626.15846  10339941.27245  25000301.6784   25000305.3934
     -4668.6724      -3637.9264
 98  7  8 21 23  0.0060000  0  8G 3G 6G 1G17G21G22G23G26
  -3004795.96346  -2241199.48445  24520963.4204   24520966.7484
       320.5314        249.7654
  20430348.42645  15910336.87145  24985082.4204   24985088.3384
     -5853.8754      -4561.4614
   -191114.80343    -72038.15842  26470118.7874   26470130.5574
      1302.6884       1015.0814
  10630200.30247   8283274.84247  22883892.4204   22883895.2794
     -3287.9064      -2562.0054
   -891841.56546   -671515.38046  23878869.4674   23878872.5024
      -509.1564       -396.7454
  14320374.19644  11158725.12743  26120863.3424   26120869.3074
     -4441.7664      -3461.1164
   6004024.38147   4680807.44246  22621055.2324   22621057.6584
     -2470.9374      -1925.4064
  13588712.07946  10394553.66445  25013638.4754   25013642.3534
     -4675.9694      -3643.6124
 98  7  8 21 23 15.0060000  0  8G 3G 6G 1G17G21G22G23G26
  -3009563.71346  -2244914.57445  24520056.4124   24520059.6934
       315.0164        245.4674
  20518178.33245  15978775.68445  25001795.8814   25001801.5064
     -5856.9374      -4563.8474
   -210656.15943    -87265.02242  26466400.7254   26466411.4164
      1302.6254       1015.0324
  10679546.14947   8321726.14847  22893282.7484   22893285.7134
     -3291.7194      -2564.9764
   -884172.88646   -665539.75146  23880328.8654   23880332.2404
      -513.5164       -400.1424
  14387024.71044  11210660.49943  26133546.5064   26133552.7524
     -4445.0784      -3463.6974
   6041127.71447   4709719.13846  22628115.5374   22628117.9754
     -2476.3444      -1929.6194
  13658904.45146  10449249.01045  25026995.8184   25026999.1824
     -4683.1874      -3649.2374
 98  7  8 21 23 30.0060000  0  8G 3G 6G 1G17G21G22G23G26
  -3014246.21646  -2248563.24445  24519165.1784   24519168.3184
       309.1254        240.8774
  20606056.28245  16047251.94645  25018518.9514   25018525.6314
     -5860.2814      -4566.4534
   -230194.29543   -102489.38842  26462682.0844   26462690.4324
      1302.3594       1014.8254
  10728950.95047   8360223.39647  22902684.2014   22902687.1664
     -3295.7194      -2568.0934
   -876437.14246   -659511.86146  23881800.8034   23881804.2364
      -518.1094       -403.7224
  14453724.57644  11262634.35743  26146239.7094   26146246.9784
     -4448.4224      -3466.3034
   6078314.78847   4738696.08746  22635192.1864   22635194.6114
     -2482.0944      -1934.0994
  13729207.59046  10504030.68445  25040373.9514   25040377.8304
     -4690.7664      -3655.1424
 98  7  8 21 23 45.0060000  0  8G 3G 6G 1G17G21G22G23G26
  -3018841.48746  -2252143.94245  24518290.8964   24518294.0724
       303.4534        236.4574
  20693981.76245  16115765.21445  25035250.1394   25035256.2444
     -5863.2034      -4568.7304
   -249731.39643   -117712.93742  26458965.5144   26458971.7254
      1302.5474       1014.9724
  10778412.07947   8398764.53347  22912096.0144   22912098.8614
     -3299.1094      -2570.7354
   -868634.77246   -653432.06146  23883285.3114   23883289.0374
      -522.3124       -406.9974
  14520471.80644  11314645.12143  26158941.7644   26158948.3034
     -4451.2194      -3468.4824
   6115585.90547   4767738.52146  22642284.5294   22642286.9554
     -2487.4064      -1938.2394
  13799623.30946  10558900.06745  25053773.5144   25053777.0184
     -4698.0624      -3660.8284
 98  7  8 21 24  0.0060000  0  8G 3G 6G 1G17G21G22G23G26
  -3023349.24446  -2255656.45045  24517432.9984   24517436.1274
       297.2664        231.6364
  20781954.45545  16184315.28745  25051990.9754   25051997.6544
     -5866.8284      -4571.5544
   -269270.01644   -132937.69843  26455246.5374   26455255.5184
      1302.2974       1014.7774
  10827924.09047   8437345.32447  22921518.0924   22921520.9284
     -3302.8754      -2573.6694
   -860765.58246   -647300.18846  23884782.7794   23884786.3534
      -527.2194       -410.8204
  14587262.53644  11366689.76243  26171650.8344   26171657.6544
     -4454.5474      -3471.0754
   6152937.88647   4796843.97446  22649392.4434   22649394.8574
     -2493.1724      -1942.7314
  13870149.44746  10613855.50845  25067193.8894   25067197.8504
     -4705.7504      -3666.8184
 98  7  8 21 24 15.0060000  0  8G 3G 6G 1G17G21G22G23G26
  -3027767.35146  -2259099.10345  24516592.1544   24516595.4244
       291.7504        227.3384
  20869978.10945  16252905.04745  25068741.3894   25068747.5644
     -5869.7664      -4573.8434
   -288807.91444   -148161.88842  26451528.2714   26451537.9324
      1302.6414       1015.0454
  10877493.00047   8475970.44647  22930950.5214   22930953.4754
     -3306.4694      -2576.4694
   -852826.58346   -641113.92546  23886293.5144   23886297.0414
      -531.3594       -414.0464
  14654100.51844  11418771.23543  26184369.1704   26184374.0924
     -4457.2814      -3473.2064
   6190373.65947   4826014.71546  22656516.2714   22656518.6274
     -2498.3594      -1946.7744
  13940788.84646  10668899.17845  25080636.4044   25080640.5764
     -4712.9064      -3672.3944
 98  7  8 21 24 30.0060000  0  8G 3G 6G 1G17G21G22G23G26
  -3032105.06146  -2262479.10345  24515766.5294   24515769.5644
       286.5004        223.2474
  20958044.85345  16321528.39445  25085500.0764   25085505.6894
     -5872.4844      -4575.9624
   -308351.74944   -163390.72142  26447809.2254   26447818.7564
      1303.1564       1015.4464
  10927116.38747   8514638.01947  22940393.5294   22940396.4474
     -3309.9844      -2579.2094
   -844828.20646   -634881.38346  23887815.5924   23887818.8614
      -535.1254       -416.9814
  14720979.40544  11470884.57543  26197096.2324   26197103.1034
     -4460.0004      -3475.3254
   6227887.38247   4855246.19546  22663654.9044   22663657.0724
     -2503.5624      -1950.8284
  14011534.13346  10724025.37245  25094098.7794   25094102.6354
     -4719.8754      -3677.8254
 98  7  8 21 24 45.0060000  0  8G 3G 6G 1G17G21G22G23G26
  -3036364.07846  -2265797.78045  24514956.4364   24514959.6004
       281.4694        219.3264
  21046149.89145  16390181.57845  25102265.8184   25102271.6314
     -5874.7974      -4577.7644
   -327905.83845   -178627.51443  26444088.9674   26444099.2954
      1304.1884       1016.2504
  10976790.01447   8553344.74347  22949846.1624   22949849.1274
     -3313.0784      -2581.6194
   -836776.02546   -628606.92346  23889347.9364   23889351.0644
      -538.4374       -419.5624
  14787899.02944  11523029.67943  26209830.7174   26209836.9864
     -4462.4844      -3477.2614
   6265478.72347   4884538.15546  22670808.2874   22670810.9244
     -2508.4374      -1954.6274
  14082380.46046  10779230.28445  25107580.6864   25107584.6934
     -4726.1414      -3682.7074
 98  7  8 21 25  0.0060000  0  8G 3G 6G 1G17G21G22G23G26
  -3040546.06346  -2269056.43945  24514160.1624   24514163.2324
       276.1094        215.1504
  21134291.88745  16458863.57745  25119038.9514   25119044.6934
     -5877.5314      -4579.8944
   -347475.09045   -193876.17343  26440364.2644   26440374.8854
      1305.0004       1016.8834
  11026510.69647   8592088.13247  22959307.8184   22959310.4784
     -3316.4064      -2584.2134
   -828672.94546   -622292.79846  23890889.7094   23890892.9554
      -542.0164       -422.3504
  14854855.77044  11575203.66243  26222573.0294   26222580.5574
     -4465.1254      -3479.3184
   6303141.21947   4913885.56146  22677975.0294   22677977.6074
     -2513.2344      -1958.3644
  14153319.61946  10834507.54645  25121080.0294   25121083.9204
     -4732.4534      -3687.6264
 98  7  8 21 25 15.0060000  0  8G 3G 6G 1G17G21G22G23G26
  -3044651.52146  -2272255.45845  24513379.0064   24513382.1464
       271.4844        211.5464
  21222474.08145  16527576.88645  25135819.5534   25135825.9284
     -5880.0004      -4581.8184
   -367059.40545   -209136.58042  26436637.6074   26436643.5254
      1306.3914       1017.9674
  11076279.68647   8630869.16547  22968778.4044   22968781.1584
     -3319.3444      -2586.5024
   -820518.65846   -615938.77246  23892441.6154   23892445.1894
      -545.1564       -424.7974
  14921850.16345  11627406.99943  26235321.4434   26235327.8074
     -4467.3594      -3481.0594
   6340872.09547   4943286.25046  22685155.0684   22685157.5764
     -2517.3914      -1961.6034
  14224352.16046  10889857.57445  25134596.8264   25134600.0614
     -4738.5004      -3692.3384
 98  7  8 21 25 30.0060000  0  8G 3G 6G 1G17G21G22G23G26
  -3048689.58246  -2275401.97545  24512610.4434   24512614.2174
       267.0314        208.0764
  21310695.44745  16596320.71645  25152607.4594   25152614.1034
     -5882.7814      -4583.9854
   -386664.32245   -224413.01343  26432906.4674   26432915.7524
      1307.7034       1018.9894
  11126094.57647   8669685.96547  22978258.1004   22978260.9714
     -3322.5624      -2589.0104
   -812315.44146   -609546.61546  23894002.4594   23894005.8814
      -548.5004       -427.4034
  14988880.69444  11679638.56743  26248076.4674   26248083.3264
     -4469.9694      -3483.0934
   6378665.75347   4972735.86646  22692347.0844   22692349.3114
     -2521.6874      -1964.9514
  14295477.72346  10945280.07845  25148131.9594   25148135.6394
     -4744.8444      -3697.2814
 98  7  8 21 25 45.0060000  0  8G 3G 6G 1G17G21G22G23G26
  -3052667.87946  -2278501.91945  24511853.7564   24511856.9324
       263.0474        204.9724
  21398951.57745  16665091.62845  25169401.9124   25169408.6274
     -5885.0474      -4585.7514
   -406298.61945   -239712.34743  26429170.1704   26429179.7254
      1309.9224       1020.7184
  11175950.63847   8708534.84347  22987745.2174   22987748.2284
     -3325.2974      -2591.1404
   -804071.76546   -603122.94146  23895570.9824   23895574.5104
      -550.9694       -429.3264
  15055944.70944  11731896.12443  26260838.9124   26260845.7834
     -4472.2504      -3484.8704
   6416515.88647   5002229.48346  22699549.6074   22699551.6824
     -2525.2974      -1967.7644
  14366690.52546  11000770.57445  25161683.0294   25161686.2644
     -4750.5314      -3701.7134
 98  7  8 21 26  0.0060000  0  8G 3G 6G 1G17G21G22G23G26
  -3056583.33046  -2281552.88745  24511108.2644   24511111.1464
       259.2194        201.9894
  21487245.87645  16733892.28745  25186203.8114   25186210.5494
     -5887.3284      -4587.5284
   -425962.65545   -255034.87643  26425428.0064   26425435.2644
      1312.1254       1022.4354
  11225852.62647   8747419.50347  22997241.3574   22997244.3464
     -3328.1414      -2593.3564
   -795788.69246   -596668.55846  23897147.6394   23897151.1194
      -553.2504       -431.1044
  15123045.34445  11784182.25843  26273607.3964   26273615.8384
     -4474.3914      -3486.5384
   6454422.55947   5031767.16146  22706762.9824   22706765.0924
     -2528.7344      -1970.4424
  14437990.99046  11056329.35845  25175251.4124   25175254.1434
     -4756.0004      -3705.9744
 98  7  8 21 26 15.0070000  0  8G 3G 6G 1G17G21G22G23G26
  -3060440.95946  -2284558.80345  24510374.1984   24510377.5154
       255.1564        198.8234
  21575580.79245  16802724.59245  25203013.3544   25203019.6244
     -5889.7344      -4589.4034
   -445657.61745   -270381.44943  26421680.1674   26421688.1984
      1313.7814       1023.7264
  11275803.36647   8786342.15747  23006746.4484   23006749.6014
     -3331.4844      -2595.9624
   -787470.23646   -590186.60246  23898730.4094   23898733.6904
      -555.6724       -432.9914
  15190186.03444  11836499.59343  26286384.7534   26286392.1864
     -4477.0164      -3488.5844
   6492383.51947   5061347.13846  22713986.5424   22713988.7804
     -2532.2974      -1973.2184
  14509379.53846  11111956.80045  25188836.1124   25188839.6754
     -4761.7034      -3710.4184
 98  7  8 21 26 30.0070000  0  8G 3G 6G 1G17G21G22G23G26
  -3064240.64446  -2287519.56345  24509651.2294   24509654.4054
       251.2664        195.7914
  21663939.09345  16871575.11245  25219827.8544   25219834.1474
     -5891.5164      -4590.7914
   -465380.55544   -285749.85943  26417927.2614   26417937.3664
      1315.7504       1025.2604
  11325797.36847   8825298.51947  23016260.1754   23016263.2804
     -3334.5474      -2598.3484
   -779121.36346   -583680.95246  23900319.1834   23900322.4054
      -557.7814       -434.6354
  15257357.68645  11888841.04643  26299166.3234   26299172.8044
     -4479.3594      -3490.4104
   6530390.79447   5090963.20346  22721219.0814   22721221.3314
     -2535.5624      -1975.7634
  14580844.35746  11167643.65245  25202435.1904   25202438.2264
     -4767.1094      -3714.6314
 98  7  8 21 26 45.0070000  0  8G 3G 6G 1G17G21G22G23G26
  -3067980.72146  -2290433.88145  24508939.3624   24508942.7024
       247.3914        192.7724
  21752324.87845  16940447.07545  25236647.1044   25236653.3514
     -5893.1874      -4592.0944
   -485132.66644   -301141.00743  26414168.1834   26414178.0544
      1317.9384       1026.9644
  11375836.23947   8864289.84347  23025782.0194   23025785.1244
     -3337.2194      -2600.4304
   -770737.28646   -577147.86746  23901914.3944   23901917.6754
      -560.0944       -436.4374
  15324565.30844  11941210.55943  26311956.0264   26311962.6714
     -4481.6254      -3492.1754
   6568448.10347   5120618.25746  22728461.3004   22728463.7264
     -2538.6724      -1978.1864
  14652391.29646  11223394.51945  25216050.0504   25216053.0974
     -4772.4224      -3718.7704
 98  7  8 21 27  0.0070000  0  8G 3G 6G 1G17G21G22G23G26
  -3071661.38646  -2293301.90345  24508239.4484   24508242.8354
       243.4384        189.6924
  21840736.34545  17009339.02745  25253471.6674   25253477.7844
     -5894.9844      -4593.4944
   -504916.79744   -316557.07743  26410402.9174   26410413.1864
      1319.9844       1028.5594
  11425917.06347   8903313.85747  23035312.4254   23035315.6474
     -3340.1724      -2602.7314
   -762316.20046   -570585.94646  23903517.1514   23903520.5614
      -562.7034       -438.4704
  15391807.94745  11993607.35043  26324751.6044   26324757.7334
     -4483.9694      -3494.0024
   6606553.11847   5150310.48846  22735712.3544   22735714.6514
     -2541.9534      -1980.7434
  14724018.75146  11279208.11145  25229680.3314   25229683.7884
     -4777.9064      -3723.0444
 98  7  8 21 27 15.0070000  0  8G 3G 6G 1G17G21G22G23G26
  -3075280.30846  -2296121.80845  24507550.4334   24507553.6904
       239.5004        186.6234
  21929178.28045  17078254.73745  25270301.3004   25270307.8394
     -5896.8124      -4594.9194
   -524727.54143   -331993.90843  26406633.0504   26406642.6754
      1321.8134       1029.9844
  11476045.85047   8942375.24647  23044851.4794   23044854.3974
     -3343.2344      -2605.1184
   -753852.66646   -563990.94746  23905127.5974   23905130.9834
      -565.4064       -440.5764
  15459088.99545  12046034.06844  26337555.0194   26337562.5224
     -4486.4534      -3495.9374
   6644712.59147   5180045.15646  22742973.9724   22742976.1754
     -2545.6254      -1983.6044
  14795733.86845  11335089.99545  25243327.2924   25243331.2294
     -4783.7344      -3727.5854
 98  7  8 21 27 30.0070000  0  8G 3G 6G 1G17G21G22G23G26
  -3078843.39346  -2298898.20845  24506872.5654   24506876.1284
       235.6564        183.6284
  22017642.50845  17147187.80145  25287135.7844   25287142.0654
     -5898.2344      -4596.0274
   -544568.13943   -347453.98843  26402857.5114   26402867.7574
      1323.7504       1031.4944
  11526216.22747   8981469.04647  23054398.4484   23054401.4604
     -3345.9374      -2607.2244
   -745350.82046   -557366.09346  23906745.2064   23906748.7574
      -568.0314       -442.6224
  15526403.50344  12098486.85943  26350364.3234   26350370.8514
     -4488.6564      -3497.6544
   6682924.37047   5209820.57546  22750245.4874   22750247.8314
     -2549.1414      -1986.3434
  14867533.41745  11391037.69745  25256990.2144   25256993.9644
     -4789.3594      -3731.9684
 98  7  8 21 27 45.0070000  0  8G 3G 6G 1G17G21G22G23G26
  -3082347.39546  -2301628.57545  24506205.4334   24506208.7264
       231.1724        180.1344
  22106124.84645  17216134.99845  25303973.9644   25303980.5154
     -5899.6564      -4597.1354
   -564438.93443   -362937.55343  26399075.6204   26399086.1834
      1325.4064       1032.7844
  11576423.33747   9020591.46547  23063952.9094   23063955.9214
     -3348.6254      -2609.3184
   -736812.75046   -550713.01446  23908369.7374   23908372.9834
      -570.6414       -444.6554
  15593748.14945  12150963.12443  26363179.5974   26363188.1084
     -4490.8914      -3499.3954
   6721187.63747   5239636.12246  22757526.5734   22757528.8584
     -2552.9224      -1989.2904
  14939413.29945  11447047.99445  25270668.8544   25270672.1594
     -4794.8914      -3736.2784
 98  7  8 21 28  0.0070000  0  8G 3G 6G 1G17G21G22G23G26
  -3085780.22946  -2304303.47145  24505552.5504   24505555.6324
       226.5634        176.5424
  22194629.39245  17285099.46645  25320815.3004   25320821.7334
     -5900.9224      -4598.1214
   -584331.65543   -378438.25242  26395290.3084   26395301.2454
      1326.8754       1033.9294
  11626672.31947   9059746.51947  23073514.7454   23073517.6634
     -3351.2344      -2611.3514
   -728233.86746   -544028.12746  23910002.6204   23910006.0074
      -573.2344       -446.6764
  15661126.53445  12203465.66643  26376001.4254   26376008.7064
     -4492.8914      -3500.9544
   6759509.83347   5269497.58646  22764818.9954   22764821.1164
     -2556.7504      -1992.2734
  15011377.35245  11503123.85445  25284362.9404   25284366.4094
     -4800.3124      -3740.5034
 98  7  8 21 28 15.0070000  0  8G 3G 6G 1G17G21G22G23G26
  -3089147.22146  -2306927.06945  24504911.5734   24504914.2924
       222.3914        173.2914
  22283148.05145  17354074.95345  25337659.7454   25337665.7224
     -5901.5164      -4598.5844
   -604246.07844   -393955.88543  26391501.1514   26391511.5614
      1328.3914       1035.1104
  11676955.81247   9098928.45647  23083083.3544   23083086.2494
     -3353.2034      -2612.8864
   -719617.41846   -537313.97146  23911642.1754   23911645.5974
      -575.6254       -448.5394
  15728531.70645  12255989.09144  26388828.8004   26388835.2804
     -4494.4844      -3502.1964
   6797887.30547   5299402.11846  22772122.0034   22772124.1474
     -2560.2664      -1995.0124
  15083420.11146  11559261.05645  25298072.1284   25298075.8784
     -4805.4374      -3744.4974
 98  7  8 21 28 30.0070000  0  8G 3G 6G 1G17G21G22G23G26
  -3092452.13446  -2309502.30645  24504282.6364   24504285.3084
       218.1094        169.9554
  22371675.04345  17423056.90945  25354505.7454   25354511.4764
     -5902.2344      -4599.1444
   -624184.38644   -409492.09243  26387707.0264   26387716.4874
      1329.9384       1036.3154
  11727267.22747   9138132.15446  23092657.3784   23092660.4014
     -3355.1094      -2614.3714
   -710966.03246   -530572.59846  23913288.5584   23913292.1204
      -578.0164       -450.4024
  15795959.37145  12308530.09243  26401659.4334   26401666.2294
     -4495.9694      -3503.3524
   6836318.03547   5329348.15346  22779435.3704   22779437.2334
     -2564.0314      -1997.9464
  15155539.22946  11615457.78045  25311795.9174   25311799.0344
     -4810.5944      -3748.5154
 98  7  8 21 28 45.0070000  0  8G 3G 6G 1G17G21G22G23G26
  -3095691.03446  -2312026.09445  24503666.7294   24503669.5894
       213.7344        166.5464
  22460215.90745  17492049.72745  25371355.2764   25371361.4174
     -5903.2974      -4599.9724
   -644145.62544   -425046.20043  26383908.1204   26383917.1014
      1331.4694       1037.5084
  11777607.77947   9177358.55246  23102236.9014   23102240.0894
     -3357.0004      -2615.8444
   -702276.60546   -523801.57746  23914941.7224   23914945.0264
      -580.6254       -452.4354
  15863410.49145  12361089.31343  26414495.2614   26414503.5504
     -4497.5624      -3504.5944
   6874808.99647   5359341.11746  22786759.6044   22786761.5614
     -2568.1564      -2001.1614
  15227737.58546  11671716.20745  25325535.0504   25325538.2264
     -4815.9224      -3752.6664
 98  7  8 21 29  0.0070000  0  8G 3G 6G 1G17G21G22G23G26
  -3098865.18446  -2314499.43745  24503062.4094   24503065.3744
       209.4694        163.2224
  22548774.89445  17561056.62745  25388207.1044   25388213.7494
     -5904.5474      -4600.9464
   -664128.32444   -440617.00043  26380105.4564   26380115.3624
      1332.9064       1038.6284
  11827976.20547   9216606.67246  23111821.5974   23111824.7144
     -3358.7664      -2617.2204
   -693548.72146   -517000.59146  23916602.6204   23916606.0894
      -583.0784       -454.3474
  15930885.49045  12413667.16843  26427335.1674   26427342.8704
     -4499.0784      -3505.7754
   6913361.21247   5389381.81846  22794096.0654   22794098.1634
     -2572.1094      -2004.2414
  15300014.65945  11728035.99945  25339288.8154   25339292.0034
     -4821.0314      -3756.6484
 98  7  8 21 29 15.0070000  0  8G 3G 6G 1G17G21G22G23G26
  -3101976.22046  -2316923.58745  24502470.2844   24502473.6944
       205.2504        159.9354
  22637351.31445  17630077.12045  25405062.9484   25405068.9484
     -5905.7194      -4601.8594
   -684133.51245   -456205.36343  26376299.3394   26376308.0974
      1334.3754       1039.7734
  11878370.37447   9255874.85246  23121411.4644   23121414.6044
     -3360.4694      -2618.5474
   -684785.15146   -510171.79746  23918270.2294   23918273.5464
      -585.4224       -456.1734
  15998380.59345  12466260.69244  26440179.3704   26440185.9094
     -4500.2504      -3506.6884
   6951972.07547   5419468.21546  22801443.4954   22801445.7224
     -2576.0474      -2007.3094
  15372367.62945  11784414.92345  25353057.1904   25353060.1904
     -4826.0314      -3760.5444
 98  7  8 21 29 30.0070000  0  8G 3G 6G 1G17G21G22G23G26
  -3105023.62246  -2319298.15645  24501890.0194   24501893.4404
       201.1254        156.7214
  22725944.15245  17699110.40345  25421921.6284   25421928.2374
     -5906.5784      -4602.5284
   -704160.51145   -471810.69043  26372487.6284   26372497.2184
      1335.9534       1041.0024
  11928788.40547   9295161.62746  23131005.7924   23131008.8274
     -3361.8754      -2619.6434
   -675988.60546   -503317.30946  23919944.1674   23919947.5424
      -587.3914       -457.7074
  16065889.82945  12518865.20943  26453025.6594   26453032.5894
     -4500.9064      -3507.2004
   6990638.46747   5449597.87946  22808801.3154   22808803.4604
     -2579.3444      -2009.8784
  15444793.55245  11840850.68945  25366839.6204   25366843.7334
     -4830.6564      -3764.1484
 98  7  8 21 29 45.0070000  0  8G 3G 6G 1G17G21G22G23G26
  -3108007.97846  -2321623.59245  24501322.2144   24501325.0974
       196.7194        153.2874
  22814551.82045  17768155.23045  25438783.1204   25438789.3194
     -5907.8444      -4603.5154
   -724210.82145   -487434.20642  26368672.0424   26368680.8584
      1337.3754       1042.1104
  11979228.83347   9334465.85446  23140604.0194   23140606.9254
     -3363.5784      -2620.9704
   -667161.23046   -496438.79746  23921623.8544   23921626.9724
      -589.5944       -459.4244
  16133409.91544  12571478.19043  26465874.2454   26465880.4214
     -4501.8444      -3507.9304
   7029353.21247   5479765.22346  22816168.6444   22816170.8004
     -2582.7194      -2012.5084
  15517287.83645  11897339.74245  25380634.7924   25380638.6834
     -4835.2814      -3767.7524
 98  7  8 21 30  0.0070000  0  8G 3G 6G 1G17G21G22G23G26
  -3110926.44246  -2323897.69545  24500767.1044   24500770.5384
       192.4694        149.9764
  22903178.15645  17837214.62845  25455648.4334   25455654.7844
     -5908.9534      -4604.3794
   -744283.18845   -503074.92842  26364852.0194   26364861.1284
      1338.9534       1043.3404
  12029695.66247   9373790.65346  23150207.5894   23150210.6014
     -3365.3754      -2622.3704
   -658301.48846   -489535.06646  23923310.1204   23923313.3904
      -591.7344       -461.0924
  16200944.02844  12624102.10743  26478726.0114   26478731.9644
     -4502.6874      -3508.5884
   7068118.52847   5509971.97146  22823545.3544   22823547.3474
     -2585.9844      -2015.0534
  15589849.90845  11953881.60345  25394442.4564   25394446.3944
     -4839.6564      -3771.1614
 98  7  8 21 30 15.0070000  0  8G 3G 6G 1G17G21G22G23G26
  -3113785.33246  -2326125.37245  24500223.3474   24500226.3004
       188.3914        146.7984
  22991819.45345  17906285.69145  25472516.3234   25472522.9794
     -5910.1874      -4605.3414
   -764380.77944   -518735.25942  26361027.2144   26361037.2964
      1340.4224       1044.4854
  12080187.98847   9413135.31746  23159815.7844   23159818.5034
     -3367.2504      -2623.8314
   -649410.16546   -482606.73046  23925001.8394   23925005.1554
      -594.1094       -462.9424
  16268488.61844  12676734.20043  26491579.4404   26491585.7804
     -4503.6094      -3509.3064
   7106929.94847   5540214.64546  22830930.6904   22830932.6594
     -2589.2034      -2017.5614
  15662475.43945  12010472.90545  25408262.5344   25408266.8474
     -4844.1094      -3774.6314
 98  7  8 21 30 30.0070000  0  8G 3G 6G 1G17G21G22G23G26
  -3116583.28146  -2328305.55745  24499690.8474   24499694.0584
       184.3754        143.6694
  23080479.30445  17975371.18545  25489387.7694   25489394.1674
     -5911.4064      -4606.2914
   -784501.99844   -534414.04543  26357198.2374   26357208.7654
      1342.2194       1045.8854
  12130707.77447   9452501.37646  23169429.5734   23169432.3274
     -3368.9844      -2625.1834
   -640483.00346   -475650.47046  23926700.8474   23926704.2224
      -596.3914       -464.7204
  16336047.40044  12729377.30143  26504435.0814   26504442.7264
     -4504.4374      -3509.9514
   7145789.53547   5570494.85446  22838325.5034   22838327.7184
     -2592.2974      -2019.9724
  15735168.68445  12067116.98545  25422095.8704   25422099.8904
     -4848.5164      -3778.0644
 98  7  8 21 30 45.0070000  0  8G 3G 6G 1G17G21G22G23G26
  -3119316.38646  -2330435.22146  24499170.2844   24499173.6014
       180.1254        140.3574
  23169162.37445  18044474.75645  25506263.4954   25506269.6124
     -5912.8754      -4607.4354
   -804647.80944   -550112.00442  26353364.8234   26353373.1944
      1343.9694       1047.2484
  12181258.13447   9491891.26546  23179049.2374   23179051.8624
     -3371.0164      -2626.7654
   -631518.39046   -468665.02446  23928406.4334   23928409.5854
      -598.8594       -466.6444
  16403620.98944  12782031.96744  26517294.4174   26517302.5424
     -4505.2504      -3510.5844
   7184697.96347   5600813.11846  22845729.4874   22845731.7374
     -2595.3914      -2022.3824
  15807929.63745  12123813.83245  25435941.8004   25435946.3824
     -4852.8284      -3781.4254
 98  7  8 21 31  0.0070000  0  8G 3G 6G 1G17G21G22G23G26
  -3121985.01146  -2332514.62146  24498662.6754   24498665.9564
       176.0784        137.2044
  23257866.43545  18113594.70145  25523143.7534   25523149.9874
     -5913.9224      -4608.2514
   -824819.78244   -565830.28643  26349525.6284   26349532.2144
      1345.9534       1048.7954
  12231840.10647   9531305.78546  23188674.4794   23188676.9644
     -3372.9064      -2628.2394
   -622514.74746   -461649.16646  23930119.8154   23930122.9094
      -601.2194       -468.4824
  16471206.57144  12834696.00043  26530155.2374   26530163.9364
     -4505.7344      -3510.9624
   7223651.29547   5631166.37146  22853142.2764   22853144.4334
     -2598.0004      -2024.4164
  15880756.02145  12180561.65045  25449800.1364   25449803.9094
     -4856.9844      -3784.6634
 98  7  8 21 31 15.0070000  0  8G 3G 6G 1G17G21G22G23G26
  -3124590.62646  -2334544.94246  24498166.3084   24498169.8824
       171.2504        133.4424
  23346586.59145  18182727.22045  25540026.5814   25540033.2724
     -5915.4064      -4609.4074
   -845019.08944   -581569.84943  26345682.4644   26345691.5614
      1347.2814       1049.8304
  12282453.16347   9570744.52646  23198305.8394   23198308.6044
     -3375.5314      -2630.2844
   -613473.87246   -454604.29546  23931840.2844   23931843.3904
      -604.2034       -470.8084
  16538799.28744  12887365.56643  26543017.5734   26543025.5694
     -4506.5944      -3511.6314
   7262644.53347   5661550.72546  22860562.4404   22860564.6674
     -2601.1724      -2026.8874
  15953647.31045  12237360.03745  25463671.1594   25463674.7574
     -4861.9064      -3788.4984
 98  7  8 21 31 30.0070000  0  8G 3G 6G 1G17G21G22G23G26
  -3127126.52346  -2336520.92846  24497684.1514   24497687.3624
       166.6884        129.8864
  23435324.11645  18251873.23245  25556912.8784   25556920.0194
     -5916.4534      -4610.2234
   -865241.56245   -597327.51843  26341834.2534   26341843.0694
      1348.8594       1051.0594
  12333104.05947   9610212.75346  23207944.3234   23207947.0894
     -3378.1094      -2632.2934
   -604393.00646   -447528.26146  23933568.3624   23933571.2454
      -606.7814       -472.8174
  16606399.75244  12940041.17944  26555881.9094   26555889.1794
     -4507.0164      -3511.9604
   7301682.90847   5691970.24746  22867991.1834   22867993.2454
     -2604.0624      -2029.1404
  16026609.22045  12294213.47545  25477555.7614   25477559.4764
     -4866.5474      -3792.1144
 98  7  8 21 31 45.0070000  0  8G 3G 6G 1G17G21G22G23G26
  -3129592.15646  -2338442.17546  24497214.9794   24497218.0974
       161.9384        126.1854
  23524078.91245  18321032.71645  25573802.1594   25573808.8044
     -5917.6094      -4611.1244
   -885485.53945   -613101.91843  26337981.7694   26337990.4914
      1350.2504       1052.1434
  12383795.76047   9649712.77846  23217590.6444   23217593.5734
     -3380.9224      -2634.4854
   -595272.10146   -440421.03046  23935303.9874   23935306.7184
      -609.5474       -474.9724
  16674010.15245  12992724.52344  26568748.1364   26568755.2654
     -4507.8754      -3512.6304
   7340764.81747   5722423.69046  22875428.1204   22875430.1124
     -2607.0624      -2031.4774
  16099641.23345  12351121.52545  25491452.9954   25491456.0544
     -4871.1874      -3795.7314
 98  7  8 21 32  0.0070000  0  8G 3G 6G 1G17G21G22G23G26
  -3131981.81346  -2340304.21046  24496760.3084   24496763.1084
       156.6414        122.0584
  23612854.21845  18390208.18044  25590695.6834   25590702.5544
     -5919.1094      -4612.2934
   -905747.01545   -628889.96943  26334126.0344   26334136.5734
      1351.2814       1052.9464
  12434533.37147   9689248.57346  23227245.7144   23227248.6904
     -3384.1094      -2636.9684
   -586104.82346   -433277.66746  23937048.1754   23937051.3044
      -612.7344       -477.4554
  16741639.17545  13045422.40743  26581617.5894   26581625.5504
     -4509.2814      -3513.7264
   7379898.85647   5752917.76246  22882875.2454   22882877.5194
     -2610.8754      -2034.4484
  16172747.89845  12408087.73945  25505364.2374   25505367.5544
     -4876.4224      -3799.8094
 98  7  8 21 32 15.0070000  0  8G 3G 6G 1G17G21G22G23G26
  -3134293.47046  -2342105.47546  24496320.3624   24496323.6674
       151.6254        118.1494
  23701650.19845  18459399.73745  25607593.0424   25607600.1014
     -5920.3594      -4613.2674
   -926024.56545   -644690.52243  26330267.1594   26330276.8084
      1352.4224       1053.8354
  12485317.65847   9728820.73846  23236909.6444   23236912.6204
     -3387.0944      -2639.2944
   -576891.14446   -426098.15046  23938801.5504   23938804.9724
      -615.7814       -479.8304
  16809286.49345  13098134.50044  26594489.8704   26594497.4334
     -4510.2974      -3514.5174
   7419089.19547   5783455.69846  22890332.6754   22890334.8544
     -2614.4374      -2037.2244
  16245933.06045  12465115.13045  25519291.0504   25519294.0614
     -4881.6094      -3803.8514
 98  7  8 21 32 30.0070000  0  8G 3G 6G 1G17G21G22G23G26
  -3136528.72546  -2343847.19946  24495895.0894   24495898.3234
       146.4384        114.1074
  23790468.27645  18528608.52944  25624494.7064   25624502.0814
     -5921.9534      -4614.5094
   -946318.43745   -660503.79743  26326405.4644   26326417.0224
      1353.4844       1054.6634
  12536147.91047   9768428.72046  23246582.2534   23246585.1944
     -3390.2194      -2641.7294
   -567631.09546   -418882.49246  23940564.1204   23940567.4484
      -618.7974       -482.1794
  16876950.00045  13150859.24543  26607366.3864   26607374.8974
     -4511.4534      -3515.4184
   7458334.13847   5814036.17946  22897800.9174   22897803.3904
     -2618.2034      -2040.1584
  16319199.09945  12522205.54845  25533233.1044   25533236.2924
     -4887.1874      -3808.1984
 98  7  8 21 32 45.0070000  0  8G 3G 6G 1G17G21G22G23G26
  -3138681.79446  -2345524.88446  24495485.0734   24495488.4484
       140.7814        109.7004
  23879312.65645  18597837.82144  25641401.7224   25641408.2964
     -5923.8444      -4615.9824
   -966624.68945   -676326.72943  26322541.0974   26322549.9254
      1354.1414       1055.1754
  12587029.71847   9808076.87946  23256264.8314   23256268.0194
     -3393.9224      -2644.6144
   -558322.78046   -411629.22946  23942334.9564   23942338.1324
      -622.1564       -484.7974
  16944633.77244  13203599.76643  26620245.7374   26620253.3944
     -4512.8754      -3516.5264
   7497638.98447   5844663.34446  22905280.1284   22905282.6474
     -2622.2664      -2043.3244
  16392552.63945  12579364.12445  25547191.7374   25547195.8274
     -4893.1254      -3812.8254
 98  7  8 21 33  0.0070000  0  8G 3G 6G 1G17G21G22G23G26
  -3140749.99346  -2347136.44446  24495091.7064   24495094.8234
       135.2974        105.4264
  23968186.29445  18667089.92144  25658313.8154   25658320.5194
     -5925.6874      -4617.4194
   -986938.60544   -692155.59643  26318675.2534   26318683.4834
      1354.6254       1055.5524
  12637970.05747   9847770.63946  23265958.4954   23265961.7184
     -3397.8594      -2647.6834
   -548962.85347   -404335.75146  23944116.5344   23944119.3704
      -625.5624       -487.4514
  17012339.79344  13256357.60944  26633130.0344   26633137.7614
     -4514.3444      -3517.6704
   7537005.71847   5875338.73246  22912771.6044   22912773.9604
     -2626.3594      -2046.5144
  16465997.45145  12636593.84645  25561168.3314   25561172.6794
     -4899.2974      -3817.6344
 98  7  8 21 33 15.0070000  0  8G 3G 6G 1G17G21G22G23G26
  -3142740.31846  -2348687.32046  24494713.0894   24494715.9134
       130.1884        101.4454
  24057083.23545  18736360.16644  25675229.8864   25675236.3084
     -5927.1874      -4618.5884
  -1007261.30243   -707991.35043  26314807.7764   26314817.6244
      1355.1564       1055.9664
  12688965.22947   9887507.13446  23275662.4404   23275665.5814
     -3401.4224      -2650.4594
   -539557.14047   -397006.59246  23945905.6984   23945908.8154
      -628.4064       -489.6674
  17080066.25344  13309131.38843  26646018.4564   26646025.6554
     -4515.7974      -3518.8034
   7576430.45947   5906059.31746  22920273.6834   22920275.7804
     -2630.2194      -2049.5214
  16539532.30645  12693893.71945  25575161.3784   25575164.3314
     -4905.2504      -3822.2734
 98  7  8 21 33 30.0070000  0  8G 3G 6G 1G17G21G22G23G26
  -3144654.94346  -2350179.21346  24494348.4484   24494351.2844
       125.1724         97.5374
  24146002.83045  18805648.05344  25692151.1204   25692158.3784
     -5928.6724      -4619.7444
  -1027591.37843   -723832.82043  26310938.8784   26310947.3314
      1355.6414       1056.3434
  12740012.52047   9927284.24046  23285376.5974   23285379.8314
     -3404.7974      -2653.0884
   -530109.46046   -389644.73546  23947703.7924   23947706.7574
      -631.1874       -491.8344
  17147815.44344  13361922.91943  26658910.5504   26658916.5384
     -4517.3594      -3520.0204
   7615913.15347   5936825.06446  22927786.9794   22927788.9724
     -2634.0474      -2052.5044
  16613155.40645  12751262.36545  25589171.4564   25589175.4874
     -4911.0004      -3826.7534
 98  7  8 21 33 45.0070000  0  8G 3G 6G 1G17G21G22G23G26
  -3146494.82846  -2351612.86746  24493998.5814   24494001.3584
       120.4384         93.8474
  24234946.45045  18874954.66544  25709076.4564   25709083.5504
     -5930.1874      -4620.9254
  -1047928.05643   -739679.45242  26307068.1284   26307077.3544
      1356.2504       1056.8184
  12791110.32947   9967100.70646  23295100.0584   23295103.2574
     -3407.8754      -2655.4874
   -520618.15446   -382248.88246  23949509.9564   23949513.2264
      -634.0624       -494.0754
  17215590.84044  13414734.79243  26671808.0344   26671814.4214
     -4519.0624      -3521.3474
   7655453.33947   5967635.60946  22935311.4334   22935313.6944
     -2637.6094      -2055.2804
  16686863.90445  12808697.54545  25603197.8394   25603201.5544
     -4916.4374      -3830.9904
 98  7  8 21 34  0.0070000  0  8G 3G 6G 1G17G21G22G23G26
  -3148261.30546  -2352989.31046  24493662.1674   24493665.0264
       115.5944         90.0734
  24323915.17545  18944280.85244  25726006.7694   25726012.7574
     -5931.8284      -4622.2044
  -1068272.88843   -755532.38743  26303196.8544   26303208.1904
      1356.8444       1057.2814
  12842254.44747  10006953.26146  23304832.5034   23304835.6554
     -3410.8594      -2657.8124
   -511081.06447   -374817.35746  23951325.0424   23951328.3354
      -637.0784       -496.4254
  17283394.73844  13467568.92843  26684710.4334   26684716.6674
     -4520.9844      -3522.8454
   7695049.10147   5998489.45846  22942845.9644   22942848.0614
     -2641.3754      -2058.2144
  16760656.67845  12866198.39445  25617239.8704   25617243.1634
     -4922.2034      -3835.4834
 98  7  8 21 34 15.0070000  0  8G 3G 6G 1G17G21G22G23G26
  -3149954.01846  -2354308.28246  24493340.0344   24493342.9174
       110.2814         85.9334
  24412911.14645  19013628.24444  25742942.1364   25742948.2764
     -5934.1724      -4624.0304
  -1088625.28644   -771391.29242  26299323.6284   26299332.2454
      1356.9064       1057.3304
  12893444.81347  10046841.85046  23314573.8394   23314576.9564
     -3414.3754      -2660.5524
   -501497.41047   -367349.54946  23953148.4334   23953151.7844
      -640.6564       -499.2134
  17351228.45744  13520426.28143  26697619.0894   26697625.6284
     -4523.3594      -3524.6964
   7734703.00847   6029388.61546  22950391.9874   22950394.3544
     -2645.6254      -2061.5264
  16834540.14845  12923769.91245  25631299.3394   25631302.5854
     -4928.7504      -3840.5844
 98  7  8 21 34 30.0070000  0  8G 3G 6G 1G17G21G22G23G26
  -3151573.69546  -2355570.34246  24493031.6364   24493034.3904
       105.5784         82.2694
  24501936.60245  19082998.60844  25759883.3624   25759890.3624
     -5936.0004      -4625.4554
  -1108984.16244   -787255.21843  26295450.0974   26295459.0304
      1357.4844       1057.7804
  12944682.96047  10086767.67546  23324324.0344   23324326.9054
     -3417.4534      -2662.9504
   -491864.06847   -359843.02046  23954981.7534   23954985.0114
      -643.8284       -501.6844
  17419092.56344  13573307.32643  26710533.3154   26710541.0654
     -4525.2974      -3526.2054
   7774413.02647   6060331.49346  22957948.3624   22957950.6714
     -2649.1254      -2064.2534
  16908514.81345  12981412.50245  25645376.8314   25645380.2184
     -4934.5624      -3845.1144
 98  7  8 21 34 45.0070000  0  8G 3G 6G 1G17G21G22G23G26
  -3153124.26246  -2356778.55446  24492736.6984   24492739.2884
       101.0164         78.7134
  24590986.35245  19152387.93544  25776829.2454   25776836.2224
     -5937.3754      -4626.5264
  -1129352.47544   -803126.51943  26291573.6444   26291580.4524
      1358.1564       1058.3044
  12995964.68247  10126727.45846  23334082.5114   23334085.3234
     -3420.1874      -2665.0814
   -482186.70847   -352302.18646  23956823.0424   23956826.0074
      -646.6414       -503.8764
  17486985.52244  13626210.84543  26723453.0194   26723459.6634
     -4527.2344      -3527.7154
   7814175.24447   6091315.04846  22965515.0654   22965517.4444
     -2652.6564      -2067.0054
  16982573.66445  13039120.68245  25659469.4404   25659471.9484
     -4940.0164      -3849.3634
 98  7  8 21 35  0.0070000  0  8G 3G 6G 1G17G21G22G23G26
  -3154603.22446  -2357930.95446  24492455.4724   24492458.1904
        96.1724         74.9394
  24680059.35045  19221795.35243  25793779.0424   25793785.4524
     -5939.0784      -4627.8534
  -1149726.37345   -819002.12544  26287697.4254   26287705.4564
      1358.3594       1058.4624
  13047289.71147  10166720.98046  23343849.3544   23343852.2964
     -3423.1094      -2667.3584
   -472463.17747   -344725.38146  23958673.4874   23958676.4874
      -649.8914       -506.4084
  17554910.17544  13679139.09343  26736377.9644   26736386.4994
     -4529.4224      -3529.4204
   7853993.51447   6122342.27846  22973092.2454   22973094.4134
     -2656.4534      -2069.9634
  17056715.64145  13096893.62545  25673578.0584   25673580.3784
     -4945.5474      -3853.6734
 98  7  8 21 35 15.0070000  0  8G 3G 6G 1G17G21G22G23G26
  -3156008.71746  -2359026.11846  24492187.5034   24492190.5734
        91.0944         70.9824
  24769158.30345  19291223.01544  25810733.7534   25810740.7654
     -5940.8444      -4629.2294
  -1170102.48945   -834879.48644  26283819.3544   26283827.7264
      1358.3284       1058.4384
  13098657.60547  10206747.90746  23353624.5974   23353627.4334
     -3425.9844      -2669.5984
   -462689.38046   -337109.40946  23960533.1834   23960536.0654
      -653.3754       -509.1234
  17622869.63844  13732094.42043  26749310.6674   26749318.3704
     -4531.9374      -3531.3804
   7893870.80847   6153415.50546  22980680.6204   22980682.7414
     -2660.6094      -2073.2024
  17130940.07245  13154730.82645  25687702.7064   25687706.0584
     -4951.1094      -3858.0074
 98  7  8 21 35 30.0070000  0  8G 3G 6G 1G17G21G22G23G26
  -3157338.93046  -2360062.62746  24491934.7534   24491937.6244
        85.7664         66.8304
  24858279.83045  19360668.23444  25827693.3394   25827701.0894
     -5942.5164      -4630.5324
  -1190481.12645   -850758.79944  26279941.7764   26279950.2764
      1358.3594       1058.4624
  13150064.43947  10246805.17146  23363407.0424   23363409.8664
     -3428.7814      -2671.7784
   -452866.26446   -329455.00546  23962402.4644   23962405.5344
      -656.8754       -511.8514
  17690862.83244  13785076.02543  26762249.3944   26762256.4874
     -4534.2504      -3533.1824
   7933807.91147   6184535.33846  22988280.3784   22988282.9334
     -2664.8444      -2076.5024
  17205242.65445  13212628.92745  25701842.3474   25701845.5114
     -4956.3594      -3862.0984
 98  7  8 21 35 45.0070000  0  8G 3G 6G 1G17G21G22G23G26
  -3158590.98046  -2361038.21646  24491696.3624   24491699.2454
        80.8284         62.9834
  24947422.69445  19430130.09944  25844656.4014   25844664.0464
     -5943.5004      -4631.2994
  -1210865.30345   -866642.43244  26276062.7614   26276070.8744
      1359.2034       1059.1194
  13201510.06147  10286892.66546  23373196.5654   23373199.4014
     -3431.0004      -2673.5064
   -442992.76746   -321761.33846  23964281.1444   23964284.4014
      -659.9064       -514.2134
  17758884.55344  13838079.87343  26775194.0264   26775201.7884
     -4535.6874      -3534.3024
   7973804.73547   6215701.70146  22995891.5424   22995894.2024
     -2668.3754      -2079.2534
  17279619.43545  13270584.83945  25715995.9874   25715999.1864
     -4960.8754      -3865.6174
 98  7  8 21 36  0.0070000  0  8G 3G 6G 1G17G21G22G23G26
  -3159764.61446  -2361952.71146  24491473.0424   24491476.1944
        75.7344         59.0144
  25036583.25645  19499605.73844  25861623.5114   25861631.2144
     -5944.4374      -4632.0294
  -1231259.87045   -882534.17144  26272181.0424   26272188.7804
      1360.2034       1059.8994
  13252993.77647  10327009.84746  23382993.7064   23382996.6594
     -3433.3754      -2675.3574
   -433070.35246   -314029.55846  23966169.3704   23966172.6284
      -662.9224       -516.5624
  17826930.59844  13891102.66743  26788142.5974   26788149.2414
     -4536.9374      -3535.2764
   8013858.33747   6246912.30546  23003513.7844   23003516.2924
     -2671.9844      -2082.0664
  17354067.78145  13328596.52145  25730162.3944   25730165.7334
     -4965.4374      -3869.1724
 98  7  8 21 36 15.0070000  0  8G 3G 6G 1G17G21G22G23G26
  -3160858.90646  -2362805.37946  24491264.9724   24491267.4334
        70.1414         54.6554
  25125758.04245  19569092.48744  25878592.9094   25878599.9684
     -5945.5474      -4632.8944
  -1251667.20945   -898435.85144  26268297.7064   26268306.5224
      1360.6884       1060.2764
  13304516.03647  10367157.05846  23392798.1204   23392801.1674
     -3436.3284      -2677.6584
   -423103.27347   -306262.97846  23968066.1594   23968069.2764
      -666.0944       -519.0344
  17894995.60344  13944140.26343  26801095.2534   26801101.8744
     -4538.3754      -3536.3964
   8053968.67047   6278167.11946  23011146.2294   23011148.4214
     -2676.0784      -2085.2564
  17428586.17945  13386662.77745  25744342.9724   25744346.7574
     -4970.3284      -3872.9834
 98  7  8 21 36 30.0070000  0  8G 3G 6G 1G17G21G22G23G26
  -3161868.63246  -2363592.15746  24491072.4564   24491075.3514
        64.6254         50.3574
  25214948.97445  19638591.79244  25895565.7144   25895573.4404
     -5946.3914      -4633.5514
  -1272080.26445   -914341.96744  26264413.5034   26264422.0264
      1361.2034       1060.6784
  13356085.12847  10407340.76546  23402611.3004   23402614.4054
     -3439.3594      -2680.0204
   -413088.62547   -298459.32546  23969972.1204   23969975.1084
      -668.9844       -521.2874
  17963080.46044  13997193.31643  26814051.2614   26814058.1204
     -4539.4374      -3537.2244
   8094140.37947   6309469.76246  23018790.5424   23018792.6754
     -2680.0004      -2088.3124
  17503174.72745  13444783.71345  25758536.3004   25758539.5934
     -4974.5784      -3876.2954
 98  7  8 21 36 45.0070000  0  8G 3G 6G 1G17G21G22G23G26
  -3162791.75746  -2364311.44646  24490897.0504   24490899.9094
        58.8754         45.8774
  25304154.16845  19708102.24044  25912540.8704   25912547.4444
     -5947.1414      -4634.1364
  -1292497.52245   -930251.37943  26260527.7144   26260537.0464
      1361.5944       1060.9824
  13407701.79147  10447561.53746  23412433.5894   23412436.7764
     -3442.3444      -2682.3464
   -403030.11347   -290621.49746  23971885.8394   23971888.7804
      -671.6564       -523.3694
  18031182.82244  14050260.01543  26827010.2614   26827018.6324
     -4540.4064      -3537.9794
   8134373.49247   6340820.24946  23026446.7064   23026448.9334
     -2683.9844      -2091.4164
  17577828.30145  13502955.30145  25772742.9644   25772746.2694
     -4978.7974      -3879.5824
 98  7  8 21 37  0.0070000  0  8G 3G 6G 1G17G21G22G23G26
  -3163629.34646  -2364964.08846  24490737.4484   24490740.7064
        53.2664         41.5064
  25393368.15545  19777619.53944  25929517.3234   25929524.9684
     -5947.5474      -4634.4524
  -1312923.38345   -946167.46243  26256640.5034   26256647.4564
      1362.3284       1061.5544
  13459360.87047  10487815.36446  23422264.0504   23422267.2024
     -3445.0784      -2684.4764
   -392931.43046   -282752.36446  23973807.5814   23973810.8394
      -674.3594       -525.4754
  18099297.14244  14103335.99043  26839971.9404   26839979.1984
     -4540.9534      -3538.4054
   8174664.24447   6372215.65146  23034113.6984   23034115.8904
     -2687.5944      -2094.2294
  17652544.08645  13561175.38245  25786960.8004   25786963.9644
     -4982.8914      -3882.7724
 98  7  8 21 37 15.0070000  0  8G 3G 6G 1G17G21G22G23G26
  -3164383.14846  -2365551.43146  24490594.0194   24490597.0424
        47.2504         36.8184
  25482589.54245  19847142.57244  25946495.9254   25946503.4054
     -5948.5624      -4635.2444
  -1333360.41545   -962092.28243  26252751.4404   26252758.2024
      1362.6724       1061.8224
  13511061.87347  10528101.85346  23432102.2694   23432105.5154
     -3448.3914      -2687.0584
   -382793.08847   -274852.33546  23975736.8704   23975740.1984
      -677.3914       -527.8374
  18167417.45944  14156416.70243  26852934.7454   26852942.6474
     -4541.7344      -3539.0144
   8215006.32847   6403651.04846  23041790.4254   23041792.7694
     -2691.2814      -2097.1024
  17727321.58945  13619443.53345  25801190.1754   25801193.3864
     -4987.4534      -3886.3274
 98  7  8 21 37 30.0070000  0  8G 3G 6G 1G17G21G22G23G26
  -3165049.42846  -2366070.58646  24490467.3314   24490470.2964
        41.4534         32.3014
  25571820.66545  19916673.19444  25963476.3944   25963482.4294
     -5949.0004      -4635.5844
  -1353806.20445   -978023.96043  26248861.4094   26248867.2454
      1363.3594       1062.3584
  13562810.23147  10568425.24746  23441949.8544   23441953.0194
     -3451.4844      -2689.4684
   -372614.27747   -266920.76946  23977673.7764   23977676.7764
      -679.8284       -529.7364
  18235545.98044  14209503.79643  26865899.1904   26865905.7764
     -4542.1254      -3539.3184
   8255399.11747   6435125.95746  23049477.0974   23049479.4054
     -2694.4844      -2099.5984
  17802164.87845  13677762.96545  25815432.5504   25815435.5614
     -4991.7504      -3889.6754
 98  7  8 21 37 45.0080000  0  8G 3G 6G 1G17G21G22G23G26
  -3165628.89746  -2366522.10046  24490356.8594   24490359.8244
        35.7344         27.8454
  25661065.33045  19986214.37844  25980459.2974   25980465.6844
     -5949.6414      -4636.0844
  -1374265.04745   -993965.75143  26244967.6414   26244974.6644
      1364.2194       1063.0284
  13614608.41547  10608787.46646  23451806.5944   23451809.6764
     -3454.5474      -2691.8554
   -362398.97647   -258960.76746  23979617.4374   23979620.2624
      -682.2034       -531.5874
  18303684.72144  14262598.82442  26878866.1414   26878872.0234
     -4542.5474      -3539.6474
   8295841.80947   6466639.75146  23057173.0234   23057175.2504
     -2697.5784      -2102.0094
  17877078.11745  13736136.88545  25829687.8594   25829691.5394
     -4996.1414      -3893.0974
 98  7  8 21 38  0.0080000  0  8G 3G 6G 1G17G21G22G23G26
  -3166120.63846  -2366905.24846  24490263.4774   24490266.6054
        29.9384         23.3284
  25750316.42745  20055760.57543  25997443.4774   25997449.9574
     -5950.4844      -4636.7414
  -1394733.10445  -1009914.75243  26241072.3204   26241079.5784
      1364.8444       1063.5154
  13666450.79947  10649184.13246  23461671.9374   23461675.0784
     -3457.7664      -2694.3634
   -352146.18447   -250971.55446  23981568.8444   23981571.7974
      -684.7814       -533.5964
  18371829.92844  14315698.90243  26891833.8834   26891840.5394
     -4543.4374      -3540.3414
   8336329.86447   6498188.89346  23064877.7894   23064879.8054
     -2700.8444      -2104.5544
  17952055.32845  13794560.67445  25843955.6334   25843959.5594
     -5000.7974      -3896.7254
 98  7  8 21 38 15.0080000  0  8G 3G 6G 1G17G21G22G23G26
  -3166529.35846  -2367223.71146  24490185.4844   24490188.6724
        24.0634         18.7504
  25839577.75845  20125314.75844  26014429.1414   26014436.2114
     -5951.5164      -4637.5454
  -1415210.81745  -1025871.24343  26237175.4064   26237182.7464
      1364.9694       1063.6124
  13718338.53647  10689616.13046  23471545.7504   23471548.7504
     -3461.0784      -2696.9444
   -341857.72947   -242954.54546  23983526.5864   23983529.6334
      -687.5314       -535.7394
  18439984.45644  14368806.23143  26904803.3444   26904809.3094
     -4544.4064      -3541.0964
   8376865.65547   6529775.23346  23072591.5624   23072593.6844
     -2704.4224      -2107.3424
  18027101.01045  13853037.81645  25858236.2424   25858240.7664
     -5005.8124      -3900.6334
 98  7  8 21 38 30.0080000  0  8G 3G 6G 1G17G21G22G23G26
  -3166851.21346  -2367474.47746  24490124.2894   24490127.6874
        18.5164         14.4284
  25928854.21145  20194880.68644  26031418.2034   26031425.1564
     -5952.3914      -4638.2264
  -1435687.90445  -1041827.28443  26233279.1724   26233285.4654
      1364.9534       1063.6004
  13770275.15647  10730086.22046  23481429.0004   23481432.1174
     -3464.1254      -2699.3184
   -331527.95547   -234905.34346  23985492.2194   23985495.3944
      -690.1564       -537.7844
  18508155.92744  14421926.78143  26917775.8054   26917780.9024
     -4545.5164      -3541.9604
   8417453.50847   6561402.14146  23080315.2664   23080317.4454
     -2707.6564      -2109.8624
  18102221.66745  13911573.35345  25872531.2274   25872534.5554
     -5010.6724      -3904.4204
 98  7  8 21 38 45.0080000  0  8G 3G 6G 1G17G21G22G23G26
  -3167086.33946  -2367657.66446  24490079.4304   24490083.4734
        12.8284          9.9964
  26018148.36845  20264460.45343  26048409.9374   26048417.5234
     -5953.4694      -4639.0674
  -1456162.28345  -1057781.19944  26229382.7344   26229390.0744
      1364.9844       1063.6244
  13822259.65347  10770593.62146  23491321.5164   23491324.6804
     -3467.0474      -2701.5954
   -321154.51947   -226822.12846  23987466.0864   23987469.3204
      -693.0314       -540.0244
  18576348.36044  14475063.65942  26930752.5624   26930758.9494
     -4546.8284      -3542.9834
   8458093.40047   6593069.60146  23088048.5784   23088050.8874
     -2710.9844      -2112.4554
  18177419.75345  13970169.26345  25886841.1174   25886845.1954
     -5015.7504      -3908.3774
 98  7  8 21 39  0.0080000  0  8G 3G 6G 1G17G21G22G23G26
  -3167234.38146  -2367773.00246  24490051.3204   24490055.1054
         7.0164          5.4674
  26107460.11045  20334053.90644  26065405.9774   26065413.6804
     -5954.7194      -4640.0414
  -1476636.30545  -1073734.79844  26225486.0704   26225494.4534
      1364.9694       1063.6124
  13874287.47147  10811134.77746  23501222.2194   23501225.3014
     -3469.9064      -2703.8234
   -310734.07447   -218702.26946  23989448.9694   23989452.5194
      -696.3124       -542.5814
  18644562.55344  14528217.47242  26943733.4534   26943742.7274
     -4548.2974      -3544.1274
   8498783.04247   6624775.81846  23095791.6874   23095793.9024
     -2714.2034      -2114.9634
  18252696.11145  14028826.12845  25901166.2344   25901170.9694
     -5021.0164      -3912.4804
 98  7  8 21 39 15.0080000  0  8G 3G 6G 1G17G21G22G23G26
  -3167301.38246  -2367825.18546  24490038.6334   24490042.1604
         1.9064          1.4854
  26196786.83345  20403659.02743  26082404.4454   26082412.7464
     -5955.5474      -4640.6864
  -1497114.16244  -1089691.42944  26221589.5474   26221598.8324
      1365.3444       1063.9044
  13926354.43747  10851706.43546  23511130.0084   23511133.0904
     -3472.3914      -2705.7594
   -300268.38447   -210547.16346  23991440.6024   23991443.8014
      -699.0784       -544.7364
  18712793.70444  14581384.55542  26956716.7664   26956724.2464
     -4549.2034      -3544.8344
   8539515.76447   6656515.61246  23103542.8054   23103545.0084
     -2716.9064      -2117.0704
  18328046.09745  14087540.36645  25915504.7344   25915509.5514
     -5025.6564      -3916.0964
 98  7  8 21 39 30.0080000  0  8G 3G 6G 1G17G21G22G23G26
  -3167286.49646  -2367813.56146  24490041.3914   24490044.6374
        -3.9844         -3.1054
  26286130.63345  20473277.43643  26099405.7274   26099411.0474
     -5957.0164      -4641.8304
  -1517592.14944  -1105648.11044  26217691.9774   26217700.9224
      1364.9694       1063.6124
  13978463.65347  10892311.01846  23521046.1644   23521049.3054
     -3475.5784      -2708.2434
   -289757.62047   -202356.93246  23993440.5944   23993443.5944
      -702.4844       -547.3904
  18781045.44944  14634567.64742  26969704.8984   26969711.8404
     -4551.1414      -3546.3434
   8580295.29647   6688291.87746  23111302.7504   23111304.9184
     -2720.5164      -2119.8824
  18403469.42245  14146311.77444  25929856.8674   25929861.1214
     -5030.8914      -3920.1754
 98  7  8 21 39 45.0080000  0  8G 3G 6G 1G17G21G22G23G26
  -3167183.09846  -2367732.96646  24490060.6024   24490063.6254
        -9.5474         -7.4394
  26375495.15445  20542912.00744  26116411.4304   26116417.1254
     -5958.0784      -4642.6584
  -1538064.23645  -1121600.20344  26213796.5944   26213804.2974
      1364.9224       1063.5754
  14030619.90247  10932952.24846  23530971.1644   23530974.2934
     -3478.3444      -2710.3984
   -279194.96447   -194126.26246  23995450.7194   23995453.5904
      -705.6564       -549.8624
  18849325.45144  14687772.76142  26982698.6644   26982706.5434
     -4552.6094      -3547.4884
   8621130.98747   6720111.90846  23119073.7274   23119075.8124
     -2724.0314      -2122.6224
  18478971.00245  14205144.16744  25944224.6644   25944227.6414
     -5035.7504      -3923.9614
 98  7  8 21 40  0.0080000  0  8G 3G 6G 1G17G21G22G23G26
  -3166997.02446  -2367587.94546  24490095.8984   24490099.0394
       -15.0314        -11.7134
  26464877.22045  20612560.26844  26133420.2734   26133427.6954
     -5959.2974      -4643.6084
  -1558536.49945  -1137552.47644  26209900.2424   26209908.1914
      1364.9224       1063.5754
  14082818.11947  10973626.18546  23540904.1254   23540907.1024
     -3481.2504      -2712.6624
   -268582.49647   -185856.77946  23997470.2664   23997473.3124
      -709.1414       -552.5774
  18917627.55444  14740995.09942  26995696.3284   26995703.6564
     -4554.0784      -3548.6324
   8662020.89547   6751974.18046  23126854.8054   23126856.7154
     -2727.7344      -2125.5074
  18554547.04245  14264034.55844  25958606.2344   25958610.6994
     -5040.8444      -3927.9304
 98  7  8 21 40 15.0080000  0  8G 3G 6G 1G17G21G22G23G26
  -3166731.93546  -2367381.35146  24490146.7034   24490150.1604
       -20.8284        -16.2304
  26554273.84645  20682219.84444  26150432.0554   26150438.5944
     -5960.7974      -4644.7774
  -1579012.05645  -1153507.31144  26206004.2034   26206012.3874
      1364.5634       1063.2954
  14135058.57747  11014333.03646  23550845.0474   23550847.9304
     -3484.6874      -2715.3414
   -257921.02347   -177549.10546  23999498.8204   23999501.6334
      -712.9224       -555.5244
  18985946.52744  14794230.60242  27008696.4454   27008703.5394
     -4555.6254      -3549.8384
   8702962.31047   6783876.58846  23134645.6724   23134647.7344
     -2731.6564      -2128.5634
  18630194.37845  14322980.50544  25973001.6334   25973005.0784
     -5046.0474      -3931.9854
 98  7  8 21 40 30.0080000  0  8G 3G 6G 1G17G21G22G23G26
  -3166377.58646  -2367105.20946  24490214.1644   24490217.1524
       -26.5474        -20.6864
  26643694.11145  20751897.85844  26167448.2034   26167454.0624
     -5962.0474      -4645.7514
  -1599481.30745  -1169457.21344  26202109.3444   26202116.8484
      1364.5634       1063.2954
  14187350.62847  11055080.08746  23560796.1094   23560799.1094
     -3487.7664      -2717.7394
   -247201.68647   -169196.35146  24001538.9144   24001541.7854
      -716.4374       -558.2634
  19054288.23944  14847483.81643  27021701.8204   27021708.9614
     -4556.7814      -3550.7394
   8743962.63547   6815824.90246  23142447.6254   23142449.8164
     -2735.1564      -2131.2914
  18705920.47645  14381987.84645  25987411.7344   25987414.4304
     -5050.9064      -3935.7714
 98  7  8 21 40 45.0080000  0  8G 3G 6G 1G17G21G22G23G26
  -3165933.88946  -2366759.44146  24490298.9614   24490301.8914
       -32.4374        -25.2764
  26733137.20645  20821593.65244  26184468.3284   26184475.5394
     -5963.4694      -4646.8594
  -1619947.70245  -1185404.92944  26198214.3754   26198221.7734
      1364.5314       1063.2714
  14239692.83147  11095866.21546  23570756.2424   23570759.0664
     -3491.0474      -2720.2964
   -236426.77747   -160800.29246  24003589.0314   24003591.9494
      -720.0474       -561.0754
  19122649.40844  14900752.14442  27034711.0234   27034718.1644
     -4557.7814      -3551.5184
   8785017.89247   6847816.01146  23150260.0394   23150262.3124
     -2738.7504      -2134.0914
  18781721.28645  14441053.40644  26001836.3204   26001839.8834
     -5055.6724      -3939.4854
 98  7  8 21 41  0.0080000  0  8G 3G 6G 1G17G21G22G23G26
  -3165403.23546  -2366345.91846  24490399.6174   24490402.3364
       -38.5164        -30.0124
  26822599.54545  20891304.45644  26201493.0474   26201498.3914
     -5965.0004      -4648.0524
  -1640416.78245  -1201354.70944  26194318.9454   26194326.6134
      1364.4534       1063.2104
  14292084.48047  11136690.87646  23580726.0624   23580728.9574
     -3494.7034      -2723.1454
   -225598.53247   -152362.67146  24005649.7504   24005652.7384
      -723.9064       -564.0834
  19191022.11844  14954029.50243  27047721.4774   27047728.5474
     -4558.7664      -3552.2854
   8826126.85447   6879848.98046  23158083.0474   23158085.1214
     -2742.6724      -2137.1474
  18857591.56445  14500173.06344  26016273.7814   26016277.8124
     -5060.5474      -3943.2834
 98  7  8 21 41 15.0080000  0  8G 3G 6G 1G17G21G22G23G26
  -3164779.25546  -2365859.68146  24490518.0784   24490520.7734
       -44.7974        -34.9074
  26912087.05945  20961034.84744  26218522.0234   26218529.5984
     -5966.8124      -4649.4644
  -1660881.00845  -1217300.71245  26190424.9454   26190432.7894
      1363.9534       1062.8214
  14344534.24647  11177560.81746  23590706.9224   23590709.9104
     -3498.7344      -2726.2874
   -214710.98647   -143878.83846  24007721.5234   24007724.4534
      -727.8444       -567.1514
  19259411.28843  15007319.66242  27060735.5394   27060743.8754
     -4559.9374      -3553.1984
   8867298.47547   6911930.77046  23165917.5864   23165919.5904
     -2747.0314      -2140.5444
  18933537.56145  14559351.75644  26030725.9064   26030730.6994
     -5065.7664      -3947.3504
 98  7  8 21 41 30.0080000  0  8G 3G 6G 1G17G21G22G23G26
  -3164065.38346  -2365303.38646  24490654.4454   24490656.9884
       -50.3124        -39.2054
  27001597.43045  21030783.05143  26235555.3124   26235562.6764
     -5967.8124      -4650.2444
  -1681339.89745  -1233242.57244  26186531.2034   26186538.9774
      1364.0634       1062.9064
  14397041.25247  11218475.36346  23600698.6954   23600701.5434
     -3502.0784      -2728.8924
   -203769.43147   -135352.92746  24009803.5164   24009806.5394
      -730.9064       -569.5374
  19327815.85643  15060621.84842  27073751.5164   27073760.3554
     -4560.5784      -3553.6974
   8908534.55247   6944062.78346  23173764.5474   23173766.7154
     -2751.0164      -2143.6494
  19009560.12845  14618590.08944  26045192.3834   26045196.8014
     -5070.4694      -3951.0154
 98  7  8 21 41 45.0080000  0  8G 3G 6G 1G17G21G22G23G26
  -3163264.72946  -2364679.47046  24490806.6724   24490809.3794
       -56.4374        -43.9774
  27091125.03245  21100544.68043  26252592.3284   26252598.2464
     -5969.2664      -4651.3764
  -1701799.10345  -1249184.65944  26182638.0164   26182645.2624
      1363.8134       1062.7114
  14449599.79747  11259430.07246  23610700.2424   23610703.1134
     -3505.7194      -2731.7294
   -192779.27147   -126789.13946  24011894.7194   24011897.4144
      -734.4534       -572.3014
  19396231.85643  15113932.93442  27086772.0084   27086777.9614
     -4561.4844      -3554.4034
   8949832.47047   6976242.98946  23181623.4374   23181625.5824
     -2755.3754      -2147.0454
  19085656.51045  14677885.96944  26059673.0864   26059677.2584
     -5075.7344      -3955.1184
 98  7  8 21 42  0.0080000  0  8G 3G 6G 1G17G21G22G23G26
  -3162371.31446  -2363983.27646  24490976.3754   24490978.9064
       -62.6094        -48.7874
  27180676.24745  21170324.75343  26269633.4454   26269639.6444
     -5970.8754      -4652.6304
  -1722253.86345  -1265123.29444  26178745.6484   26178753.1294
      1363.5164       1062.4804
  14502212.90847  11300427.29946  23620712.2504   23620715.0984
     -3509.2504      -2734.4814
   -181735.33247   -118183.44046  24013996.6334   24013999.5744
      -738.0314       -575.0894
  19464659.49243  15167253.09142  27099792.9614   27099801.3554
     -4562.1564      -3554.9274
   8991195.73547   7008474.11146  23189494.3984   23189496.4614
     -2759.6564      -2150.3814
  19161830.87945  14737242.59944  26074168.8754   26074172.2154
     -5080.7974      -3959.0624
 98  7  8 21 42 15.0080000  0  8G 3G 6G 1G17G21G22G23G26
  -3161386.58646  -2363215.93746  24491164.0004   24491166.6954
       -68.6414        -53.4864
  27270250.35945  21240122.64444  26286678.9374   26286686.1024
     -5972.2664      -4653.7134
  -1742703.46645  -1281057.88644  26174853.9144   26174861.2074
      1363.0784       1062.1394
  14554876.57647  11341463.91446  23630733.9774   23630736.7074
     -3512.4534      -2736.9764
   -170639.00947   -109536.93346  24016108.1484   24016111.3484
      -741.3914       -577.7074
  19533096.64443  15220580.68742  27112816.6414   27112823.8284
     -4562.7344      -3555.3774
   9032621.15747   7040753.66646  23197377.4454   23197379.8594
     -2763.6564      -2153.4984
  19238080.03145  14796657.48445  26088678.2424   26088681.1024
     -5085.5624      -3962.7764
 98  7  8 21 42 30.0080000  0  8G 3G 6G 1G17G21G22G23G26
  -3160313.17146  -2362379.49046  24491368.1874   24491371.1174
       -74.7034        -58.2104
  27359843.36045  21309935.22643  26303727.6174   26303735.0394
     -5973.6414      -4654.7854
  -1763146.97345  -1296987.75244  26170963.1094   26170969.8834
      1362.4534       1061.6524
  14607583.10247  11382533.92746  23640763.3754   23640766.3054
     -3515.2504      -2739.1564
   -159495.50447   -100853.65946  24018228.4694   24018231.7734
      -744.6254       -580.2274
  19601539.77843  15273912.85942  27125840.3124   27125848.1804
     -4563.2344      -3555.7674
   9074102.86947   7073077.08646  23205271.3204   23205273.3594
     -2767.4694      -2156.4694
  19314395.79545  14856124.30645  26103201.3284   26103204.3054
     -5090.0944      -3966.3074
 98  7  8 21 42 45.0080000  0  8G 3G 6G 1G17G21G22G23G26
  -3159141.06246  -2361466.13446  24491590.9614   24491593.6684
       -81.4534        -63.4704
  27449462.50545  21379768.19443  26320781.6804   26320788.3244
     -5975.4534      -4656.1974
  -1783573.62445  -1312904.45644  26167076.6564   26167083.3944
      1361.2344       1060.7024
  14660338.01947  11423641.65246  23650802.5944   23650805.4884
     -3518.6724      -2741.8224
   -148296.48447    -92127.12746  24020359.8674   24020363.1024
      -748.4374       -583.1984
  19669998.05243  15327256.91142  27138868.3594   27138877.1644
     -4564.4224      -3556.6924
   9115649.13047   7105450.79946  23213177.4694   23213179.5904
     -2771.9064      -2159.9274
  19390787.68245  14915650.43545  26117737.7194   26117740.6604
     -5095.3444      -3970.3984
 98  7  8 21 43  0.0080000  0  8G 3G 6G 1G17G21G22G23G26
  -3157875.75146  -2360480.15046  24491832.0234   24491834.9884
       -87.4374        -68.1334
  27539099.84145  21449615.36343  26337839.1254   26337845.6054
     -5976.3754      -4656.9164
  -1803990.40945  -1328813.50644  26163191.2504   26163197.4844
      1360.8134       1060.3734
  14713137.16847  11464783.83946  23660849.8124   23660852.8714
     -3521.4064      -2743.9534
   -137048.10447    -83362.12846  24022500.1254   24022503.0904
      -751.5624       -585.6334
  19738467.07643  15380609.28943  27151897.5784   27151906.8754
     -4565.0314      -3557.1674
   9157253.85647   7137870.07846  23221094.2974   23221096.3944
     -2775.6254      -2162.8254
  19467250.78845  14975232.05645  26132288.1874   26132291.9734
     -5099.9224      -3973.9654
 98  7  8 21 43 15.0080000  0  8G 3G 6G 1G17G21G22G23G26
  -3156516.25146  -2359420.77646  24492090.7274   24492093.4344
       -93.3754        -72.7604
  27628756.00145  21519477.14543  26354900.7974   26354907.2774
     -5977.3284      -4657.6584
  -1824395.98945  -1344713.81243  26159308.1334   26159314.3324
      1360.3594       1060.0204
  14765981.20647  11505961.01046  23670905.8754   23670908.8404
     -3523.9534      -2745.9374
   -125748.18547    -74556.97346  24024650.4924   24024653.4694
      -754.6094       -588.0074
  19806952.83443  15433974.74242  27164929.8124   27164940.3284
     -4565.9694      -3557.8984
   9198919.34647   7170336.69846  23229023.0944   23229025.2504
     -2779.2814      -2165.6744
  19543788.64445  15034871.92645  26146852.9534   26146857.3244
     -5104.6564      -3977.6544
 98  7  8 21 43 30.0080000  0  8G 3G 6G 1G17G21G22G23G26
  -3155066.95246  -2358291.43046  24492366.2424   24492368.9374
       -99.5164        -77.5454
  27718426.42345  21589350.09643  26371964.4774   26371970.6764
     -5978.3284      -4658.4374
  -1844794.31845  -1360608.47343  26155426.3834   26155432.9104
      1359.7974       1059.5824
  14818863.10347  11547167.68146  23680968.8984   23680971.7114
     -3526.6094      -2748.0074
   -114402.59647    -65716.22946  24026809.2504   24026812.0044
      -757.7814       -590.4794
  19875452.98643  15487351.35343  27177964.7584   27177972.2854
     -4567.0314      -3558.7264
   9240638.18447   7202844.89246  23236961.7974   23236963.6954
     -2782.7974      -2168.4134
  19620397.37245  15094567.02945  26161431.5394   26161435.8164
     -5109.4694      -3981.4044
 98  7  8 21 43 45.0080000  0  8G 3G 6G 1G17G21G22G23G26
  -3153525.56546  -2357090.33846  24492659.6724   24492662.3554
      -105.9224        -82.5374
  27808110.54645  21659233.69143  26389031.3054   26389038.8324
     -5979.4374      -4659.3024
  -1865185.07245  -1376497.22243  26151545.8914   26151551.7154
      1359.1414       1059.0714
  14871784.81147  11588405.36846  23691039.4694   23691042.6214
     -3529.5314      -2750.2844
   -103009.26547    -56838.28546  24028977.4304   24028980.4184
      -761.2344       -593.1704
  19943968.51543  15540739.96043  27191003.5864   27191011.6764
     -4568.2034      -3559.6394
   9282407.64347   7235392.52546  23244910.4064   23244912.3524
     -2786.2664      -2171.1164
  19697075.69245  15154316.33145  26176023.0624   26176027.0704
     -5114.1254      -3985.0324
 98  7  8 21 44  0.0080000  0  8G 3G 6G 1G17G21G22G23G26
  -3151881.22646  -2355809.01746  24492972.6174   24492975.2664
      -113.0474        -88.0884
  27897815.36545  21729133.42343  26406101.1484   26406108.6174
     -5980.9064      -4660.4464
  -1885560.74345  -1392374.24743  26147668.4064   26147674.8054
      1357.8444       1058.0604
  14924756.49147  11629681.99646  23701119.5394   23701122.7034
     -3533.1414      -2753.0974
    -91557.96547    -47915.16446  24031156.5784   24031159.4844
      -765.3124       -596.3474
  20012505.46643  15594145.29942  27204045.4924   27204053.2664
     -4569.7974      -3560.8814
   9324232.39147   7267983.24246  23252869.5474   23252871.5624
     -2790.1254      -2174.1234
  19773827.49245  15214122.92545  26190628.2814   26190631.4454
     -5119.1564      -3988.9534
 98  7  8 21 44 15.0080000  0  8G 3G 6G 1G17G21G22G23G26
  -3150138.35746  -2354450.90546  24493304.2814   24493307.2234
      -119.6414        -93.2264
  27987532.41945  21799042.68043  26423173.6724   26423181.3404
     -5981.6874      -4661.0554
  -1905925.45545  -1408242.72643  26143793.0704   26143799.3754
      1357.0634       1057.4514
  14977774.70447  11670994.87946  23711208.7274   23711211.9844
     -3536.3124      -2755.5684
    -80055.16947    -38951.92546  24033345.5704   24033348.5004
      -768.7194       -599.0024
  20081058.63743  15647563.23643  27217091.2114   27217098.6914
     -4571.0164      -3561.8304
   9366106.47547   7300612.40846  23260837.7504   23260839.7424
     -2793.4374      -2176.7054
  19850646.03545  15273981.50545  26205246.1724   26205249.0194
     -5123.7034      -3992.4964
 98  7  8 21 44 30.0080000  0  8G 3G 6G 1G17G21G22G23G26
  -3148293.49446  -2353013.33346  24493655.3284   24493658.1644
      -126.5004        -98.5714
  28077265.65945  21868964.54943  26440249.7424   26440257.5624
     -5982.8594      -4661.9684
  -1926274.18045  -1424098.76443  26139921.1644   26139926.1094
      1356.0314       1056.6484
  15030846.79547  11712349.74646  23721308.1644   23721311.4924
     -3540.1724      -2758.5754
    -68498.46447    -29946.67746  24035544.8204   24035547.8094
      -772.3284       -601.8144
  20149635.34244  15700999.54142  27230140.2974   27230148.9734
     -4572.6254      -3563.0844
   9408034.23347   7333283.38946  23268816.3834   23268818.1994
     -2797.0624      -2179.5294
  19927537.21345  15333896.68845  26219878.3914   26219880.9344
     -5128.5624      -3996.2824
 98  7  8 21 44 45.0080000  0  8G 3G 6G 1G17G21G22G23G26
  -3146346.27546  -2351495.99846  24494025.8284   24494028.6644
      -133.3124       -103.8804
  28167015.05845  21938899.01843  26457327.9064   26457335.7854
     -5983.8444      -4662.7354
  -1946609.62245  -1439944.44143  26136050.7504   26136055.7304
      1355.1724       1055.9784
  15083979.35147  11753751.72846  23731418.7664   23731422.1174
     -3544.4064      -2761.8754
    -56887.33747    -20899.02246  24037754.3674   24037757.1214
      -776.0164       -604.6874
  20218234.72044  15754453.54242  27243195.0944   27243204.2624
     -4574.1564      -3564.2784
   9450015.73747   7365996.26146  23276805.0554   23276806.8364
     -2800.7034      -2182.3664
  20004501.87845  15393869.11245  26234523.9144   26234527.1374
     -5133.6414      -4000.2394
 98  7  8 21 45  0.0080000  0  8G 3G 6G 1G17G21G22G23G26
  -3144296.65446  -2349898.87146  24494415.5164   24494418.4224
      -140.0474       -109.1274
  28256778.39344  22008844.31743  26474410.0084   26474417.7344
     -5984.7034      -4663.4054
  -1966932.21745  -1455780.07444  26132183.1804   26132189.8714
      1354.3914       1055.3694
  15137177.86747  11795205.10846  23741542.1724   23741545.5004
     -3548.8284      -2765.3214
    -45220.62447    -11808.05546  24039974.5234   24039977.3364
      -779.6414       -607.5124
  20286858.60744  15807926.59743  27256253.3364   27256262.7384
     -4575.7344      -3565.5074
   9492054.04047   7398753.38746  23284804.8444   23284806.9534
     -2804.4844      -2185.3124
  20081544.71745  15453902.47645  26249184.9224   26249189.7274
     -5138.7664      -4004.2334
 98  7  8 21 45 15.0080000  0  8G 3G 6G 1G17G21G22G23G26
  -3142147.40646  -2348224.11946  24494824.7734   24494827.5984
      -146.4534       -114.1194
  28346554.64145  22078799.67143  26491494.2344   26491502.3244
     -5985.4374      -4663.9774
  -1987241.06045  -1471605.04544  26128318.7664   26128325.0704
      1353.4694       1054.6514
  15190441.35947  11836709.12546  23751677.9064   23751681.3054
     -3552.9064      -2768.4984
    -33499.91647     -2675.00546  24042204.6804   24042207.5864
      -783.0624       -610.1794
  20355504.63644  15861416.91343  27269316.0394   27269324.0944
     -4577.0004      -3566.4944
   9534149.35847   7431554.93846  23292815.0084   23292816.9184
     -2808.1874      -2188.1984
  20158662.22345  15513994.01845  26263859.8984   26263863.6954
     -5143.5314      -4007.9464
 98  7  8 21 45 30.0080000  0  8G 3G 6G 1G17G21G22G23G26
  -3139895.27546  -2346469.18346  24495253.0784   24495256.1604
      -153.3594       -119.5014
  28436349.39544  22148769.53943  26508581.4304   26508590.6334
     -5986.6564      -4664.9274
  -2007528.46345  -1487413.28345  26124458.1334   26124464.4734
      1351.9844       1053.4944
  15243772.46947  11878265.82646  23761826.2664   23761829.4304
     -3557.4224      -2772.0174
    -21722.39547      6502.30646  24044445.5864   24044448.5044
      -786.8124       -613.1014
  20424174.13544  15914925.52343  27282383.9774   27282393.0514
     -4578.4064      -3567.5894
   9576307.60847   7464405.52846  23300837.7734   23300839.7774
     -2812.3594      -2191.4494
  20235858.04545  15574146.58645  26278549.9534   26278553.9264
     -5148.7034      -4011.9764
 98  7  8 21 45 45.0080000  0  8G 3G 6G 1G17G21G22G23G26
  -3137539.53146  -2344633.50946  24495701.6094   24495704.6334
      -160.3594       -124.9554
  28526160.22845  22218751.83843  26525671.9774   26525680.2774
     -5987.7974      -4665.8164
  -2027794.58045  -1503204.93545  26120601.9304   26120608.1054
      1350.5474       1052.3744
  15297170.82847  11919874.92646  23771987.7194   23771990.9884
     -3561.9844      -2775.5724
     -9888.30447     15723.69846  24046697.5704   24046700.7114
      -790.6874       -616.1204
  20492862.05744  15968448.51343  27295454.9144   27295464.3874
     -4579.6094      -3568.5274
   9618525.48847   7497302.58446  23308871.2734   23308873.4534
     -2816.3284      -2194.5414
  20313129.26645  15634357.92045  26293254.2424   26293257.3014
     -5153.7344      -4015.8974
 98  7  8 21 46  0.0080000  0  8G 3G 6G 1G17G21G22G23G26
  -3135083.89746  -2342720.00246  24496168.5624   24496171.2934
      -167.0624       -130.1794
  28615986.37545  22288746.10743  26542765.8444   26542773.3594
     -5989.0164      -4666.7654
  -2048042.35345  -1518982.30345  26116748.0704   26116754.9414
      1349.1724       1051.3034
  15350634.82447  11961535.17646  23782161.8054   23782164.9694
     -3566.5314      -2779.1154
      1999.51447     24986.95946  24048959.7814   24048963.0624
      -794.3444       -618.9694
  20561563.31544  16021981.85243  27308528.5864   27308539.0314
     -4580.5624      -3569.2694
   9660801.00547   7530244.54946  23316916.1254   23316918.1054
     -2820.4064      -2197.7194
  20390472.77645  15694625.55644  26307971.9844   26307975.4184
     -5158.6874      -4019.7564
 98  7  8 21 46 15.0080000  0  8G 3G 6G 1G17G21G22G23G26
  -3132526.16646  -2340726.94246  24496655.7344   24496658.5474
      -173.8914       -135.4994
  28705832.41345  22358755.87143  26559862.6954   26559870.2814
     -5990.4844      -4667.9104
  -2068267.47945  -1534742.02545  26112899.8834   26112906.3164
      1347.5784       1050.0614
  15404167.69747  12003249.09346  23792348.6724   23792351.6724
     -3571.1414      -2782.7074
     13943.93947     34294.32846  24051232.7344   24051236.1334
      -798.2194       -621.9894
  20630280.95644  16075527.98243  27321604.7424   27321612.6564
     -4581.7974      -3570.2314
   9703140.35147   7563236.25446  23324973.2344   23324975.1914
     -2824.8124      -2201.1534
  20467894.11245  15754953.84844  26322704.4844   26322709.5824
     -5164.1564      -4024.0184
 98  7  8 21 46 30.0080000  0  8G 3G 6G 1G17G21G22G23G26
  -3129870.14346  -2338657.28546  24497161.0314   24497163.8794
      -180.0784       -140.3214
  28795700.34845  22428782.72443  26576964.4774   26576973.1524
     -5991.7344      -4668.8844
  -2088471.83745  -1550485.54645  26109055.1414   26109061.2694
      1346.5314       1049.2454
  15457766.02047  12045014.01646  23802548.1414   23802551.3054
     -3575.1414      -2785.8244
     25944.03947     43645.07846  24053516.3834   24053519.1724
      -801.6564       -624.6674
  20699014.05544  16129086.17443  27334685.3524   27334690.5784
     -4582.4844      -3570.7674
   9745542.32147   7596276.76046  23333041.9144   23333043.6724
     -2828.6564      -2204.1484
  20545395.34745  15815344.39245  26337452.5624   26337457.6844
     -5169.1874      -4027.9384
 98  7  8 21 46 45.0080000  0  8G 3G 6G 1G17G21G22G23G26
  -3127117.67146  -2336512.48146  24497684.8984   24497687.8634
      -186.7034       -145.4834
  28885590.70045  22498826.98243  26594069.8284   26594076.6484
     -5993.3914      -4670.1754
  -2108657.03345  -1566214.15345  26105213.5784   26105221.2464
      1345.0634       1048.1014
  15511428.36247  12086828.82046  23812759.7894   23812762.6844
     -3579.5784      -2789.2824
     38001.20847     53040.29546  24055810.6954   24055813.5314
      -805.7664       -627.8694
  20767760.35244  16182654.61143  27347766.1334   27347774.1644
     -4583.4534      -3571.5224
   9788005.52647   7629364.97046  23341122.1874   23341124.0744
     -2832.8754      -2207.4354
  20622974.62845  15875795.78044  26352215.3594   26352219.8014
     -5174.5474      -4032.1144
 98  7  8 21 47  0.0080000  0  8G 3G 6G 1G17G21G22G23G26
  -3124233.06246  -2334264.70846  24498233.7894   24498236.8244
      -196.7034       -153.2754
  28975537.19444  22568915.06643  26611185.7734   26611192.4774
     -5998.2504      -4673.9614
  -2128786.85845  -1581899.59845  26101382.9224   26101389.6024
      1340.1724       1044.2904
  15565187.24347  12128718.84946  23822989.6414   23822992.5944
     -3586.9844      -2795.0534
     50152.19047     62508.61646  24058122.7734   24058125.4694
      -813.1254       -633.6044
  20836554.40644  16236260.33043  27360858.1954   27360867.7154
     -4587.8284      -3574.9314
   9830564.21747   7662527.59546  23349221.0394   23349223.0314
     -2840.3914      -2213.2914
  20700668.29745  15936336.25344  26366999.5474   26367003.0984
     -5183.3444      -4038.9694
 98  7  8 21 47 15.0080000  0  8G 3G 6G 1G17G21G22G23G26
  -3121229.37446  -2331924.14746  24498805.2114   24498807.9884
      -203.7664       -158.7784
  29065524.92644  22639035.23743  26628310.5004   26628318.0624
     -6000.0624      -4675.3734
  -2148876.97945  -1597554.13445  26097559.5624   26097566.7274
      1338.5944       1043.0604
  15619022.67747  12170668.53046  23833234.2034   23833237.2734
     -3591.0004      -2798.1824
     62380.08247     72036.87246  24060449.6874   24060452.5124
      -817.1414       -636.7334
  20905380.05344  16289890.60843  27373954.8284   27373962.9774
     -4588.8284      -3575.7104
   9873202.29147   7695752.07646  23357334.7034   23357336.8834
     -2844.6094      -2216.5794
  20778459.09845  15996952.46344  26381802.8674   26381807.5314
     -5188.6724      -4043.1214
 98  7  8 21 47 30.0080000  0  8G 3G 6G 1G17G21G22G23G26
  -3118119.54846  -2329500.88046  24499397.0624   24499399.5594
      -210.8754       -164.3184
  29155539.41744  22709176.25843  26645439.8204   26645448.5784
     -6001.8754      -4676.7864
  -2168944.42845  -1613190.99645  26093741.3364   26093748.2774
      1337.1724       1041.9524
  15672916.77847  12212663.92646  23843489.9374   23843492.7624
     -3594.8914      -2801.2134
     74666.38847     81610.63846  24062787.6174   24062790.4534
      -821.0164       -639.7524
  20974219.64544  16343531.78743  27387054.4374   27387063.7694
     -4589.8124      -3576.4774
   9915902.61247   7729025.05346  23365460.2194   23365462.5984
     -2848.7034      -2219.7694
  20856328.33845  16057629.76744  26396621.0474   26396625.0084
     -5193.8444      -4047.1514
 98  7  8 21 47 45.0080000  0  8G 3G 6G 1G17G21G22G23G26
  -3114901.88646  -2326993.58846  24500009.3594   24500012.0554
      -218.2194       -170.0414
  29245579.93944  22779337.57042  26662573.4924   26662581.6414
     -6003.5314      -4678.0764
  -2188993.48345  -1628813.54245  26089926.1094   26089932.1804
      1335.9534       1041.0024
  15726868.85947  12254704.50946  23853756.6644   23853759.5824
     -3598.8124      -2804.2694
     87011.15747     91229.96046  24065136.7814   24065139.8164
      -825.0314       -642.8814
  21043073.46944  16397183.98143  27400157.4224   27400166.0984
     -4590.7504      -3577.2084
   9958662.71747   7762344.62246  23373597.2504   23373599.3014
     -2852.6414      -2222.8374
  20934274.08345  16118366.68544  26411453.5394   26411457.8284
     -5198.9534      -4051.1324
 98  7  8 21 48  0.0080000  0  8G 3G 6G 1G17G21G22G23G26
  -3111570.90746  -2324398.00246  24500643.4614   24500646.1334
      -225.9224       -176.0434
  29335649.35944  22849521.40043  26679713.8124   26679722.0784
     -6005.7194      -4679.7814
  -2209021.41345  -1644419.60045  26086114.9844   26086121.3484
      1334.3914       1039.7854
  15780882.89047  12296793.35746  23864035.5084   23864038.3674
     -3603.0944      -2807.6064
     99418.14347    100897.76146  24067497.7034   24067500.7734
      -829.2194       -646.1444
  21111945.05844  16450850.08243  27413263.1804   27413271.3634
     -4592.1724      -3578.3164
  10001485.43247   7795712.98246  23381746.1874   23381748.0624
     -2857.1724      -2226.3684
  21012299.20345  16179165.46144  26426301.2504   26426305.0354
     -5204.4224      -4055.3944
 98  7  8 21 48 15.0080000  0  8G 3G 6G 1G17G21G22G23G26
  -3108122.00746  -2321710.52346  24501299.6874   24501302.5124
      -233.8594       -182.2284
  29425751.57344  22919730.77643  26696859.3284   26696866.8554
     -6007.6874      -4681.3154
  -2229023.84645  -1660005.81245  26082308.0314   26082314.2074
      1332.7814       1038.5314
  15834962.42747  12338933.25346  23874326.1484   23874329.1484
     -3607.2974      -2810.8814
    111888.55347    110614.98446  24069870.5704   24069873.5234
      -833.3754       -649.3834
  21180840.11344  16504534.47243  27426373.7664   27426382.8054
     -4593.7034      -3579.5094
  10044379.97647   7829137.30746  23389908.7344   23389910.5394
     -2861.8754      -2230.0324
  21090408.16545  16240029.57844  26441165.1724   26441168.4184
     -5209.9534      -4059.7044
 98  7  8 21 48 30.0080000  0  8G 3G 6G 1G17G21G22G23G26
  -3104557.08846  -2318932.64046  24501977.8524   24501980.4654
      -242.0314       -188.5964
  29515877.94143  22989959.00742  26714010.5474   26714019.5514
     -6009.7344      -4682.9104
  -2249006.64845  -1675576.72145  26078505.3594   26078511.7234
      1331.0164       1037.1554
  15889099.67947  12381118.11846  23884628.2974   23884631.1914
     -3611.5624      -2814.2054
    124417.53547    120377.85446  24072254.8524   24072257.7114
      -837.6874       -652.7444
  21249754.41644  16558233.83642  27439487.7734   27439496.8014
     -4595.3914      -3580.8244
  10087338.00747   7862611.10446  23398083.2344   23398085.2034
     -2866.4064      -2233.5634
  21168595.30445  16300954.58044  26456043.7344   26456048.2814
     -5215.4694      -4064.0024
 98  7  8 21 48 45.0080000  0  8G 3G 6G 1G17G21G22G23G26
  -3100875.81646  -2316064.09546  24502678.5864   24502681.1874
      -249.4844       -194.4034
  29606027.16843  23060204.98042  26731164.0624   26731174.2034
     -6010.7814      -4683.7264
  -2268969.16745  -1691131.82645  26074706.4064   26074712.4064
      1329.9384       1036.3154
  15943292.66847  12423346.41746  23894940.9374   23894944.0554
     -3614.8754      -2816.7864
    137003.21047    130184.89546  24074649.7114   24074652.6054
      -841.1094       -655.4104
  21318686.30844  16611946.90442  27452605.4454   27452616.0194
     -4596.2194      -3581.4694
  10130356.51347   7896132.02546  23406269.7034   23406271.7304
     -2870.1094      -2236.4494
  21246855.34145  16361936.42744  26470936.3054   26470941.5904
     -5219.8284      -4067.3994
 98  7  8 21 49  0.0080000  0  8G 3G 6G 1G17G21G22G23G26
  -3097074.26246  -2313101.82946  24503401.5944   24503404.0784
      -257.2974       -200.4914
  29696199.74943  23130469.19542  26748324.2114   26748333.0744
     -6012.0624      -4684.7244
  -2288906.18045  -1706667.03344  26070912.3284   26070918.2694
      1328.4384       1035.1464
  15997544.88547  12465620.86646  23905264.5314   23905267.9184
     -3618.5944      -2819.6834
    149649.35147    140039.05446  24077056.4924   24077059.1874
      -844.8914       -658.3564
  21387639.51144  16665676.60542  27465726.6174   27465735.1644
     -4597.3914      -3582.3824
  10173439.84647   7929703.46046  23414468.0784   23414470.3634
     -2874.2194      -2239.6514
  21325189.25445  16422975.83144  26485842.8124   26485846.8324
     -5224.5164      -4071.0514
 98  7  8 21 49 15.0090000  0  8G 3G 6G 1G17G21G22G23G26
  -3093153.46846  -2310046.64346  24504147.7004   24504150.5484
      -265.3124       -206.7374
  29786398.20543  23200753.52642  26765487.9424   26765496.6184
     -6013.4374      -4685.7954
  -2308821.13545  -1722185.08744  26067122.5914   26067128.5094
      1326.8134       1033.8804
  16051857.35047  12507942.26246  23915599.9354   23915603.4744
     -3622.4694      -2822.7034
    162353.68947    149938.55946  24079474.1384   24079476.8454
      -848.7664       -661.3764
  21456615.07643  16719423.68142  27478852.3644   27478860.6774
     -4598.5624      -3583.2954
  10216590.01047   7963326.97146  23422679.1534   23422681.3334
     -2878.6414      -2243.0974
  21403597.93545  16484073.50044  26500763.4424   26500767.4974
     -5229.1564      -4074.6674
 98  7  8 21 49 30.0090000  0  8G 3G 6G 1G17G21G22G23G26
  -3089114.50646  -2306899.37346  24504916.2864   24504919.0054
      -273.1254       -212.8254
  29876609.25843  23271047.71742  26782655.1774   26782664.5674
     -6014.6564      -4686.7454
  -2328710.54045  -1737683.20245  26063338.1144   26063344.3954
      1325.1414       1032.5774
  16106223.30347  12550305.33646  23925945.4814   23925948.9974
     -3626.2664      -2825.6624
    175113.44347    159881.23846  24081902.0134   24081904.8724
      -852.5474       -664.3224
  21525601.96843  16773179.62142  27491980.1224   27491986.8024
     -4599.6724      -3584.1604
  10259802.56347   7996999.09746  23430902.0994   23430904.0094
     -2883.0164      -2246.5064
  21482069.87645  16545220.43444  26515695.8644   26515700.1304
     -5233.7344      -4078.2354
 98  7  8 21 49 45.0090000  0  8G 3G 6G 1G17G21G22G23G26
  -3084959.80346  -2303661.92046  24505706.9814   24505710.0284
      -280.7814       -218.7914
  29966838.78743  23341356.29443  26799825.5604   26799833.4274
     -6015.9064      -4687.7194
  -2348572.61045  -1753160.05445  26059558.4664   26059564.5484
      1323.1884       1031.0554
  16160647.11847  12592713.49646  23936302.1534   23936305.7274
     -3630.2344      -2828.7544
    187933.86647    169871.20346  24084341.6774   24084344.5134
      -856.8594       -667.6834
  21594607.52843  16826950.09642  27505110.2394   27505117.4274
     -4601.0314      -3585.2194
  10303081.37547   8030722.85546  23439137.9194   23439139.8064
     -2887.4064      -2249.9274
  21560611.97445  16606422.07344  26530641.9114   26530645.9774
     -5238.5004      -4081.9484
 98  7  8 21 50  0.0090000  0  8G 3G 6G 1G17G21G22G23G26
  -3080691.33046  -2300335.81046  24506519.2474   24506522.1774
      -288.0784       -224.4764
  30057085.89643  23411678.53342  26816998.3174   26817008.9154
     -6016.8284      -4688.4374
  -2368404.68845  -1768613.52745  26055784.4974   26055790.8724
      1321.2814       1029.5704
  16215130.92047  12635168.40046  23946670.0604   23946673.6454
     -3634.1094      -2831.7744
    200818.51647    179911.20646  24086793.5994   24086796.3644
      -860.8754       -670.8124
  21663632.11743  16880735.36441  27518246.3414   27518255.7084
     -4602.0314      -3585.9984
  10346425.38447   8064497.41846  23447386.1614   23447388.3294
     -2891.5474      -2253.1534
  21639225.58745  16667679.40844  26545601.7084   26545605.3294
     -5243.0784      -4085.5154
 98  7  8 21 50 15.0090000  0  8G 3G 6G 1G17G21G22G23G26
  -3076315.54346  -2296926.08646  24507351.7634   24507354.3294
      -295.3594       -230.1504
  30147346.26043  23482011.12842  26834174.9354   26834183.6574
     -6017.8594      -4689.2414
  -2388207.30345  -1784044.03945  26052016.0914   26052022.2554
      1319.0784       1027.8534
  16269674.72847  12677670.06646  23957049.2164   23957052.5914
     -3638.4064      -2835.1224
    213762.88447    189997.74446  24089256.6774   24089259.4774
      -865.0944       -674.0994
  21732672.39943  16934532.91842  27531384.3334   27531394.1924
     -4603.3594      -3587.0334
  10389830.38047   8098319.49846  23455645.7474   23455647.8214
     -2895.7504      -2256.4294
  21717908.91645  16728991.07844  26560574.6064   26560578.1224
     -5248.0004      -4089.3514
 98  7  8 21 50 30.0090000  0  8G 3G 6G 1G17G21G22G23G26
  -3071836.74946  -2293436.09746  24508204.0994   24508206.6774
      -302.0474       -235.3614
  30237616.98743  23552351.82642  26851353.5444   26851362.5834
     -6018.4374      -4689.6924
  -2407981.92145  -1799452.76245  26048252.9354   26048258.5834
      1317.2974       1026.4654
  16324278.02447  12720218.08346  23967440.1774   23967443.5174
     -3642.2814      -2838.1414
    226766.09047    200130.13146  24091731.2164   24091734.0754
      -868.8914       -677.0584
  21801725.67942  16988340.52841  27544524.3884   27544531.1734
     -4603.9534      -3587.4964
  10433289.50747   8132183.75846  23463915.4664   23463917.6694
     -2899.0164      -2258.9734
  21796660.09145  16790355.60944  26575561.0834   26575564.5994
     -5252.3594      -4092.7484
 98  7  8 21 50 45.0090000  0  8G 3G 6G 1G17G21G22G23G26
  -3067248.11246  -2289860.51046  24509077.2164   24509080.2164
      -309.5314       -241.1934
  30327906.14744  23622706.85742  26868534.2394   26868542.6574
     -6019.8444      -4690.7874
  -2427717.84345  -1814831.30145  26044497.4974   26044502.7944
      1314.4384       1024.2374
  16378950.00147  12762819.62246  23977843.7474   23977846.9354
     -3647.0164      -2841.8304
    239836.67647    210315.02046  24094218.5364   24094221.1964
      -873.5624       -680.6984
  21870797.89342  17042163.04442  27557668.0674   27557675.3374
     -4605.3284      -3588.5674
  10476808.59847   8166094.74446  23472197.2164   23472199.3024
     -2903.3124      -2262.3214
  21875485.80745  16851778.23344  26590560.9194   26590563.3684
     -5257.4844      -4096.7414
 98  7  8 21 51  0.0090000  0  8G 3G 6G 1G17G21G22G23G26
  -3062551.04546  -2286200.43746  24509971.1534   24509973.9544
      -316.8124       -246.8674
  30418211.20444  23693074.31243  26885719.7944   26885729.9234
     -6020.9064      -4691.6154
  -2447415.35545  -1830179.90045  26040748.8644   26040754.7474
      1311.8444       1022.2164
  16433688.69147  12805473.13846  23988260.2394   23988263.2864
     -3651.6414      -2845.4344
    252973.25347    220551.33046  24096718.0994   24096720.4664
      -878.0474       -684.1924
  21939885.21742  17095997.13041  27570815.6384   27570825.6264
     -4606.4534      -3589.4444
  10520389.51547   8200053.91046  23480490.2314   23480492.2354
     -2907.5314      -2265.6094
  21954386.36045  16913259.17344  26605575.0524   26605578.8374
     -5262.6724      -4100.7834
 98  7  8 21 51 15.0090000  0  8G 3G 6G 1G17G21G22G23G26
  -3057748.29146  -2282458.00946  24510885.0134   24510888.0484
      -323.7664       -252.2854
  30508528.30144  23763451.09443  26902905.9504   26902916.7594
     -6021.5004      -4692.0784
  -2467079.34645  -1845502.38245  26037006.4504   26037012.9314
      1309.8284       1020.6454
  16488494.54847  12848178.99446  23998689.4814   23998692.5284
     -3655.9064      -2848.7584
    266171.38047    230835.60546  24099229.9034   24099232.5054
      -881.8284       -687.1394
  22008984.34542  17149840.50642  27583964.1694   27583973.3374
     -4606.9224      -3589.8094
  10564028.79347   8234058.55146  23488794.5754   23488796.7084
     -2911.2034      -2268.4704
  22033361.61745  16974798.33644  26620603.8254   26620609.0994
     -5267.5474      -4104.5824
 98  7  8 21 51 30.0090000  0  8G 3G 6G 1G17G21G22G23G26
  -3052836.28546  -2278630.45146  24511819.6854   24511822.4034
      -330.8594       -257.8124
  30598857.16644  23833837.10443  26920095.5914   26920103.7514
     -6022.0624      -4692.5164
  -2486708.15145  -1860797.45545  26033271.6454   26033277.4354
      1307.6414       1018.9414
  16543367.46947  12890937.10946  24009131.4194   24009134.5364
     -3660.1564      -2852.0704
    279430.22347    241167.17946  24101752.8254   24101755.4274
      -885.7194       -690.1704
  22078095.27742  17203693.09241  27597116.7474   27597125.9624
     -4607.5164      -3590.2724
  10607726.90847   8268109.03446  23497110.0914   23497112.2824
     -2914.8444      -2271.3074
  22112414.92045  17036398.28444  26635646.6694   26635651.1574
     -5272.5784      -4108.5024
 98  7  8 21 51 45.0090000  0  8G 3G 6G 1G17G21G22G23G26
  -3047822.30046  -2274723.43346  24512773.9814   24512776.7124
      -337.7194       -263.1574
  30689189.40844  23904225.72143  26937284.7704   26937296.0014
     -6022.2344      -4692.6504
  -2506308.75045  -1876070.53745  26029541.6694   26029547.7044
      1305.7814       1017.4924
  16598298.98547  12933740.88246  24019584.3644   24019587.4584
     -3664.0944      -2855.1384
    292743.68147    251541.32546  24104286.1694   24104288.8064
      -889.4374       -693.0684
  22147211.58642  17257549.73641  27610268.6454   27610274.4234
     -4607.9694      -3590.6254
  10651473.69047   8302197.44546  23505434.8334   23505437.0954
     -2918.0944      -2273.8394
  22191537.79045  17098052.44744  26650703.5364   26650705.6574
     -5277.1254      -4112.0454
 98  7  8 21 52  0.0090000  0  8G 3G 6G 1G17G21G22G23G26
  -3042703.04946  -2270734.38646  24513748.1224   24513751.2864
      -344.8124       -268.6854
  30779525.51044  23974617.34443  26954475.0674   26954483.8134
     -6022.4064      -4692.7844
  -2525880.75545  -1891321.33645  26025816.9504   26025823.1384
      1303.9534       1016.0674
  16653292.46647  12976592.94146  24030049.6614   24030052.5914
     -3668.2664      -2858.3894
    306112.68047    261958.73946  24106830.2244   24106832.8134
      -892.9064       -695.7714
  22216334.39242  17311411.70541  27623421.7004   27623433.5284
     -4608.2034      -3590.8084
  10695270.12047   8336324.53946  23513768.9034   23513771.2594
     -2921.3124      -2276.3474
  22270729.73445  17159760.45844  26665773.4744   26665777.7164
     -5281.7034      -4115.6134
 98  7  8 21 52 15.0090000  0  8G 3G 6G 1G17G21G22G23G26
  -3037476.03546  -2266661.37046  24514742.6854   24514745.4624
      -351.8444       -274.1644
  30869862.57344  24045009.75943  26971665.8804   26971675.2944
     -6022.2814      -4692.6874
  -2545426.60045  -1906551.75245  26022097.5604   26022104.0994
      1302.4694       1014.9114
  16708348.07547  13019493.40746  24040526.2004   24040529.1884
     -3672.1414      -2861.4084
    319530.66847    272414.33646  24109383.7634   24109386.3994
      -895.8914       -698.0974
  22285458.31742  17365274.42242  27636576.2244   27636585.2274
     -4608.0474      -3590.6864
  10739115.63147   8370489.86946  23522112.4504   23522114.7244
     -2924.4694      -2278.8074
  22349990.76745  17221522.28144  26680855.8174   26680859.9774
     -5286.1724      -4119.0954
 98  7  8 21 52 30.0090000  0  8G 3G 6G 1G17G21G22G23G26
  -3032142.02846  -2262504.98446  24515757.7554   24515760.8954
      -359.1254       -279.8384
  30960198.68044  24115401.34842  26988856.8564   26988866.2004
     -6022.2194      -4692.6384
  -2564951.12545  -1921765.55245  26018382.2704   26018388.4584
      1301.1564       1013.8884
  16763458.80547  13062436.82646  24051013.0054   24051015.8884
     -3675.5784      -2864.0874
    332993.18747    282904.62746  24111945.3334   24111947.6884
      -898.8444       -700.3984
  22354579.48942  17419134.95442  27649729.9814   27649738.6574
     -4607.8124      -3590.5034
  10783008.93647   8404692.45546  23530465.1694   23530467.4074
     -2927.7504      -2281.3644
  22429318.30445  17283335.91145  26695951.9034   26695955.6774
     -5290.4694      -4122.4434
 98  7  8 21 52 45.0090000  0  8G 3G 6G 1G17G21G22G23G26
  -3026700.42946  -2258264.76046  24516793.2394   24516796.1344
      -366.4224       -285.5244
  31050529.72844  24185789.00743  27006046.2554   27006057.5204
     -6021.8914      -4692.3824
  -2584461.04745  -1936968.00845  26014669.2704   26014674.8954
      1300.1884       1013.1334
  16818615.89247  13105416.36746  24061509.6384   24061512.7674
     -3678.6564      -2866.4854
    346496.79147    293426.93346  24114515.1224   24114517.5954
      -901.6254       -702.5654
  22423692.88143  17472989.46942  27662881.9114   27662890.9744
     -4607.3444      -3590.1384
  10826950.27047   8438932.45946  23538826.8954   23538829.0634
     -2931.1414      -2284.0064
  22508705.28345  17345195.88844  26711058.3104   26711063.0324
     -5294.3914      -4125.4994
 98  7  8 21 53  0.0090000  0  8G 3G 6G 1G17G21G22G23G26
  -3021146.72646  -2253937.18446  24517850.1924   24517853.1104
      -374.0624       -291.4774
  31140858.20544  24256174.71142  27023235.2864   27023245.2164
     -6021.8914      -4692.3824
  -2603953.61845  -1952156.92145  26010960.2634   26010965.7944
      1298.9064       1012.1354
  16873821.43047  13148433.66746  24072014.7004   24072017.7004
     -3682.0784      -2869.1524
    360046.25047    303984.97246  24117093.5754   24117096.1304
      -904.9374       -705.1464
  22492802.88943  17526841.29442  27676033.0914   27676043.7944
     -4607.3124      -3590.1144
  10870947.52847   8473216.04546  23547199.2314   23547201.2474
     -2935.0944      -2287.0864
  22588153.29745  17407103.38744  26726177.1224   26726182.4074
     -5298.6414      -4128.8114
 98  7  8 21 53 15.0090000  0  8G 3G 6G 1G17G21G22G23G26
  -3015485.32846  -2249525.68946  24518927.1924   24518930.0174
      -380.6874       -296.6404
  31231180.32844  24326555.46242  27040423.4584   27040431.4074
     -6020.9374      -4691.6404
  -2623435.97845  -1967337.85945  26007251.8494   26007257.5674
      1298.8754       1012.1104
  16929072.22447  13191486.22346  24082528.6854   24082531.8844
     -3684.5944      -2871.1124
    373637.72147    314575.74446  24119679.8254   24119682.5094
      -907.1094       -706.8384
  22561905.94043  17580687.72142  27689182.8884   27689192.9114
     -4606.3444      -3589.3594
  10914996.16347   8507539.66146  23555581.4114   23555583.3804
     -2937.9224      -2289.2904
  22667657.09445  17469054.38544  26741305.5054   26741309.3494
     -5301.6254      -4131.1364
 98  7  8 21 53 30.0090000  0  8G 3G 6G 1G17G21G22G23G26
  -3009721.68346  -2245034.52246  24520023.7864   24520026.5754
      -387.8914       -302.2524
  31321490.25044  24396926.65443  27057608.8174   27057619.9194
     -6020.5164      -4691.3114
  -2642914.70145  -1982515.95845  26003545.3174   26003551.5524
      1298.1254       1011.5264
  16984361.65847  13234568.89346  24093049.5834   24093053.0634
     -3687.4064      -2873.3044
    387263.62247    325193.35046  24122272.8414   24122275.5714
      -909.8594       -708.9814
  22630996.99644  17634524.84442  27702331.0604   27702338.4234
     -4605.9064      -3589.0184
  10959089.97347   8541898.47946  23563972.2244   23563974.0634
     -2941.3754      -2291.9814
  22747206.79745  17531041.14243  26756444.0604   26756449.0524
     -5305.0784      -4133.8274
 98  7  8 21 53 45.0090000  0  8G 3G 6G 1G17G21G22G23G26
  -3003847.86746  -2240457.50446  24521141.7634   24521144.5284
      -394.9844       -307.7804
  31411798.82544  24467296.84443  27074794.1694   27074801.4154
     -6020.3124      -4691.1534
  -2662378.75045  -1997682.64345  25999841.5834   25999848.0174
      1297.4384       1010.9904
  17039697.20647  13277687.48846  24103579.7164   24103583.1614
     -3690.4064      -2875.6414
    400937.43247    335848.28046  24124874.9274   24124877.4704
      -912.9844       -711.4164
  22700085.25644  17688359.75043  27715478.0834   27715488.1184
     -4605.5784      -3588.7624
  11003238.99147   8576300.31846  23572373.4664   23572375.4354
     -2944.8594      -2294.6964
  22826809.89345  17593069.52044  26771591.8954   26771597.2274
     -5308.3284      -4136.3604
